<?xml version="1.0" encoding="UTF-8" standalone="no" ?>
<gpx xmlns="http://www.topografix.com/GPX/1/1" xmlns:xsi="http://www.w3.org/2001/XMLSchema-instance" xsi:schemaLocation="http://www.topografix.com/GPX/1/1 http://www.topografix.com/GPX/1/1/gpx.xsd" version="1.1" creator="VisuGPX - https://www.visugpx.com">
  <metadata>
    <name>Les garrigues de Sommières</name>
  </metadata>
  <trk>
    <name><![CDATA[Les garrigues de Sommières]]></name>
    <extensions>
      <line xmlns="http://www.topografix.com/GPX/gpx_style/0/2">
        <color>0000FF</color>
        <width>4</width>
      </line>
    </extensions>
    <trkseg>
      <trkpt lat="43.78653" lon="4.08584">
        <ele>27.808977</ele>
        <time>2020-01-17T18:29:00.403Z</time>
      </trkpt>
      <trkpt lat="43.78672" lon="4.0857">
        <ele>27.808977</ele>
        <time>2020-01-17T18:29:05.052Z</time>
      </trkpt>
      <trkpt lat="43.78677" lon="4.08566">
        <ele>27.808977</ele>
        <time>2020-01-17T18:29:06.302Z</time>
      </trkpt>
      <trkpt lat="43.7869" lon="4.08548">
        <ele>27.808977</ele>
        <time>2020-01-17T18:29:19.573Z</time>
      </trkpt>
      <trkpt lat="43.78713" lon="4.08528">
        <ele>27.808977</ele>
        <time>2020-01-17T18:29:38.133Z</time>
      </trkpt>
      <trkpt lat="43.78717" lon="4.08524">
        <ele>27.808977</ele>
        <time>2020-01-17T18:29:41.781Z</time>
      </trkpt>
      <trkpt lat="43.78696" lon="4.08459">
        <ele>27.815816</ele>
        <time>2020-01-17T18:30:17.565Z</time>
      </trkpt>
      <trkpt lat="43.78691" lon="4.08447">
        <ele>27.817548</ele>
        <time>2020-01-17T18:30:24.460Z</time>
      </trkpt>
      <trkpt lat="43.78685" lon="4.0845">
        <ele>27.818665</ele>
        <time>2020-01-17T18:30:28.887Z</time>
      </trkpt>
      <trkpt lat="43.78669" lon="4.08391">
        <ele>27.826582</ele>
        <time>2020-01-17T18:31:00.569Z</time>
      </trkpt>
      <trkpt lat="43.78662" lon="4.08386">
        <ele>27.827885</ele>
        <time>2020-01-17T18:31:05.840Z</time>
      </trkpt>
      <trkpt lat="43.7866" lon="4.08381">
        <ele>27.82862</ele>
        <time>2020-01-17T18:31:08.738Z</time>
      </trkpt>
      <trkpt lat="43.78656" lon="4.08383">
        <ele>27.829362</ele>
        <time>2020-01-17T18:31:09.780Z</time>
      </trkpt>
      <trkpt lat="43.78626" lon="4.08398">
        <ele>27.835004</ele>
        <time>2020-01-17T18:31:17.516Z</time>
      </trkpt>
      <trkpt lat="43.78621" lon="4.08403">
        <ele>27.835998</ele>
        <time>2020-01-17T18:31:18.820Z</time>
      </trkpt>
      <trkpt lat="43.786" lon="4.08413">
        <ele>27.83991</ele>
        <time>2020-01-17T18:31:24.787Z</time>
      </trkpt>
      <trkpt lat="43.78572" lon="4.08426">
        <ele>28.15389</ele>
        <time>2020-01-17T18:31:32.543Z</time>
      </trkpt>
      <trkpt lat="43.78566" lon="4.08427">
        <ele>28.222163</ele>
        <time>2020-01-17T18:31:33.985Z</time>
      </trkpt>
      <trkpt lat="43.78557" lon="4.08432">
        <ele>28.335509</ele>
        <time>2020-01-17T18:31:36.169Z</time>
      </trkpt>
      <trkpt lat="43.78546" lon="4.08437">
        <ele>28.470917</ele>
        <time>2020-01-17T18:31:39.013Z</time>
      </trkpt>
      <trkpt lat="43.78544" lon="4.08436">
        <ele>28.502007</ele>
        <time>2020-01-17T18:31:39.848Z</time>
      </trkpt>
      <trkpt lat="43.78541" lon="4.08431">
        <ele>28.551601</ele>
        <time>2020-01-17T18:31:41.784Z</time>
      </trkpt>
      <trkpt lat="43.78537" lon="4.08395">
        <ele>28.855135</ele>
        <time>2020-01-17T18:31:48.169Z</time>
      </trkpt>
      <trkpt lat="43.78534" lon="4.08373">
        <ele>29.038825</ele>
        <time>2020-01-17T18:31:53.606Z</time>
      </trkpt>
      <trkpt lat="43.78531" lon="4.08339">
        <ele>29.325447</ele>
        <time>2020-01-17T18:32:00.267Z</time>
      </trkpt>
      <trkpt lat="43.7853" lon="4.08326">
        <ele>29.434204</ele>
        <time>2020-01-17T18:32:03.807Z</time>
      </trkpt>
      <trkpt lat="43.78528" lon="4.08298">
        <ele>29.668916</ele>
        <time>2020-01-17T18:32:09.055Z</time>
      </trkpt>
      <trkpt lat="43.78528" lon="4.0828">
        <ele>29.819731</ele>
        <time>2020-01-17T18:32:13.711Z</time>
      </trkpt>
      <trkpt lat="43.78526" lon="4.08253">
        <ele>30.059349</ele>
        <time>2020-01-17T18:32:19.245Z</time>
      </trkpt>
      <trkpt lat="43.78521" lon="4.08207">
        <ele>30.499964</ele>
        <time>2020-01-17T18:32:29.830Z</time>
      </trkpt>
      <trkpt lat="43.7852" lon="4.08183">
        <ele>30.72426</ele>
        <time>2020-01-17T18:32:34.740Z</time>
      </trkpt>
      <trkpt lat="43.78519" lon="4.08171">
        <ele>30.840464</ele>
        <time>2020-01-17T18:32:37.499Z</time>
      </trkpt>
      <trkpt lat="43.78516" lon="4.08148">
        <ele>31.060861</ele>
        <time>2020-01-17T18:32:42.058Z</time>
      </trkpt>
      <trkpt lat="43.78513" lon="4.08116">
        <ele>31.366196</ele>
        <time>2020-01-17T18:32:48.494Z</time>
      </trkpt>
      <trkpt lat="43.78517" lon="4.0808">
        <ele>31.712008</ele>
        <time>2020-01-17T18:32:55.466Z</time>
      </trkpt>
      <trkpt lat="43.78519" lon="4.08067">
        <ele>31.834865</ele>
        <time>2020-01-17T18:32:58.469Z</time>
      </trkpt>
      <trkpt lat="43.78523" lon="4.08067">
        <ele>31.878068</ele>
        <time>2020-01-17T18:32:59.378Z</time>
      </trkpt>
      <trkpt lat="43.7853" lon="4.0806">
        <ele>32.004014</ele>
        <time>2020-01-17T18:33:02.031Z</time>
      </trkpt>
      <trkpt lat="43.78531" lon="4.08055">
        <ele>32.047613</ele>
        <time>2020-01-17T18:33:02.887Z</time>
      </trkpt>
      <trkpt lat="43.7854" lon="4.08058">
        <ele>32.164132</ele>
        <time>2020-01-17T18:33:05.097Z</time>
      </trkpt>
      <trkpt lat="43.78553" lon="4.08053">
        <ele>32.393963</ele>
        <time>2020-01-17T18:33:09.184Z</time>
      </trkpt>
      <trkpt lat="43.78594" lon="4.08005">
        <ele>33.678709</ele>
        <time>2020-01-17T18:33:24.625Z</time>
      </trkpt>
      <trkpt lat="43.78602" lon="4.08">
        <ele>33.896013</ele>
        <time>2020-01-17T18:33:27.236Z</time>
      </trkpt>
      <trkpt lat="43.78582" lon="4.07945">
        <ele>34.951657</ele>
        <time>2020-01-17T18:33:40.677Z</time>
      </trkpt>
      <trkpt lat="43.78569" lon="4.07918">
        <ele>35.51394</ele>
        <time>2020-01-17T18:33:50.753Z</time>
      </trkpt>
      <trkpt lat="43.78545" lon="4.0789">
        <ele>36.261671</ele>
        <time>2020-01-17T18:34:03.812Z</time>
      </trkpt>
      <trkpt lat="43.78526" lon="4.07862">
        <ele>37.494585</ele>
        <time>2020-01-17T18:34:16.197Z</time>
      </trkpt>
      <trkpt lat="43.78517" lon="4.07855">
        <ele>38.160185</ele>
        <time>2020-01-17T18:34:20.824Z</time>
      </trkpt>
      <trkpt lat="43.78485" lon="4.07812">
        <ele>40.960989</ele>
        <time>2020-01-17T18:34:41.749Z</time>
      </trkpt>
      <trkpt lat="43.78484" lon="4.07805">
        <ele>41.308184</ele>
        <time>2020-01-17T18:34:44.006Z</time>
      </trkpt>
      <trkpt lat="43.78485" lon="4.07801">
        <ele>41.470823</ele>
        <time>2020-01-17T18:34:45.798Z</time>
      </trkpt>
      <trkpt lat="43.78483" lon="4.07795">
        <ele>41.805845</ele>
        <time>2020-01-17T18:34:50.109Z</time>
      </trkpt>
      <trkpt lat="43.78472" lon="4.07771">
        <ele>43.075471</ele>
        <time>2020-01-17T18:34:59.770Z</time>
      </trkpt>
      <trkpt lat="43.78468" lon="4.07749">
        <ele>44.117177</ele>
        <time>2020-01-17T18:35:10.005Z</time>
      </trkpt>
      <trkpt lat="43.78465" lon="4.07736">
        <ele>44.739581</ele>
        <time>2020-01-17T18:35:15.271Z</time>
      </trkpt>
      <trkpt lat="43.78418" lon="4.07653">
        <ele>49.82642</ele>
        <time>2020-01-17T18:36:05.946Z</time>
      </trkpt>
      <trkpt lat="43.78355" lon="4.0761">
        <ele>55.158301</ele>
        <time>2020-01-17T18:36:51.397Z</time>
      </trkpt>
      <trkpt lat="43.78329" lon="4.07584">
        <ele>57.55117</ele>
        <time>2020-01-17T18:37:10.172Z</time>
      </trkpt>
      <trkpt lat="43.78336" lon="4.07575">
        <ele>58.229372</ele>
        <time>2020-01-17T18:37:17.325Z</time>
      </trkpt>
      <trkpt lat="43.78367" lon="4.07504">
        <ele>62.264978</ele>
        <time>2020-01-17T18:37:48.179Z</time>
      </trkpt>
      <trkpt lat="43.78409" lon="4.07488">
        <ele>64.384939</ele>
        <time>2020-01-17T18:38:10.710Z</time>
      </trkpt>
      <trkpt lat="43.7841" lon="4.07487">
        <ele>64.417146</ele>
        <time>2020-01-17T18:38:11.732Z</time>
      </trkpt>
      <trkpt lat="43.78433" lon="4.07472">
        <ele>65.686326</ele>
        <time>2020-01-17T18:38:22.997Z</time>
      </trkpt>
      <trkpt lat="43.78459" lon="4.07458">
        <ele>67.043351</ele>
        <time>2020-01-17T18:38:36.783Z</time>
      </trkpt>
      <trkpt lat="43.78466" lon="4.07451">
        <ele>67.43245</ele>
        <time>2020-01-17T18:38:39.512Z</time>
      </trkpt>
      <trkpt lat="43.78495" lon="4.07408">
        <ele>69.496227</ele>
        <time>2020-01-17T18:38:55.882Z</time>
      </trkpt>
      <trkpt lat="43.78508" lon="4.07387">
        <ele>70.315219</ele>
        <time>2020-01-17T18:39:06.290Z</time>
      </trkpt>
      <trkpt lat="43.78512" lon="4.0738">
        <ele>70.471039</ele>
        <time>2020-01-17T18:39:09.150Z</time>
      </trkpt>
      <trkpt lat="43.78515" lon="4.07372">
        <ele>70.643981</ele>
        <time>2020-01-17T18:39:11.627Z</time>
      </trkpt>
      <trkpt lat="43.78518" lon="4.0736">
        <ele>70.880925</ele>
        <time>2020-01-17T18:39:15.794Z</time>
      </trkpt>
      <trkpt lat="43.78522" lon="4.07323">
        <ele>71.580167</ele>
        <time>2020-01-17T18:39:28.505Z</time>
      </trkpt>
      <trkpt lat="43.78522" lon="4.07303">
        <ele>71.947816</ele>
        <time>2020-01-17T18:39:32.975Z</time>
      </trkpt>
      <trkpt lat="43.78523" lon="4.07288">
        <ele>72.232373</ele>
        <time>2020-01-17T18:39:38.741Z</time>
      </trkpt>
      <trkpt lat="43.7853" lon="4.072">
        <ele>73.883401</ele>
        <time>2020-01-17T18:39:59.544Z</time>
      </trkpt>
      <trkpt lat="43.78531" lon="4.07192">
        <ele>74.031685</ele>
        <time>2020-01-17T18:40:02.766Z</time>
      </trkpt>
      <trkpt lat="43.78525" lon="4.07182">
        <ele>74.284608</ele>
        <time>2020-01-17T18:40:05.916Z</time>
      </trkpt>
      <trkpt lat="43.78526" lon="4.0713">
        <ele>74.248312</ele>
        <time>2020-01-17T18:40:15.557Z</time>
      </trkpt>
      <trkpt lat="43.78528" lon="4.07119">
        <ele>74.000393</ele>
        <time>2020-01-17T18:40:17.802Z</time>
      </trkpt>
      <trkpt lat="43.7853" lon="4.071">
        <ele>73.572913</ele>
        <time>2020-01-17T18:40:20.589Z</time>
      </trkpt>
      <trkpt lat="43.7853" lon="4.07082">
        <ele>73.202172</ele>
        <time>2020-01-17T18:40:23.820Z</time>
      </trkpt>
      <trkpt lat="43.78511" lon="4.07014">
        <ele>71.626644</ele>
        <time>2020-01-17T18:40:32.916Z</time>
      </trkpt>
      <trkpt lat="43.78547" lon="4.06902">
        <ele>68.949467</ele>
        <time>2020-01-17T18:40:47.542Z</time>
      </trkpt>
      <trkpt lat="43.78562" lon="4.06857">
        <ele>67.724461</ele>
        <time>2020-01-17T18:40:53.614Z</time>
      </trkpt>
      <trkpt lat="43.78705" lon="4.06931">
        <ele>62.95858</ele>
        <time>2020-01-17T18:41:21.250Z</time>
      </trkpt>
      <trkpt lat="43.78726" lon="4.06944">
        <ele>62.558994</ele>
        <time>2020-01-17T18:41:26.844Z</time>
      </trkpt>
      <trkpt lat="43.78806" lon="4.07039">
        <ele>60.762486</ele>
        <time>2020-01-17T18:41:47.965Z</time>
      </trkpt>
      <trkpt lat="43.78855" lon="4.07044">
        <ele>59.762451</ele>
        <time>2020-01-17T18:41:57.355Z</time>
      </trkpt>
      <trkpt lat="43.78868" lon="4.07045">
        <ele>59.416087</ele>
        <time>2020-01-17T18:41:59.884Z</time>
      </trkpt>
      <trkpt lat="43.78887" lon="4.07028">
        <ele>58.843544</ele>
        <time>2020-01-17T18:42:07.226Z</time>
      </trkpt>
      <trkpt lat="43.78928" lon="4.06982">
        <ele>57.512672</ele>
        <time>2020-01-17T18:42:23.911Z</time>
      </trkpt>
      <trkpt lat="43.78965" lon="4.06969">
        <ele>56.546585</ele>
        <time>2020-01-17T18:42:35.897Z</time>
      </trkpt>
      <trkpt lat="43.78999" lon="4.06925">
        <ele>55.304181</ele>
        <time>2020-01-17T18:42:50.220Z</time>
      </trkpt>
      <trkpt lat="43.79008" lon="4.06906">
        <ele>54.778999</ele>
        <time>2020-01-17T18:42:55.577Z</time>
      </trkpt>
      <trkpt lat="43.79023" lon="4.0683">
        <ele>53.014309</ele>
        <time>2020-01-17T18:43:13.543Z</time>
      </trkpt>
      <trkpt lat="43.79038" lon="4.06799">
        <ele>52.166676</ele>
        <time>2020-01-17T18:43:21.812Z</time>
      </trkpt>
      <trkpt lat="43.79054" lon="4.06799">
        <ele>51.656545</ele>
        <time>2020-01-17T18:43:26.830Z</time>
      </trkpt>
      <trkpt lat="43.79078" lon="4.06776">
        <ele>50.747046</ele>
        <time>2020-01-17T18:43:35.566Z</time>
      </trkpt>
      <trkpt lat="43.79101" lon="4.06725">
        <ele>49.27394</ele>
        <time>2020-01-17T18:43:48.761Z</time>
      </trkpt>
      <trkpt lat="43.79134" lon="4.06666">
        <ele>47.349714</ele>
        <time>2020-01-17T18:44:04.795Z</time>
      </trkpt>
      <trkpt lat="43.7918" lon="4.06699">
        <ele>45.484745</ele>
        <time>2020-01-17T18:44:20.511Z</time>
      </trkpt>
      <trkpt lat="43.79199" lon="4.06702">
        <ele>44.779153</ele>
        <time>2020-01-17T18:44:26.444Z</time>
      </trkpt>
      <trkpt lat="43.79235" lon="4.06674">
        <ele>43.438979</ele>
        <time>2020-01-17T18:44:38.821Z</time>
      </trkpt>
      <trkpt lat="43.79285" lon="4.06658">
        <ele>42.278252</ele>
        <time>2020-01-17T18:44:55.001Z</time>
      </trkpt>
      <trkpt lat="43.79291" lon="4.0666">
        <ele>42.151264</ele>
        <time>2020-01-17T18:44:56.503Z</time>
      </trkpt>
      <trkpt lat="43.79291" lon="4.0666">
        <ele>42.151264</ele>
        <time>2020-01-17T18:44:56.524Z</time>
      </trkpt>
      <trkpt lat="43.79291" lon="4.0666">
        <ele>42.151264</ele>
        <time>2020-01-17T18:44:56.598Z</time>
      </trkpt>
      <trkpt lat="43.79291" lon="4.0666">
        <ele>42.151264</ele>
        <time>2020-01-17T18:44:56.598Z</time>
      </trkpt>
      <trkpt lat="43.79293" lon="4.0666">
        <ele>42.097304</ele>
        <time>2020-01-17T18:44:57.220Z</time>
      </trkpt>
      <trkpt lat="43.79315" lon="4.06671">
        <ele>41.573572</ele>
        <time>2020-01-17T18:45:03.268Z</time>
      </trkpt>
      <trkpt lat="43.79319" lon="4.06674">
        <ele>41.47172</ele>
        <time>2020-01-17T18:45:04.444Z</time>
      </trkpt>
      <trkpt lat="43.7933" lon="4.06683">
        <ele>41.185655</ele>
        <time>2020-01-17T18:45:07.748Z</time>
      </trkpt>
      <trkpt lat="43.79333" lon="4.06685">
        <ele>41.111105</ele>
        <time>2020-01-17T18:45:08.609Z</time>
      </trkpt>
      <trkpt lat="43.79336" lon="4.06688">
        <ele>41.028256</ele>
        <time>2020-01-17T18:45:09.567Z</time>
      </trkpt>
      <trkpt lat="43.79341" lon="4.06694">
        <ele>40.880132</ele>
        <time>2020-01-17T18:45:11.279Z</time>
      </trkpt>
      <trkpt lat="43.79345" lon="4.06696">
        <ele>40.784908</ele>
        <time>2020-01-17T18:45:12.378Z</time>
      </trkpt>
      <trkpt lat="43.79348" lon="4.06697">
        <ele>40.715814</ele>
        <time>2020-01-17T18:45:13.176Z</time>
      </trkpt>
      <trkpt lat="43.79357" lon="4.06701">
        <ele>40.504168</ele>
        <time>2020-01-17T18:45:15.619Z</time>
      </trkpt>
      <trkpt lat="43.79361" lon="4.06704">
        <ele>40.402315</ele>
        <time>2020-01-17T18:45:16.795Z</time>
      </trkpt>
      <trkpt lat="43.79366" lon="4.06706">
        <ele>40.285781</ele>
        <time>2020-01-17T18:45:18.141Z</time>
      </trkpt>
      <trkpt lat="43.79369" lon="4.06709">
        <ele>40.202932</ele>
        <time>2020-01-17T18:45:19.098Z</time>
      </trkpt>
      <trkpt lat="43.79368" lon="4.0671">
        <ele>40.175315</ele>
        <time>2020-01-17T18:45:19.417Z</time>
      </trkpt>
      <trkpt lat="43.79381" lon="4.06731">
        <ele>39.728154</ele>
        <time>2020-01-17T18:45:24.588Z</time>
      </trkpt>
      <trkpt lat="43.79415" lon="4.06774">
        <ele>39.163958</ele>
        <time>2020-01-17T18:45:36.503Z</time>
      </trkpt>
      <trkpt lat="43.79452" lon="4.0681">
        <ele>38.666643</ele>
        <time>2020-01-17T18:45:48.200Z</time>
      </trkpt>
      <trkpt lat="43.79491" lon="4.06842">
        <ele>38.168081</ele>
        <time>2020-01-17T18:45:59.924Z</time>
      </trkpt>
      <trkpt lat="43.79505" lon="4.06851">
        <ele>37.998321</ele>
        <time>2020-01-17T18:46:03.914Z</time>
      </trkpt>
      <trkpt lat="43.79559" lon="4.06867">
        <ele>37.60792</ele>
        <time>2020-01-17T18:46:18.184Z</time>
      </trkpt>
      <trkpt lat="43.7956" lon="4.06856">
        <ele>37.597792</ele>
        <time>2020-01-17T18:46:20.261Z</time>
      </trkpt>
      <trkpt lat="43.79577" lon="4.0676">
        <ele>37.507496</ele>
        <time>2020-01-17T18:46:38.758Z</time>
      </trkpt>
      <trkpt lat="43.79578" lon="4.06761">
        <ele>37.506269</ele>
        <time>2020-01-17T18:46:39.014Z</time>
      </trkpt>
      <trkpt lat="43.79621" lon="4.06602">
        <ele>37.484548</ele>
        <time>2020-01-17T18:47:09.740Z</time>
      </trkpt>
      <trkpt lat="43.7967" lon="4.06511">
        <ele>37.621284</ele>
        <time>2020-01-17T18:47:29.229Z</time>
      </trkpt>
      <trkpt lat="43.79692" lon="4.06434">
        <ele>37.704444</ele>
        <time>2020-01-17T18:47:43.552Z</time>
      </trkpt>
      <trkpt lat="43.79696" lon="4.0642">
        <ele>37.694018</ele>
        <time>2020-01-17T18:47:45.909Z</time>
      </trkpt>
      <trkpt lat="43.79725" lon="4.06355">
        <ele>37.642809</ele>
        <time>2020-01-17T18:47:58.606Z</time>
      </trkpt>
      <trkpt lat="43.79763" lon="4.06303">
        <ele>37.592841</ele>
        <time>2020-01-17T18:48:10.378Z</time>
      </trkpt>
      <trkpt lat="43.79859" lon="4.06008">
        <ele>38.157845</ele>
        <time>2020-01-17T18:49:07.022Z</time>
      </trkpt>
      <trkpt lat="43.79896" lon="4.0597">
        <ele>38.854073</ele>
        <time>2020-01-17T18:49:20.483Z</time>
      </trkpt>
      <trkpt lat="43.799" lon="4.05968">
        <ele>38.913904</ele>
        <time>2020-01-17T18:49:21.714Z</time>
      </trkpt>
      <trkpt lat="43.80072" lon="4.05808">
        <ele>42.060027</ele>
        <time>2020-01-17T18:50:28.836Z</time>
      </trkpt>
      <trkpt lat="43.80088" lon="4.05778">
        <ele>42.475844</ele>
        <time>2020-01-17T18:50:37.481Z</time>
      </trkpt>
      <trkpt lat="43.80114" lon="4.05611">
        <ele>43.926035</ele>
        <time>2020-01-17T18:51:13.227Z</time>
      </trkpt>
      <trkpt lat="43.80134" lon="4.05543">
        <ele>44.264174</ele>
        <time>2020-01-17T18:51:26.909Z</time>
      </trkpt>
      <trkpt lat="43.80176" lon="4.05484">
        <ele>44.643481</ele>
        <time>2020-01-17T18:51:41.446Z</time>
      </trkpt>
      <trkpt lat="43.80216" lon="4.05446">
        <ele>45.064794</ele>
        <time>2020-01-17T18:51:53.596Z</time>
      </trkpt>
      <trkpt lat="43.80279" lon="4.05338">
        <ele>46.101201</ele>
        <time>2020-01-17T18:52:21.316Z</time>
      </trkpt>
      <trkpt lat="43.80282" lon="4.05319">
        <ele>46.253588</ele>
        <time>2020-01-17T18:52:25.449Z</time>
      </trkpt>
      <trkpt lat="43.8029" lon="4.05318">
        <ele>46.338787</ele>
        <time>2020-01-17T18:52:29.488Z</time>
      </trkpt>
      <trkpt lat="43.80451" lon="4.05121">
        <ele>49.867693</ele>
        <time>2020-01-17T18:54:08.346Z</time>
      </trkpt>
      <trkpt lat="43.80635" lon="4.04956">
        <ele>53.663958</ele>
        <time>2020-01-17T18:55:47.593Z</time>
      </trkpt>
      <trkpt lat="43.80694" lon="4.04903">
        <ele>55.058908</ele>
        <time>2020-01-17T18:56:20.372Z</time>
      </trkpt>
      <trkpt lat="43.80703" lon="4.04891">
        <ele>55.28878</ele>
        <time>2020-01-17T18:56:25.638Z</time>
      </trkpt>
      <trkpt lat="43.80709" lon="4.04843">
        <ele>55.990937</ele>
        <time>2020-01-17T18:56:42.517Z</time>
      </trkpt>
      <trkpt lat="43.8071" lon="4.04738">
        <ele>57.956326</ele>
        <time>2020-01-17T18:57:20.799Z</time>
      </trkpt>
      <trkpt lat="43.80712" lon="4.04734">
        <ele>58.056426</ele>
        <time>2020-01-17T18:57:22.947Z</time>
      </trkpt>
      <trkpt lat="43.80717" lon="4.04733">
        <ele>58.193822</ele>
        <time>2020-01-17T18:57:24.720Z</time>
      </trkpt>
      <trkpt lat="43.80761" lon="4.04721">
        <ele>59.422645</ele>
        <time>2020-01-17T18:57:40.614Z</time>
      </trkpt>
      <trkpt lat="43.80768" lon="4.0472">
        <ele>59.62487</ele>
        <time>2020-01-17T18:57:43.559Z</time>
      </trkpt>
      <trkpt lat="43.80821" lon="4.04705">
        <ele>61.120001</ele>
        <time>2020-01-17T18:58:03.528Z</time>
      </trkpt>
      <trkpt lat="43.8083" lon="4.04702">
        <ele>61.387434</ele>
        <time>2020-01-17T18:58:06.536Z</time>
      </trkpt>
      <trkpt lat="43.80834" lon="4.04703">
        <ele>61.538321</ele>
        <time>2020-01-17T18:58:09.086Z</time>
      </trkpt>
      <trkpt lat="43.80829" lon="4.04676">
        <ele>62.227967</ele>
        <time>2020-01-17T18:58:17.232Z</time>
      </trkpt>
      <trkpt lat="43.80817" lon="4.04636">
        <ele>63.295588</ele>
        <time>2020-01-17T18:58:29.885Z</time>
      </trkpt>
      <trkpt lat="43.80813" lon="4.0462">
        <ele>63.703742</ele>
        <time>2020-01-17T18:58:34.245Z</time>
      </trkpt>
      <trkpt lat="43.80803" lon="4.04562">
        <ele>65.191472</ele>
        <time>2020-01-17T18:58:52.990Z</time>
      </trkpt>
      <trkpt lat="43.80852" lon="4.04539">
        <ele>66.944006</ele>
        <time>2020-01-17T18:59:14.549Z</time>
      </trkpt>
      <trkpt lat="43.80908" lon="4.0449">
        <ele>68.830364</ele>
        <time>2020-01-17T18:59:36.655Z</time>
      </trkpt>
      <trkpt lat="43.80914" lon="4.04487">
        <ele>69.002116</ele>
        <time>2020-01-17T18:59:40.557Z</time>
      </trkpt>
      <trkpt lat="43.80911" lon="4.04479">
        <ele>69.170487</ele>
        <time>2020-01-17T18:59:42.310Z</time>
      </trkpt>
      <trkpt lat="43.80908" lon="4.04464">
        <ele>69.471354</ele>
        <time>2020-01-17T18:59:45.208Z</time>
      </trkpt>
      <trkpt lat="43.80897" lon="4.04413">
        <ele>70.504346</ele>
        <time>2020-01-17T18:59:59.112Z</time>
      </trkpt>
      <trkpt lat="43.80894" lon="4.04369">
        <ele>71.380034</ele>
        <time>2020-01-17T19:00:10.505Z</time>
      </trkpt>
      <trkpt lat="43.80892" lon="4.04351">
        <ele>71.720901</ele>
        <time>2020-01-17T19:00:14.695Z</time>
      </trkpt>
      <trkpt lat="43.80891" lon="4.04308">
        <ele>72.578537</ele>
        <time>2020-01-17T19:00:26.187Z</time>
      </trkpt>
      <trkpt lat="43.80891" lon="4.043">
        <ele>72.742229</ele>
        <time>2020-01-17T19:00:28.260Z</time>
      </trkpt>
      <trkpt lat="43.80891" lon="4.04291">
        <ele>72.915105</ele>
        <time>2020-01-17T19:00:32.561Z</time>
      </trkpt>
      <trkpt lat="43.80886" lon="4.04223">
        <ele>74.263386</ele>
        <time>2020-01-17T19:00:48.484Z</time>
      </trkpt>
      <trkpt lat="43.80883" lon="4.04161">
        <ele>75.500074</ele>
        <time>2020-01-17T19:01:05.506Z</time>
      </trkpt>
      <trkpt lat="43.80882" lon="4.04151">
        <ele>75.713224</ele>
        <time>2020-01-17T19:01:08.913Z</time>
      </trkpt>
      <trkpt lat="43.80882" lon="4.04142">
        <ele>75.874941</ele>
        <time>2020-01-17T19:01:11.741Z</time>
      </trkpt>
      <trkpt lat="43.80868" lon="4.04072">
        <ele>77.261137</ele>
        <time>2020-01-17T19:01:29.890Z</time>
      </trkpt>
      <trkpt lat="43.80858" lon="4.0405">
        <ele>77.386373</ele>
        <time>2020-01-17T19:01:37.034Z</time>
      </trkpt>
      <trkpt lat="43.8084" lon="4.04009">
        <ele>77.621462</ele>
        <time>2020-01-17T19:01:47.143Z</time>
      </trkpt>
      <trkpt lat="43.80832" lon="4.03989">
        <ele>77.729587</ele>
        <time>2020-01-17T19:01:50.538Z</time>
      </trkpt>
      <trkpt lat="43.80832" lon="4.03984">
        <ele>77.755968</ele>
        <time>2020-01-17T19:01:51.547Z</time>
      </trkpt>
      <trkpt lat="43.80835" lon="4.03975">
        <ele>77.804502</ele>
        <time>2020-01-17T19:01:53.716Z</time>
      </trkpt>
      <trkpt lat="43.80836" lon="4.03967">
        <ele>77.842798</ele>
        <time>2020-01-17T19:01:55.889Z</time>
      </trkpt>
      <trkpt lat="43.80833" lon="4.03959">
        <ele>77.886911</ele>
        <time>2020-01-17T19:01:57.318Z</time>
      </trkpt>
      <trkpt lat="43.80789" lon="4.03892">
        <ele>78.330964</ele>
        <time>2020-01-17T19:02:11.621Z</time>
      </trkpt>
      <trkpt lat="43.80777" lon="4.03879">
        <ele>78.434329</ele>
        <time>2020-01-17T19:02:14.488Z</time>
      </trkpt>
      <trkpt lat="43.80769" lon="4.03862">
        <ele>78.45885</ele>
        <time>2020-01-17T19:02:17.578Z</time>
      </trkpt>
      <trkpt lat="43.8074" lon="4.0381">
        <ele>78.47837</ele>
        <time>2020-01-17T19:02:27.381Z</time>
      </trkpt>
      <trkpt lat="43.80725" lon="4.03772">
        <ele>78.491292</ele>
        <time>2020-01-17T19:02:33.965Z</time>
      </trkpt>
      <trkpt lat="43.8072" lon="4.03729">
        <ele>78.504178</ele>
        <time>2020-01-17T19:02:40.589Z</time>
      </trkpt>
      <trkpt lat="43.80719" lon="4.03722">
        <ele>78.50635</ele>
        <time>2020-01-17T19:02:42.085Z</time>
      </trkpt>
      <trkpt lat="43.80718" lon="4.03696">
        <ele>78.514051</ele>
        <time>2020-01-17T19:02:46.154Z</time>
      </trkpt>
      <trkpt lat="43.80712" lon="4.03641">
        <ele>78.699887</ele>
        <time>2020-01-17T19:02:57.326Z</time>
      </trkpt>
      <trkpt lat="43.80775" lon="4.03576">
        <ele>80.88432</ele>
        <time>2020-01-17T19:03:24.169Z</time>
      </trkpt>
      <trkpt lat="43.80785" lon="4.03565">
        <ele>81.222313</ele>
        <time>2020-01-17T19:03:29.069Z</time>
      </trkpt>
      <trkpt lat="43.80807" lon="4.03498">
        <ele>82.698707</ele>
        <time>2020-01-17T19:03:50.465Z</time>
      </trkpt>
      <trkpt lat="43.80817" lon="4.03448">
        <ele>83.889345</ele>
        <time>2020-01-17T19:04:06.368Z</time>
      </trkpt>
      <trkpt lat="43.80806" lon="4.03397">
        <ele>85.681006</ele>
        <time>2020-01-17T19:04:23.756Z</time>
      </trkpt>
      <trkpt lat="43.80816" lon="4.03361">
        <ele>86.952704</ele>
        <time>2020-01-17T19:04:36.631Z</time>
      </trkpt>
      <trkpt lat="43.80819" lon="4.03276">
        <ele>89.801571</ele>
        <time>2020-01-17T19:05:06.428Z</time>
      </trkpt>
      <trkpt lat="43.80831" lon="4.03209">
        <ele>92.099577</ele>
        <time>2020-01-17T19:05:31.018Z</time>
      </trkpt>
      <trkpt lat="43.80822" lon="4.03074">
        <ele>96.228539</ele>
        <time>2020-01-17T19:06:14.901Z</time>
      </trkpt>
      <trkpt lat="43.80826" lon="4.0305">
        <ele>96.970643</ele>
        <time>2020-01-17T19:06:22.996Z</time>
      </trkpt>
      <trkpt lat="43.80836" lon="4.03032">
        <ele>97.668143</ele>
        <time>2020-01-17T19:06:29.622Z</time>
      </trkpt>
      <trkpt lat="43.8084" lon="4.03028">
        <ele>97.893628</ele>
        <time>2020-01-17T19:06:32.448Z</time>
      </trkpt>
      <trkpt lat="43.80837" lon="4.03022">
        <ele>98.128575</ele>
        <time>2020-01-17T19:06:35.084Z</time>
      </trkpt>
      <trkpt lat="43.80804" lon="4.02971">
        <ele>99.89795</ele>
        <time>2020-01-17T19:07:03.025Z</time>
      </trkpt>
      <trkpt lat="43.80796" lon="4.0295">
        <ele>100.304025</ele>
        <time>2020-01-17T19:07:11.794Z</time>
      </trkpt>
      <trkpt lat="43.80796" lon="4.02936">
        <ele>100.550567</ele>
        <time>2020-01-17T19:07:16.659Z</time>
      </trkpt>
      <trkpt lat="43.80797" lon="4.02928">
        <ele>100.696947</ele>
        <time>2020-01-17T19:07:20.847Z</time>
      </trkpt>
      <trkpt lat="43.80809" lon="4.02888">
        <ele>101.451897</ele>
        <time>2020-01-17T19:07:36.123Z</time>
      </trkpt>
      <trkpt lat="43.80809" lon="4.02823">
        <ele>102.577423</ele>
        <time>2020-01-17T19:07:59.194Z</time>
      </trkpt>
      <trkpt lat="43.80833" lon="4.02738">
        <ele>103.742718</ele>
        <time>2020-01-17T19:08:29.032Z</time>
      </trkpt>
      <trkpt lat="43.80835" lon="4.02713">
        <ele>103.688612</ele>
        <time>2020-01-17T19:08:36.273Z</time>
      </trkpt>
      <trkpt lat="43.80829" lon="4.0266">
        <ele>103.57587</ele>
        <time>2020-01-17T19:08:50.567Z</time>
      </trkpt>
      <trkpt lat="43.80813" lon="4.02638">
        <ele>103.509148</ele>
        <time>2020-01-17T19:08:58.729Z</time>
      </trkpt>
      <trkpt lat="43.80789" lon="4.02627">
        <ele>103.436909</ele>
        <time>2020-01-17T19:09:07.360Z</time>
      </trkpt>
      <trkpt lat="43.80779" lon="4.02595">
        <ele>103.361969</ele>
        <time>2020-01-17T19:09:15.889Z</time>
      </trkpt>
      <trkpt lat="43.80727" lon="4.025">
        <ele>102.723697</ele>
        <time>2020-01-17T19:09:45.050Z</time>
      </trkpt>
      <trkpt lat="43.80692" lon="4.02476">
        <ele>102.320266</ele>
        <time>2020-01-17T19:09:58.103Z</time>
      </trkpt>
      <trkpt lat="43.80688" lon="4.02462">
        <ele>102.203775</ele>
        <time>2020-01-17T19:10:01.622Z</time>
      </trkpt>
      <trkpt lat="43.80691" lon="4.02443">
        <ele>102.050199</ele>
        <time>2020-01-17T19:10:07.023Z</time>
      </trkpt>
      <trkpt lat="43.80742" lon="4.0235">
        <ele>101.361289</ele>
        <time>2020-01-17T19:10:36.687Z</time>
      </trkpt>
      <trkpt lat="43.80745" lon="4.02267">
        <ele>101.307006</ele>
        <time>2020-01-17T19:10:58.865Z</time>
      </trkpt>
      <trkpt lat="43.80753" lon="4.02227">
        <ele>101.279742</ele>
        <time>2020-01-17T19:11:10.683Z</time>
      </trkpt>
      <trkpt lat="43.80778" lon="4.02173">
        <ele>101.238089</ele>
        <time>2020-01-17T19:11:28.007Z</time>
      </trkpt>
      <trkpt lat="43.80802" lon="4.02101">
        <ele>101.159746</ele>
        <time>2020-01-17T19:11:49.147Z</time>
      </trkpt>
      <trkpt lat="43.80822" lon="4.02074">
        <ele>101.112792</ele>
        <time>2020-01-17T19:11:59.304Z</time>
      </trkpt>
      <trkpt lat="43.80826" lon="4.02036">
        <ele>101.066361</ele>
        <time>2020-01-17T19:12:09.300Z</time>
      </trkpt>
      <trkpt lat="43.80833" lon="4.01997">
        <ele>101.01626</ele>
        <time>2020-01-17T19:12:20.015Z</time>
      </trkpt>
      <trkpt lat="43.80842" lon="4.01957">
        <ele>100.96626</ele>
        <time>2020-01-17T19:12:30.741Z</time>
      </trkpt>
      <trkpt lat="43.80812" lon="4.01903">
        <ele>101.083259</ele>
        <time>2020-01-17T19:12:48.868Z</time>
      </trkpt>
      <trkpt lat="43.8081" lon="4.0188">
        <ele>101.238527</ele>
        <time>2020-01-17T19:12:54.873Z</time>
      </trkpt>
      <trkpt lat="43.80827" lon="4.01848">
        <ele>101.507695</ele>
        <time>2020-01-17T19:13:05.615Z</time>
      </trkpt>
      <trkpt lat="43.80854" lon="4.01812">
        <ele>101.8674</ele>
        <time>2020-01-17T19:13:20.542Z</time>
      </trkpt>
      <trkpt lat="43.80865" lon="4.01768">
        <ele>102.190659</ele>
        <time>2020-01-17T19:13:35.043Z</time>
      </trkpt>
      <trkpt lat="43.80856" lon="4.01727">
        <ele>102.493398</ele>
        <time>2020-01-17T19:13:50.095Z</time>
      </trkpt>
      <trkpt lat="43.80827" lon="4.01675">
        <ele>103.715973</ele>
        <time>2020-01-17T19:14:13.613Z</time>
      </trkpt>
      <trkpt lat="43.80821" lon="4.01636">
        <ele>104.657609</ele>
        <time>2020-01-17T19:14:27.936Z</time>
      </trkpt>
      <trkpt lat="43.80824" lon="4.01608">
        <ele>105.348827</ele>
        <time>2020-01-17T19:14:38.109Z</time>
      </trkpt>
      <trkpt lat="43.80828" lon="4.01553">
        <ele>106.673154</ele>
        <time>2020-01-17T19:14:59.560Z</time>
      </trkpt>
      <trkpt lat="43.80838" lon="4.01539">
        <ele>107.132633</ele>
        <time>2020-01-17T19:15:07.582Z</time>
      </trkpt>
      <trkpt lat="43.80848" lon="4.01516">
        <ele>107.78362</ele>
        <time>2020-01-17T19:15:17.632Z</time>
      </trkpt>
      <trkpt lat="43.80852" lon="4.01487">
        <ele>108.496402</ele>
        <time>2020-01-17T19:15:30.877Z</time>
      </trkpt>
      <trkpt lat="43.80847" lon="4.01413">
        <ele>111.524572</ele>
        <time>2020-01-17T19:16:05.084Z</time>
      </trkpt>
      <trkpt lat="43.80849" lon="4.01382">
        <ele>112.842897</ele>
        <time>2020-01-17T19:16:20.219Z</time>
      </trkpt>
      <trkpt lat="43.80851" lon="4.01363">
        <ele>113.623455</ele>
        <time>2020-01-17T19:16:29.069Z</time>
      </trkpt>
      <trkpt lat="43.80862" lon="4.01329">
        <ele>115.232779</ele>
        <time>2020-01-17T19:16:47.636Z</time>
      </trkpt>
      <trkpt lat="43.80863" lon="4.01303">
        <ele>116.304533</ele>
        <time>2020-01-17T19:16:59.012Z</time>
      </trkpt>
      <trkpt lat="43.8086" lon="4.01276">
        <ele>117.480417</ele>
        <time>2020-01-17T19:17:13.513Z</time>
      </trkpt>
      <trkpt lat="43.80852" lon="4.01242">
        <ele>118.982757</ele>
        <time>2020-01-17T19:17:31.108Z</time>
      </trkpt>
      <trkpt lat="43.80853" lon="4.01226">
        <ele>119.752674</ele>
        <time>2020-01-17T19:17:39.484Z</time>
      </trkpt>
      <trkpt lat="43.80861" lon="4.01203">
        <ele>121.132017</ele>
        <time>2020-01-17T19:17:52.653Z</time>
      </trkpt>
      <trkpt lat="43.80888" lon="4.0115">
        <ele>124.571587</ele>
        <time>2020-01-17T19:18:28.162Z</time>
      </trkpt>
      <trkpt lat="43.80915" lon="4.01112">
        <ele>127.430688</ele>
        <time>2020-01-17T19:18:58.056Z</time>
      </trkpt>
      <trkpt lat="43.80955" lon="4.01067">
        <ele>131.207576</ele>
        <time>2020-01-17T19:19:34.248Z</time>
      </trkpt>
      <trkpt lat="43.80965" lon="4.01032">
        <ele>133.275709</ele>
        <time>2020-01-17T19:19:55.091Z</time>
      </trkpt>
      <trkpt lat="43.80987" lon="4.00985">
        <ele>136.47882</ele>
        <time>2020-01-17T19:20:26.806Z</time>
      </trkpt>
      <trkpt lat="43.81025" lon="4.00865">
        <ele>143.996477</ele>
        <time>2020-01-17T19:21:39.045Z</time>
      </trkpt>
      <trkpt lat="43.81026" lon="4.00858">
        <ele>144.441199</ele>
        <time>2020-01-17T19:21:44.626Z</time>
      </trkpt>
      <trkpt lat="43.81032" lon="4.00829">
        <ele>146.136857</ele>
        <time>2020-01-17T19:22:00.462Z</time>
      </trkpt>
      <trkpt lat="43.81103" lon="4.00604">
        <ele>161.271798</ele>
        <time>2020-01-17T19:24:19.908Z</time>
      </trkpt>
      <trkpt lat="43.81119" lon="4.00515">
        <ele>168.641871</ele>
        <time>2020-01-17T19:25:18.980Z</time>
      </trkpt>
      <trkpt lat="43.81142" lon="4.00489">
        <ele>172.073935</ele>
        <time>2020-01-17T19:25:45.571Z</time>
      </trkpt>
      <trkpt lat="43.81174" lon="4.00465">
        <ele>176.327285</ele>
        <time>2020-01-17T19:26:20.564Z</time>
      </trkpt>
      <trkpt lat="43.81181" lon="4.00461">
        <ele>177.191131</ele>
        <time>2020-01-17T19:26:29.625Z</time>
      </trkpt>
      <trkpt lat="43.8119" lon="4.00455">
        <ele>178.282323</ele>
        <time>2020-01-17T19:26:40.502Z</time>
      </trkpt>
      <trkpt lat="43.81229" lon="4.0044">
        <ele>183.075251</ele>
        <time>2020-01-17T19:27:20.042Z</time>
      </trkpt>
      <trkpt lat="43.81297" lon="4.0043">
        <ele>191.673392</ele>
        <time>2020-01-17T19:28:36.020Z</time>
      </trkpt>
      <trkpt lat="43.81351" lon="4.00425">
        <ele>198.671282</ele>
        <time>2020-01-17T19:29:33.921Z</time>
      </trkpt>
      <trkpt lat="43.81378" lon="4.00429">
        <ele>202.050452</ele>
        <time>2020-01-17T19:29:57.835Z</time>
      </trkpt>
      <trkpt lat="43.81399" lon="4.00433">
        <ele>204.736792</ele>
        <time>2020-01-17T19:30:18.069Z</time>
      </trkpt>
      <trkpt lat="43.81441" lon="4.00452">
        <ele>208.350485</ele>
        <time>2020-01-17T19:30:56.461Z</time>
      </trkpt>
      <trkpt lat="43.81539" lon="4.00509">
        <ele>216.085855</ele>
        <time>2020-01-17T19:32:19.162Z</time>
      </trkpt>
      <trkpt lat="43.81559" lon="4.00527">
        <ele>217.793605</ele>
        <time>2020-01-17T19:32:32.680Z</time>
      </trkpt>
      <trkpt lat="43.81571" lon="4.00546">
        <ele>218.717577</ele>
        <time>2020-01-17T19:32:41.056Z</time>
      </trkpt>
      <trkpt lat="43.81583" lon="4.00568">
        <ele>218.637525</ele>
        <time>2020-01-17T19:32:50.898Z</time>
      </trkpt>
      <trkpt lat="43.81594" lon="4.00585">
        <ele>218.573158</ele>
        <time>2020-01-17T19:32:56.910Z</time>
      </trkpt>
      <trkpt lat="43.81661" lon="4.00653">
        <ele>218.245148</ele>
        <time>2020-01-17T19:33:26.759Z</time>
      </trkpt>
      <trkpt lat="43.81719" lon="4.00728">
        <ele>217.403131</ele>
        <time>2020-01-17T19:33:51.298Z</time>
      </trkpt>
      <trkpt lat="43.81751" lon="4.00781">
        <ele>216.113229</ele>
        <time>2020-01-17T19:34:06.765Z</time>
      </trkpt>
      <trkpt lat="43.81767" lon="4.00801">
        <ele>215.569588</ele>
        <time>2020-01-17T19:34:13.275Z</time>
      </trkpt>
      <trkpt lat="43.81775" lon="4.00789">
        <ele>215.267563</ele>
        <time>2020-01-17T19:34:16.974Z</time>
      </trkpt>
      <trkpt lat="43.81796" lon="4.00787">
        <ele>214.718749</ele>
        <time>2020-01-17T19:34:23.676Z</time>
      </trkpt>
      <trkpt lat="43.81825" lon="4.00794">
        <ele>213.955283</ele>
        <time>2020-01-17T19:34:33.159Z</time>
      </trkpt>
      <trkpt lat="43.81885" lon="4.00825">
        <ele>212.875242</ele>
        <time>2020-01-17T19:34:54.442Z</time>
      </trkpt>
      <trkpt lat="43.81959" lon="4.00876">
        <ele>211.883208</ele>
        <time>2020-01-17T19:35:23.230Z</time>
      </trkpt>
      <trkpt lat="43.81973" lon="4.00894">
        <ele>211.653655</ele>
        <time>2020-01-17T19:35:29.881Z</time>
      </trkpt>
      <trkpt lat="43.8198" lon="4.00909">
        <ele>211.495829</ele>
        <time>2020-01-17T19:35:34.556Z</time>
      </trkpt>
      <trkpt lat="43.81991" lon="4.00917">
        <ele>211.341004</ele>
        <time>2020-01-17T19:35:38.938Z</time>
      </trkpt>
      <trkpt lat="43.82004" lon="4.00921">
        <ele>211.133698</ele>
        <time>2020-01-17T19:35:43.301Z</time>
      </trkpt>
      <trkpt lat="43.82022" lon="4.00909">
        <ele>210.458588</ele>
        <time>2020-01-17T19:35:50.019Z</time>
      </trkpt>
      <trkpt lat="43.82025" lon="4.00887">
        <ele>209.926392</ele>
        <time>2020-01-17T19:35:55.204Z</time>
      </trkpt>
      <trkpt lat="43.82032" lon="4.00873">
        <ele>209.503072</ele>
        <time>2020-01-17T19:35:59.318Z</time>
      </trkpt>
      <trkpt lat="43.82055" lon="4.00858">
        <ele>208.639855</ele>
        <time>2020-01-17T19:36:07.435Z</time>
      </trkpt>
      <trkpt lat="43.82066" lon="4.00844">
        <ele>208.116881</ele>
        <time>2020-01-17T19:36:12.265Z</time>
      </trkpt>
      <trkpt lat="43.82074" lon="4.00825">
        <ele>207.575756</ele>
        <time>2020-01-17T19:36:17.116Z</time>
      </trkpt>
      <trkpt lat="43.82076" lon="4.00795">
        <ele>206.846207</ele>
        <time>2020-01-17T19:36:23.620Z</time>
      </trkpt>
      <trkpt lat="43.82086" lon="4.0079">
        <ele>206.495704</ele>
        <time>2020-01-17T19:36:26.638Z</time>
      </trkpt>
      <trkpt lat="43.8214" lon="4.00796">
        <ele>204.052742</ele>
        <time>2020-01-17T19:36:42.070Z</time>
      </trkpt>
      <trkpt lat="43.8217" lon="4.00815">
        <ele>201.432389</ele>
        <time>2020-01-17T19:36:51.305Z</time>
      </trkpt>
      <trkpt lat="43.82289" lon="4.0079">
        <ele>192.016548</ele>
        <time>2020-01-17T19:37:23.219Z</time>
      </trkpt>
      <trkpt lat="43.82343" lon="4.00794">
        <ele>186.435244</ele>
        <time>2020-01-17T19:37:36.952Z</time>
      </trkpt>
      <trkpt lat="43.8237" lon="4.00808">
        <ele>183.119414</ele>
        <time>2020-01-17T19:37:44.510Z</time>
      </trkpt>
      <trkpt lat="43.824" lon="4.00805">
        <ele>179.80374</ele>
        <time>2020-01-17T19:37:52.083Z</time>
      </trkpt>
      <trkpt lat="43.82401" lon="4.00804">
        <ele>179.703011</ele>
        <time>2020-01-17T19:37:52.307Z</time>
      </trkpt>
      <trkpt lat="43.82408" lon="4.00798">
        <ele>178.776238</ele>
        <time>2020-01-17T19:37:54.398Z</time>
      </trkpt>
      <trkpt lat="43.82417" lon="4.00768">
        <ele>176.148088</ele>
        <time>2020-01-17T19:38:00.378Z</time>
      </trkpt>
      <trkpt lat="43.82433" lon="4.00743">
        <ele>173.489913</ele>
        <time>2020-01-17T19:38:06.305Z</time>
      </trkpt>
      <trkpt lat="43.82451" lon="4.00739">
        <ele>171.457388</ele>
        <time>2020-01-17T19:38:10.786Z</time>
      </trkpt>
      <trkpt lat="43.82466" lon="4.00722">
        <ele>169.044445</ele>
        <time>2020-01-17T19:38:15.587Z</time>
      </trkpt>
      <trkpt lat="43.82478" lon="4.0068">
        <ele>164.815314</ele>
        <time>2020-01-17T19:38:23.679Z</time>
      </trkpt>
      <trkpt lat="43.82486" lon="4.0067">
        <ele>163.38398</ele>
        <time>2020-01-17T19:38:26.421Z</time>
      </trkpt>
      <trkpt lat="43.82501" lon="4.0066">
        <ele>161.250765</ele>
        <time>2020-01-17T19:38:30.418Z</time>
      </trkpt>
      <trkpt lat="43.82534" lon="4.00652">
        <ele>156.90953</ele>
        <time>2020-01-17T19:38:38.689Z</time>
      </trkpt>
      <trkpt lat="43.82589" lon="4.00581">
        <ele>147.144774</ele>
        <time>2020-01-17T19:38:57.391Z</time>
      </trkpt>
      <trkpt lat="43.82634" lon="4.0058">
        <ele>142.018471</ele>
        <time>2020-01-17T19:39:08.425Z</time>
      </trkpt>
      <trkpt lat="43.82681" lon="4.00568">
        <ele>136.535811</ele>
        <time>2020-01-17T19:39:20.391Z</time>
      </trkpt>
      <trkpt lat="43.82729" lon="4.0053">
        <ele>130.081571</ele>
        <time>2020-01-17T19:39:34.466Z</time>
      </trkpt>
      <trkpt lat="43.82774" lon="4.00523">
        <ele>125.598846</ele>
        <time>2020-01-17T19:39:45.870Z</time>
      </trkpt>
      <trkpt lat="43.82831" lon="4.00503">
        <ele>120.974863</ele>
        <time>2020-01-17T19:40:01.749Z</time>
      </trkpt>
      <trkpt lat="43.82837" lon="4.00501">
        <ele>120.509985</ele>
        <time>2020-01-17T19:40:03.248Z</time>
      </trkpt>
      <trkpt lat="43.82837" lon="4.00489">
        <ele>119.831339</ele>
        <time>2020-01-17T19:40:05.591Z</time>
      </trkpt>
      <trkpt lat="43.82824" lon="4.0043">
        <ele>116.365039</ele>
        <time>2020-01-17T19:40:17.891Z</time>
      </trkpt>
      <trkpt lat="43.82817" lon="4.00347">
        <ele>112.300715</ele>
        <time>2020-01-17T19:40:34.538Z</time>
      </trkpt>
      <trkpt lat="43.82788" lon="4.00204">
        <ele>107.846051</ele>
        <time>2020-01-17T19:41:06.202Z</time>
      </trkpt>
      <trkpt lat="43.82789" lon="4.00191">
        <ele>107.428451</ele>
        <time>2020-01-17T19:41:09.284Z</time>
      </trkpt>
      <trkpt lat="43.82829" lon="4.00067">
        <ele>104.695959</ele>
        <time>2020-01-17T19:41:40.195Z</time>
      </trkpt>
      <trkpt lat="43.82848" lon="3.99961">
        <ele>103.467486</ele>
        <time>2020-01-17T19:42:06.753Z</time>
      </trkpt>
      <trkpt lat="43.82847" lon="3.99943">
        <ele>103.266211</ele>
        <time>2020-01-17T19:42:11.258Z</time>
      </trkpt>
      <trkpt lat="43.82843" lon="3.99929">
        <ele>103.093196</ele>
        <time>2020-01-17T19:42:15.140Z</time>
      </trkpt>
      <trkpt lat="43.82775" lon="3.99846">
        <ele>102.309068</ele>
        <time>2020-01-17T19:42:47.789Z</time>
      </trkpt>
      <trkpt lat="43.82767" lon="3.99827">
        <ele>102.216818</ele>
        <time>2020-01-17T19:42:53.469Z</time>
      </trkpt>
      <trkpt lat="43.82735" lon="3.99644">
        <ele>101.020026</ele>
        <time>2020-01-17T19:43:41.630Z</time>
      </trkpt>
      <trkpt lat="43.82736" lon="3.99562">
        <ele>100.033367</ele>
        <time>2020-01-17T19:44:01.460Z</time>
      </trkpt>
      <trkpt lat="43.82752" lon="3.99498">
        <ele>99.220273</ele>
        <time>2020-01-17T19:44:17.431Z</time>
      </trkpt>
      <trkpt lat="43.8278" lon="3.99448">
        <ele>98.417257</ele>
        <time>2020-01-17T19:44:31.928Z</time>
      </trkpt>
      <trkpt lat="43.82791" lon="3.99435">
        <ele>98.115245</ele>
        <time>2020-01-17T19:44:36.374Z</time>
      </trkpt>
      <trkpt lat="43.8283" lon="3.99412">
        <ele>97.192867</ele>
        <time>2020-01-17T19:44:49.758Z</time>
      </trkpt>
      <trkpt lat="43.82839" lon="3.99401">
        <ele>96.941806</ele>
        <time>2020-01-17T19:44:53.560Z</time>
      </trkpt>
      <trkpt lat="43.82862" lon="3.99329">
        <ele>95.726408</ele>
        <time>2020-01-17T19:45:11.523Z</time>
      </trkpt>
      <trkpt lat="43.82894" lon="3.99256">
        <ele>94.762045</ele>
        <time>2020-01-17T19:45:32.397Z</time>
      </trkpt>
      <trkpt lat="43.82901" lon="3.99249">
        <ele>94.749698</ele>
        <time>2020-01-17T19:45:35.079Z</time>
      </trkpt>
      <trkpt lat="43.82892" lon="3.9925">
        <ele>94.736576</ele>
        <time>2020-01-17T19:45:38.603Z</time>
      </trkpt>
      <trkpt lat="43.82884" lon="3.99245">
        <ele>94.724291</ele>
        <time>2020-01-17T19:45:41.697Z</time>
      </trkpt>
      <trkpt lat="43.82794" lon="3.99077">
        <ele>94.672763</ele>
        <time>2020-01-17T19:46:39.162Z</time>
      </trkpt>
      <trkpt lat="43.82735" lon="3.98987">
        <ele>95.484175</ele>
        <time>2020-01-17T19:47:17.417Z</time>
      </trkpt>
      <trkpt lat="43.8271" lon="3.98924">
        <ele>95.95699</ele>
        <time>2020-01-17T19:47:39.279Z</time>
      </trkpt>
      <trkpt lat="43.82644" lon="3.98826">
        <ele>96.680215</ele>
        <time>2020-01-17T19:48:19.102Z</time>
      </trkpt>
      <trkpt lat="43.82622" lon="3.98771">
        <ele>96.992261</ele>
        <time>2020-01-17T19:48:37.282Z</time>
      </trkpt>
      <trkpt lat="43.82582" lon="3.98714">
        <ele>97.385943</ele>
        <time>2020-01-17T19:48:59.828Z</time>
      </trkpt>
      <trkpt lat="43.82561" lon="3.98692">
        <ele>97.577763</ele>
        <time>2020-01-17T19:49:10.223Z</time>
      </trkpt>
      <trkpt lat="43.82554" lon="3.98685">
        <ele>97.640002</ele>
        <time>2020-01-17T19:49:13.561Z</time>
      </trkpt>
      <trkpt lat="43.82547" lon="3.98678">
        <ele>97.705238</ele>
        <time>2020-01-17T19:49:17.211Z</time>
      </trkpt>
      <trkpt lat="43.825" lon="3.98641">
        <ele>98.098796</ele>
        <time>2020-01-17T19:49:39.301Z</time>
      </trkpt>
      <trkpt lat="43.82444" lon="3.98558">
        <ele>98.696634</ele>
        <time>2020-01-17T19:50:12.945Z</time>
      </trkpt>
      <trkpt lat="43.82438" lon="3.98544">
        <ele>98.813058</ele>
        <time>2020-01-17T19:50:17.714Z</time>
      </trkpt>
      <trkpt lat="43.82434" lon="3.98533">
        <ele>98.921883</ele>
        <time>2020-01-17T19:50:21.730Z</time>
      </trkpt>
      <trkpt lat="43.82383" lon="3.98458">
        <ele>99.835972</ele>
        <time>2020-01-17T19:50:53.560Z</time>
      </trkpt>
      <trkpt lat="43.82366" lon="3.98407">
        <ele>100.32655</ele>
        <time>2020-01-17T19:51:11.268Z</time>
      </trkpt>
      <trkpt lat="43.8236" lon="3.98367">
        <ele>100.687647</ele>
        <time>2020-01-17T19:51:24.463Z</time>
      </trkpt>
      <trkpt lat="43.82351" lon="3.98348">
        <ele>100.891945</ele>
        <time>2020-01-17T19:51:31.915Z</time>
      </trkpt>
      <trkpt lat="43.82341" lon="3.98329">
        <ele>101.104061</ele>
        <time>2020-01-17T19:51:38.894Z</time>
      </trkpt>
      <trkpt lat="43.8233" lon="3.98308">
        <ele>101.347745</ele>
        <time>2020-01-17T19:51:47.411Z</time>
      </trkpt>
      <trkpt lat="43.82249" lon="3.98145">
        <ele>103.18116</ele>
        <time>2020-01-17T19:52:49.749Z</time>
      </trkpt>
      <trkpt lat="43.82179" lon="3.97939">
        <ele>104.69992</ele>
        <time>2020-01-17T19:53:58.094Z</time>
      </trkpt>
      <trkpt lat="43.82176" lon="3.97927">
        <ele>104.780259</ele>
        <time>2020-01-17T19:54:01.708Z</time>
      </trkpt>
      <trkpt lat="43.82194" lon="3.97863">
        <ele>105.268234</ele>
        <time>2020-01-17T19:54:22.049Z</time>
      </trkpt>
      <trkpt lat="43.82153" lon="3.97726">
        <ele>106.351179</ele>
        <time>2020-01-17T19:55:07.039Z</time>
      </trkpt>
      <trkpt lat="43.82133" lon="3.97636">
        <ele>107.187435</ele>
        <time>2020-01-17T19:55:36.505Z</time>
      </trkpt>
      <trkpt lat="43.82104" lon="3.97604">
        <ele>107.728719</ele>
        <time>2020-01-17T19:55:52.710Z</time>
      </trkpt>
      <trkpt lat="43.8209" lon="3.97578">
        <ele>108.079194</ele>
        <time>2020-01-17T19:56:03.331Z</time>
      </trkpt>
      <trkpt lat="43.81955" lon="3.97476">
        <ele>110.521081</ele>
        <time>2020-01-17T19:57:12.465Z</time>
      </trkpt>
      <trkpt lat="43.81953" lon="3.9746">
        <ele>110.719939</ele>
        <time>2020-01-17T19:57:17.600Z</time>
      </trkpt>
      <trkpt lat="43.81953" lon="3.97455">
        <ele>110.791703</ele>
        <time>2020-01-17T19:57:19.870Z</time>
      </trkpt>
      <trkpt lat="43.81955" lon="3.97427">
        <ele>111.135074</ele>
        <time>2020-01-17T19:57:28.478Z</time>
      </trkpt>
      <trkpt lat="43.81962" lon="3.97395">
        <ele>111.560938</ele>
        <time>2020-01-17T19:57:39.904Z</time>
      </trkpt>
      <trkpt lat="43.81964" lon="3.97373">
        <ele>111.831969</ele>
        <time>2020-01-17T19:57:46.528Z</time>
      </trkpt>
      <trkpt lat="43.81971" lon="3.9735">
        <ele>112.146924</ele>
        <time>2020-01-17T19:57:55.239Z</time>
      </trkpt>
      <trkpt lat="43.81987" lon="3.97296">
        <ele>113.099048</ele>
        <time>2020-01-17T19:58:14.746Z</time>
      </trkpt>
      <trkpt lat="43.82024" lon="3.9726">
        <ele>114.353223</ele>
        <time>2020-01-17T19:58:37.649Z</time>
      </trkpt>
      <trkpt lat="43.82031" lon="3.97246">
        <ele>114.698062</ele>
        <time>2020-01-17T19:58:44.455Z</time>
      </trkpt>
      <trkpt lat="43.82032" lon="3.97204">
        <ele>115.524818</ele>
        <time>2020-01-17T19:58:59.963Z</time>
      </trkpt>
      <trkpt lat="43.82041" lon="3.97187">
        <ele>115.930431</ele>
        <time>2020-01-17T19:59:07.887Z</time>
      </trkpt>
      <trkpt lat="43.82055" lon="3.97176">
        <ele>116.356762</ele>
        <time>2020-01-17T19:59:16.018Z</time>
      </trkpt>
      <trkpt lat="43.82073" lon="3.97155">
        <ele>117.014449</ele>
        <time>2020-01-17T19:59:28.617Z</time>
      </trkpt>
      <trkpt lat="43.82069" lon="3.97125">
        <ele>117.567203</ele>
        <time>2020-01-17T19:59:37.388Z</time>
      </trkpt>
      <trkpt lat="43.82057" lon="3.97059">
        <ele>118.598903</ele>
        <time>2020-01-17T19:59:56.070Z</time>
      </trkpt>
      <trkpt lat="43.81998" lon="3.96886">
        <ele>121.118281</ele>
        <time>2020-01-17T20:00:39.461Z</time>
      </trkpt>
      <trkpt lat="43.81997" lon="3.96837">
        <ele>120.864675</ele>
        <time>2020-01-17T20:00:47.618Z</time>
      </trkpt>
      <trkpt lat="43.82024" lon="3.96817">
        <ele>120.641336</ele>
        <time>2020-01-17T20:00:54.312Z</time>
      </trkpt>
      <trkpt lat="43.82061" lon="3.96755">
        <ele>120.224565</ele>
        <time>2020-01-17T20:01:06.033Z</time>
      </trkpt>
      <trkpt lat="43.82149" lon="3.96633">
        <ele>118.392471</ele>
        <time>2020-01-17T20:01:29.810Z</time>
      </trkpt>
      <trkpt lat="43.82182" lon="3.96595">
        <ele>117.601333</ele>
        <time>2020-01-17T20:01:38.123Z</time>
      </trkpt>
      <trkpt lat="43.8222" lon="3.96572">
        <ele>116.824429</ele>
        <time>2020-01-17T20:01:46.318Z</time>
      </trkpt>
      <trkpt lat="43.8226" lon="3.96563">
        <ele>116.090732</ele>
        <time>2020-01-17T20:01:54.221Z</time>
      </trkpt>
      <trkpt lat="43.82297" lon="3.96566">
        <ele>115.40382</ele>
        <time>2020-01-17T20:02:01.656Z</time>
      </trkpt>
      <trkpt lat="43.82344" lon="3.96555">
        <ele>114.549731</ele>
        <time>2020-01-17T20:02:10.900Z</time>
      </trkpt>
      <trkpt lat="43.82394" lon="3.96564">
        <ele>113.630952</ele>
        <time>2020-01-17T20:02:20.735Z</time>
      </trkpt>
      <trkpt lat="43.82517" lon="3.96534">
        <ele>110.813528</ele>
        <time>2020-01-17T20:02:44.203Z</time>
      </trkpt>
      <trkpt lat="43.82553" lon="3.9651">
        <ele>109.863898</ele>
        <time>2020-01-17T20:02:51.787Z</time>
      </trkpt>
      <trkpt lat="43.82626" lon="3.96436">
        <ele>107.749638</ele>
        <time>2020-01-17T20:03:08.638Z</time>
      </trkpt>
      <trkpt lat="43.82675" lon="3.96398">
        <ele>106.417737</ele>
        <time>2020-01-17T20:03:19.178Z</time>
      </trkpt>
      <trkpt lat="43.82695" lon="3.96404">
        <ele>105.943163</ele>
        <time>2020-01-17T20:03:22.998Z</time>
      </trkpt>
      <trkpt lat="43.82726" lon="3.96455">
        <ele>104.82066</ele>
        <time>2020-01-17T20:03:31.946Z</time>
      </trkpt>
      <trkpt lat="43.82784" lon="3.96449">
        <ele>103.599814</ele>
        <time>2020-01-17T20:03:43.410Z</time>
      </trkpt>
      <trkpt lat="43.82797" lon="3.96448">
        <ele>103.335812</ele>
        <time>2020-01-17T20:03:45.809Z</time>
      </trkpt>
      <trkpt lat="43.82804" lon="3.96448">
        <ele>103.190564</ele>
        <time>2020-01-17T20:03:47.243Z</time>
      </trkpt>
      <trkpt lat="43.8283" lon="3.96446">
        <ele>102.644979</ele>
        <time>2020-01-17T20:03:55.917Z</time>
      </trkpt>
      <trkpt lat="43.82915" lon="3.96437">
        <ele>100.910842</ele>
        <time>2020-01-17T20:04:23.357Z</time>
      </trkpt>
      <trkpt lat="43.82927" lon="3.96437">
        <ele>100.691086</ele>
        <time>2020-01-17T20:04:27.125Z</time>
      </trkpt>
      <trkpt lat="43.82935" lon="3.96435">
        <ele>100.55709</ele>
        <time>2020-01-17T20:04:29.293Z</time>
      </trkpt>
      <trkpt lat="43.82949" lon="3.96432">
        <ele>100.295015</ele>
        <time>2020-01-17T20:04:34.002Z</time>
      </trkpt>
      <trkpt lat="43.8297" lon="3.96427">
        <ele>99.901792</ele>
        <time>2020-01-17T20:04:40.742Z</time>
      </trkpt>
      <trkpt lat="43.82979" lon="3.96426">
        <ele>99.725484</ele>
        <time>2020-01-17T20:04:44.061Z</time>
      </trkpt>
      <trkpt lat="43.82993" lon="3.9642">
        <ele>99.454094</ele>
        <time>2020-01-17T20:04:49.011Z</time>
      </trkpt>
      <trkpt lat="43.83004" lon="3.96414">
        <ele>99.241252</ele>
        <time>2020-01-17T20:04:52.573Z</time>
      </trkpt>
      <trkpt lat="43.8307" lon="3.96348">
        <ele>97.826564</ele>
        <time>2020-01-17T20:05:19.666Z</time>
      </trkpt>
      <trkpt lat="43.83141" lon="3.96286">
        <ele>97.475519</ele>
        <time>2020-01-17T20:05:48.693Z</time>
      </trkpt>
      <trkpt lat="43.832" lon="3.96274">
        <ele>97.228928</ele>
        <time>2020-01-17T20:06:11.300Z</time>
      </trkpt>
      <trkpt lat="43.83211" lon="3.96267">
        <ele>97.180112</ele>
        <time>2020-01-17T20:06:15.976Z</time>
      </trkpt>
      <trkpt lat="43.83383" lon="3.96065">
        <ele>98.244472</ele>
        <time>2020-01-17T20:07:48.597Z</time>
      </trkpt>
      <trkpt lat="43.83395" lon="3.96032">
        <ele>98.147749</ele>
        <time>2020-01-17T20:07:58.331Z</time>
      </trkpt>
      <trkpt lat="43.8342" lon="3.95902">
        <ele>97.791733</ele>
        <time>2020-01-17T20:08:32.860Z</time>
      </trkpt>
      <trkpt lat="43.83419" lon="3.95804">
        <ele>97.387973</ele>
        <time>2020-01-17T20:08:56.983Z</time>
      </trkpt>
      <trkpt lat="43.83424" lon="3.95783">
        <ele>97.274065</ele>
        <time>2020-01-17T20:09:02.353Z</time>
      </trkpt>
      <trkpt lat="43.83449" lon="3.95743">
        <ele>97.002896</ele>
        <time>2020-01-17T20:09:15.566Z</time>
      </trkpt>
      <trkpt lat="43.83467" lon="3.95725">
        <ele>96.841099</ele>
        <time>2020-01-17T20:09:23.700Z</time>
      </trkpt>
      <trkpt lat="43.83479" lon="3.95726">
        <ele>96.7543</ele>
        <time>2020-01-17T20:09:27.895Z</time>
      </trkpt>
      <trkpt lat="43.83481" lon="3.95713">
        <ele>96.689091</ele>
        <time>2020-01-17T20:09:29.985Z</time>
      </trkpt>
      <trkpt lat="43.83481" lon="3.95682">
        <ele>96.527571</ele>
        <time>2020-01-17T20:09:35.001Z</time>
      </trkpt>
      <trkpt lat="43.83474" lon="3.95657">
        <ele>96.417098</ele>
        <time>2020-01-17T20:09:39.298Z</time>
      </trkpt>
      <trkpt lat="43.83458" lon="3.9564">
        <ele>96.542612</ele>
        <time>2020-01-17T20:09:43.974Z</time>
      </trkpt>
      <trkpt lat="43.83434" lon="3.95636">
        <ele>96.687129</ele>
        <time>2020-01-17T20:09:50.011Z</time>
      </trkpt>
      <trkpt lat="43.83387" lon="3.9557">
        <ele>97.09221</ele>
        <time>2020-01-17T20:10:07.221Z</time>
      </trkpt>
      <trkpt lat="43.8333" lon="3.95517">
        <ele>97.521469</ele>
        <time>2020-01-17T20:10:27.105Z</time>
      </trkpt>
      <trkpt lat="43.83256" lon="3.95504">
        <ele>98.38218</ele>
        <time>2020-01-17T20:10:48.853Z</time>
      </trkpt>
      <trkpt lat="43.83211" lon="3.9551">
        <ele>98.912936</ele>
        <time>2020-01-17T20:11:02.141Z</time>
      </trkpt>
      <trkpt lat="43.83145" lon="3.95502">
        <ele>99.677206</ele>
        <time>2020-01-17T20:11:21.002Z</time>
      </trkpt>
      <trkpt lat="43.83075" lon="3.95475">
        <ele>100.545727</ele>
        <time>2020-01-17T20:11:41.912Z</time>
      </trkpt>
      <trkpt lat="43.82933" lon="3.95386">
        <ele>102.695746</ele>
        <time>2020-01-17T20:12:27.347Z</time>
      </trkpt>
      <trkpt lat="43.82885" lon="3.95349">
        <ele>103.656348</ele>
        <time>2020-01-17T20:12:44.489Z</time>
      </trkpt>
      <trkpt lat="43.82723" lon="3.95205">
        <ele>108.532896</ele>
        <time>2020-01-17T20:13:52.080Z</time>
      </trkpt>
      <trkpt lat="43.82636" lon="3.95132">
        <ele>112.267544</ele>
        <time>2020-01-17T20:14:35.747Z</time>
      </trkpt>
      <trkpt lat="43.82639" lon="3.95114">
        <ele>112.89025</ele>
        <time>2020-01-17T20:14:43.070Z</time>
      </trkpt>
      <trkpt lat="43.82668" lon="3.95059">
        <ele>115.141996</ele>
        <time>2020-01-17T20:15:05.696Z</time>
      </trkpt>
      <trkpt lat="43.82683" lon="3.94994">
        <ele>117.41343</ele>
        <time>2020-01-17T20:15:29.585Z</time>
      </trkpt>
      <trkpt lat="43.82701" lon="3.94974">
        <ele>118.4612</ele>
        <time>2020-01-17T20:15:40.810Z</time>
      </trkpt>
      <trkpt lat="43.82726" lon="3.94967">
        <ele>119.235581</ele>
        <time>2020-01-17T20:15:53.400Z</time>
      </trkpt>
      <trkpt lat="43.82734" lon="3.94957">
        <ele>119.560604</ele>
        <time>2020-01-17T20:15:57.892Z</time>
      </trkpt>
      <trkpt lat="43.82745" lon="3.94915">
        <ele>120.539732</ele>
        <time>2020-01-17T20:16:10.934Z</time>
      </trkpt>
      <trkpt lat="43.82767" lon="3.94825">
        <ele>122.618719</ele>
        <time>2020-01-17T20:16:36.242Z</time>
      </trkpt>
      <trkpt lat="43.82785" lon="3.94859">
        <ele>123.549742</ele>
        <time>2020-01-17T20:16:50.692Z</time>
      </trkpt>
      <trkpt lat="43.82783" lon="3.94847">
        <ele>123.834154</ele>
        <time>2020-01-17T20:16:55.026Z</time>
      </trkpt>
      <trkpt lat="43.8279" lon="3.94818">
        <ele>123.997773</ele>
        <time>2020-01-17T20:17:04.595Z</time>
      </trkpt>
      <trkpt lat="43.82805" lon="3.948">
        <ele>124.096832</ele>
        <time>2020-01-17T20:17:13.300Z</time>
      </trkpt>
      <trkpt lat="43.82933" lon="3.94811">
        <ele>124.72789</ele>
        <time>2020-01-17T20:18:02.814Z</time>
      </trkpt>
      <trkpt lat="43.83243" lon="3.94752">
        <ele>121.370368</ele>
        <time>2020-01-17T20:19:51.453Z</time>
      </trkpt>
      <trkpt lat="43.83294" lon="3.94754">
        <ele>120.5122</ele>
        <time>2020-01-17T20:20:07.544Z</time>
      </trkpt>
      <trkpt lat="43.83389" lon="3.94757">
        <ele>116.964008</ele>
        <time>2020-01-17T20:20:36.109Z</time>
      </trkpt>
      <trkpt lat="43.83491" lon="3.9477">
        <ele>112.866</ele>
        <time>2020-01-17T20:21:06.183Z</time>
      </trkpt>
      <trkpt lat="43.83583" lon="3.94797">
        <ele>108.510827</ele>
        <time>2020-01-17T20:21:33.920Z</time>
      </trkpt>
      <trkpt lat="43.83593" lon="3.94805">
        <ele>107.96761</ele>
        <time>2020-01-17T20:21:37.148Z</time>
      </trkpt>
      <trkpt lat="43.83617" lon="3.94792">
        <ele>106.760962</ele>
        <time>2020-01-17T20:21:44.809Z</time>
      </trkpt>
      <trkpt lat="43.83671" lon="3.94783">
        <ele>104.465603</ele>
        <time>2020-01-17T20:22:00.415Z</time>
      </trkpt>
      <trkpt lat="43.83728" lon="3.94789">
        <ele>102.591993</ele>
        <time>2020-01-17T20:22:17.402Z</time>
      </trkpt>
      <trkpt lat="43.83731" lon="3.94793">
        <ele>102.456283</ele>
        <time>2020-01-17T20:22:18.459Z</time>
      </trkpt>
      <trkpt lat="43.83734" lon="3.9479">
        <ele>102.331819</ele>
        <time>2020-01-17T20:22:19.619Z</time>
      </trkpt>
      <trkpt lat="43.83736" lon="3.94786">
        <ele>102.222012</ele>
        <time>2020-01-17T20:22:20.639Z</time>
      </trkpt>
      <trkpt lat="43.8375" lon="3.94773">
        <ele>101.649414</ele>
        <time>2020-01-17T20:22:26.267Z</time>
      </trkpt>
      <trkpt lat="43.83753" lon="3.94771">
        <ele>101.53092</ele>
        <time>2020-01-17T20:22:27.352Z</time>
      </trkpt>
      <trkpt lat="43.83755" lon="3.94769">
        <ele>101.45255</ele>
        <time>2020-01-17T20:22:27.749Z</time>
      </trkpt>
      <trkpt lat="43.83901" lon="3.94707">
        <ele>98.176674</ele>
        <time>2020-01-17T20:22:56.543Z</time>
      </trkpt>
      <trkpt lat="43.83987" lon="3.94663">
        <ele>97.18324</ele>
        <time>2020-01-17T20:23:17.100Z</time>
      </trkpt>
      <trkpt lat="43.84047" lon="3.9464">
        <ele>97.492984</ele>
        <time>2020-01-17T20:23:31.600Z</time>
      </trkpt>
      <trkpt lat="43.84078" lon="3.9464">
        <ele>97.731412</ele>
        <time>2020-01-17T20:23:39.612Z</time>
      </trkpt>
      <trkpt lat="43.84108" lon="3.94647">
        <ele>97.960115</ele>
        <time>2020-01-17T20:23:48.259Z</time>
      </trkpt>
      <trkpt lat="43.84111" lon="3.94644">
        <ele>97.982745</ele>
        <time>2020-01-17T20:23:48.974Z</time>
      </trkpt>
      <trkpt lat="43.84141" lon="3.94619">
        <ele>98.249036</ele>
        <time>2020-01-17T20:23:59.036Z</time>
      </trkpt>
      <trkpt lat="43.84146" lon="3.94609">
        <ele>98.313373</ele>
        <time>2020-01-17T20:24:01.400Z</time>
      </trkpt>
      <trkpt lat="43.84166" lon="3.94566">
        <ele>98.922967</ele>
        <time>2020-01-17T20:24:12.948Z</time>
      </trkpt>
      <trkpt lat="43.84171" lon="3.94554">
        <ele>99.166075</ele>
        <time>2020-01-17T20:24:16.752Z</time>
      </trkpt>
      <trkpt lat="43.84187" lon="3.94527">
        <ele>99.783405</ele>
        <time>2020-01-17T20:24:24.132Z</time>
      </trkpt>
      <trkpt lat="43.84196" lon="3.94508">
        <ele>100.168321</ele>
        <time>2020-01-17T20:24:29.699Z</time>
      </trkpt>
      <trkpt lat="43.84198" lon="3.94504">
        <ele>100.259277</ele>
        <time>2020-01-17T20:24:31.145Z</time>
      </trkpt>
      <trkpt lat="43.84222" lon="3.94445">
        <ele>101.440332</ele>
        <time>2020-01-17T20:24:47.408Z</time>
      </trkpt>
      <trkpt lat="43.84225" lon="3.94439">
        <ele>101.575748</ele>
        <time>2020-01-17T20:24:49.712Z</time>
      </trkpt>
      <trkpt lat="43.84234" lon="3.94442">
        <ele>101.790774</ele>
        <time>2020-01-17T20:24:53.241Z</time>
      </trkpt>
      <trkpt lat="43.84266" lon="3.94458">
        <ele>102.616124</ele>
        <time>2020-01-17T20:25:06.163Z</time>
      </trkpt>
      <trkpt lat="43.84315" lon="3.94493">
        <ele>104.278015</ele>
        <time>2020-01-17T20:25:27.325Z</time>
      </trkpt>
      <trkpt lat="43.84322" lon="3.94498">
        <ele>104.49548</ele>
        <time>2020-01-17T20:25:30.500Z</time>
      </trkpt>
      <trkpt lat="43.84345" lon="3.94514">
        <ele>105.309243</ele>
        <time>2020-01-17T20:25:41.053Z</time>
      </trkpt>
      <trkpt lat="43.84368" lon="3.94528">
        <ele>106.075824</ele>
        <time>2020-01-17T20:25:52.259Z</time>
      </trkpt>
      <trkpt lat="43.84385" lon="3.94527">
        <ele>106.61795</ele>
        <time>2020-01-17T20:25:57.479Z</time>
      </trkpt>
      <trkpt lat="43.84395" lon="3.94527">
        <ele>106.909069</ele>
        <time>2020-01-17T20:26:01.130Z</time>
      </trkpt>
      <trkpt lat="43.844" lon="3.94528">
        <ele>107.092128</ele>
        <time>2020-01-17T20:26:03.959Z</time>
      </trkpt>
      <trkpt lat="43.84426" lon="3.94528">
        <ele>107.894232</ele>
        <time>2020-01-17T20:26:12.207Z</time>
      </trkpt>
      <trkpt lat="43.84454" lon="3.94528">
        <ele>108.511839</ele>
        <time>2020-01-17T20:26:21.369Z</time>
      </trkpt>
      <trkpt lat="43.84455" lon="3.94514">
        <ele>108.62982</ele>
        <time>2020-01-17T20:26:25.521Z</time>
      </trkpt>
      <trkpt lat="43.84455" lon="3.94511">
        <ele>108.652109</ele>
        <time>2020-01-17T20:26:26.133Z</time>
      </trkpt>
      <trkpt lat="43.84461" lon="3.94498">
        <ele>108.776586</ele>
        <time>2020-01-17T20:26:30.481Z</time>
      </trkpt>
      <trkpt lat="43.84463" lon="3.94501">
        <ele>108.815327</ele>
        <time>2020-01-17T20:26:31.145Z</time>
      </trkpt>
      <trkpt lat="43.84516" lon="3.94521">
        <ele>109.443614</ele>
        <time>2020-01-17T20:26:47.567Z</time>
      </trkpt>
      <trkpt lat="43.8453" lon="3.94525">
        <ele>109.605591</ele>
        <time>2020-01-17T20:26:52.287Z</time>
      </trkpt>
      <trkpt lat="43.8454" lon="3.94528">
        <ele>109.7145</ele>
        <time>2020-01-17T20:26:54.365Z</time>
      </trkpt>
      <trkpt lat="43.84544" lon="3.94519">
        <ele>109.799432</ele>
        <time>2020-01-17T20:26:56.382Z</time>
      </trkpt>
      <trkpt lat="43.84558" lon="3.94504">
        <ele>109.999388</ele>
        <time>2020-01-17T20:27:00.911Z</time>
      </trkpt>
      <trkpt lat="43.84567" lon="3.94499">
        <ele>110.11314</ele>
        <time>2020-01-17T20:27:02.991Z</time>
      </trkpt>
      <trkpt lat="43.8457" lon="3.94497">
        <ele>110.15761</ele>
        <time>2020-01-17T20:27:03.944Z</time>
      </trkpt>
      <trkpt lat="43.84579" lon="3.94495">
        <ele>110.253532</ele>
        <time>2020-01-17T20:27:06.117Z</time>
      </trkpt>
      <trkpt lat="43.84608" lon="3.94492">
        <ele>110.372294</ele>
        <time>2020-01-17T20:27:12.208Z</time>
      </trkpt>
      <trkpt lat="43.84648" lon="3.94485">
        <ele>110.237559</ele>
        <time>2020-01-17T20:27:20.378Z</time>
      </trkpt>
      <trkpt lat="43.84696" lon="3.94448">
        <ele>110.056166</ele>
        <time>2020-01-17T20:27:31.744Z</time>
      </trkpt>
      <trkpt lat="43.84743" lon="3.94429">
        <ele>109.893767</ele>
        <time>2020-01-17T20:27:42.181Z</time>
      </trkpt>
      <trkpt lat="43.8475" lon="3.9443">
        <ele>109.868876</ele>
        <time>2020-01-17T20:27:43.714Z</time>
      </trkpt>
      <trkpt lat="43.84754" lon="3.9443">
        <ele>109.856502</ele>
        <time>2020-01-17T20:27:44.639Z</time>
      </trkpt>
      <trkpt lat="43.84916" lon="3.94461">
        <ele>109.996436</ele>
        <time>2020-01-17T20:28:24.790Z</time>
      </trkpt>
      <trkpt lat="43.84932" lon="3.9446">
        <ele>110.014402</ele>
        <time>2020-01-17T20:28:28.288Z</time>
      </trkpt>
      <trkpt lat="43.84947" lon="3.94456">
        <ele>110.002324</ele>
        <time>2020-01-17T20:28:32.236Z</time>
      </trkpt>
      <trkpt lat="43.8497" lon="3.94446">
        <ele>109.883957</ele>
        <time>2020-01-17T20:28:41.063Z</time>
      </trkpt>
      <trkpt lat="43.84988" lon="3.9444">
        <ele>109.798261</ele>
        <time>2020-01-17T20:28:47.688Z</time>
      </trkpt>
      <trkpt lat="43.85045" lon="3.94448">
        <ele>109.52467</ele>
        <time>2020-01-17T20:29:08.270Z</time>
      </trkpt>
      <trkpt lat="43.85065" lon="3.94448">
        <ele>109.427896</ele>
        <time>2020-01-17T20:29:15.396Z</time>
      </trkpt>
      <trkpt lat="43.85069" lon="3.94448">
        <ele>109.412161</ele>
        <time>2020-01-17T20:29:16.528Z</time>
      </trkpt>
      <trkpt lat="43.85072" lon="3.94448">
        <ele>109.395472</ele>
        <time>2020-01-17T20:29:17.738Z</time>
      </trkpt>
      <trkpt lat="43.85106" lon="3.9445">
        <ele>109.231906</ele>
        <time>2020-01-17T20:29:29.813Z</time>
      </trkpt>
      <trkpt lat="43.85196" lon="3.94459">
        <ele>108.743906</ele>
        <time>2020-01-17T20:30:01.160Z</time>
      </trkpt>
      <trkpt lat="43.85266" lon="3.94456">
        <ele>108.357477</ele>
        <time>2020-01-17T20:30:25.978Z</time>
      </trkpt>
      <trkpt lat="43.85336" lon="3.94463">
        <ele>108.337591</ele>
        <time>2020-01-17T20:30:51.935Z</time>
      </trkpt>
      <trkpt lat="43.85364" lon="3.94455">
        <ele>108.458966</ele>
        <time>2020-01-17T20:31:02.602Z</time>
      </trkpt>
      <trkpt lat="43.85368" lon="3.94455">
        <ele>108.476505</ele>
        <time>2020-01-17T20:31:04.130Z</time>
      </trkpt>
      <trkpt lat="43.85371" lon="3.94454">
        <ele>108.492795</ele>
        <time>2020-01-17T20:31:05.539Z</time>
      </trkpt>
      <trkpt lat="43.854" lon="3.94441">
        <ele>108.623626</ele>
        <time>2020-01-17T20:31:17.336Z</time>
      </trkpt>
      <trkpt lat="43.85514" lon="3.94383">
        <ele>109.32471</ele>
        <time>2020-01-17T20:32:07.235Z</time>
      </trkpt>
      <trkpt lat="43.85563" lon="3.94344">
        <ele>109.787466</ele>
        <time>2020-01-17T20:32:31.468Z</time>
      </trkpt>
      <trkpt lat="43.85653" lon="3.94318">
        <ele>110.415619</ele>
        <time>2020-01-17T20:33:08.755Z</time>
      </trkpt>
      <trkpt lat="43.85709" lon="3.94311">
        <ele>110.350095</ele>
        <time>2020-01-17T20:33:29.756Z</time>
      </trkpt>
      <trkpt lat="43.85722" lon="3.943">
        <ele>110.331739</ele>
        <time>2020-01-17T20:33:35.637Z</time>
      </trkpt>
      <trkpt lat="43.85724" lon="3.94298">
        <ele>110.329075</ele>
        <time>2020-01-17T20:33:36.541Z</time>
      </trkpt>
      <trkpt lat="43.85727" lon="3.94295">
        <ele>110.325343</ele>
        <time>2020-01-17T20:33:37.700Z</time>
      </trkpt>
      <trkpt lat="43.85734" lon="3.94288">
        <ele>110.314159</ele>
        <time>2020-01-17T20:33:41.029Z</time>
      </trkpt>
      <trkpt lat="43.85801" lon="3.94274">
        <ele>110.235156</ele>
        <time>2020-01-17T20:34:05.234Z</time>
      </trkpt>
      <trkpt lat="43.85874" lon="3.94246">
        <ele>109.696517</ele>
        <time>2020-01-17T20:34:31.951Z</time>
      </trkpt>
      <trkpt lat="43.85898" lon="3.94226">
        <ele>109.468028</ele>
        <time>2020-01-17T20:34:41.471Z</time>
      </trkpt>
      <trkpt lat="43.86019" lon="3.94239">
        <ele>108.577005</ele>
        <time>2020-01-17T20:35:23.644Z</time>
      </trkpt>
      <trkpt lat="43.86032" lon="3.94244">
        <ele>108.516522</ele>
        <time>2020-01-17T20:35:28.093Z</time>
      </trkpt>
      <trkpt lat="43.86024" lon="3.94296">
        <ele>108.337502</ele>
        <time>2020-01-17T20:35:36.499Z</time>
      </trkpt>
      <trkpt lat="43.86014" lon="3.94317">
        <ele>108.254696</ele>
        <time>2020-01-17T20:35:40.657Z</time>
      </trkpt>
      <trkpt lat="43.85997" lon="3.94352">
        <ele>108.114804</ele>
        <time>2020-01-17T20:35:47.480Z</time>
      </trkpt>
      <trkpt lat="43.85994" lon="3.94363">
        <ele>108.075152</ele>
        <time>2020-01-17T20:35:49.312Z</time>
      </trkpt>
      <trkpt lat="43.86" lon="3.94382">
        <ele>108.005565</ele>
        <time>2020-01-17T20:35:52.573Z</time>
      </trkpt>
      <trkpt lat="43.86004" lon="3.94383">
        <ele>107.986049</ele>
        <time>2020-01-17T20:35:53.948Z</time>
      </trkpt>
      <trkpt lat="43.86042" lon="3.94369">
        <ele>107.954262</ele>
        <time>2020-01-17T20:36:02.963Z</time>
      </trkpt>
      <trkpt lat="43.86062" lon="3.94365">
        <ele>108.00988</ele>
        <time>2020-01-17T20:36:07.540Z</time>
      </trkpt>
      <trkpt lat="43.86073" lon="3.9437">
        <ele>108.041949</ele>
        <time>2020-01-17T20:36:10.514Z</time>
      </trkpt>
      <trkpt lat="43.86081" lon="3.94388">
        <ele>108.085839</ele>
        <time>2020-01-17T20:36:14.482Z</time>
      </trkpt>
      <trkpt lat="43.86164" lon="3.94435">
        <ele>108.335392</ele>
        <time>2020-01-17T20:36:37.675Z</time>
      </trkpt>
      <trkpt lat="43.86266" lon="3.94518">
        <ele>108.061525</ele>
        <time>2020-01-17T20:37:04.960Z</time>
      </trkpt>
      <trkpt lat="43.86277" lon="3.9453">
        <ele>108.014281</ele>
        <time>2020-01-17T20:37:07.859Z</time>
      </trkpt>
      <trkpt lat="43.86241" lon="3.94605">
        <ele>107.784339</ele>
        <time>2020-01-17T20:37:30.646Z</time>
      </trkpt>
      <trkpt lat="43.86223" lon="3.94657">
        <ele>107.43885</ele>
        <time>2020-01-17T20:37:45.314Z</time>
      </trkpt>
      <trkpt lat="43.86202" lon="3.9474">
        <ele>106.867632</ele>
        <time>2020-01-17T20:38:07.012Z</time>
      </trkpt>
      <trkpt lat="43.8618" lon="3.94805">
        <ele>106.398518</ele>
        <time>2020-01-17T20:38:24.970Z</time>
      </trkpt>
      <trkpt lat="43.86241" lon="3.94799">
        <ele>105.949209</ele>
        <time>2020-01-17T20:38:37.297Z</time>
      </trkpt>
      <trkpt lat="43.86259" lon="3.94892">
        <ele>105.539485</ele>
        <time>2020-01-17T20:39:02.072Z</time>
      </trkpt>
      <trkpt lat="43.86288" lon="3.95125">
        <ele>104.718661</ele>
        <time>2020-01-17T20:40:03.280Z</time>
      </trkpt>
      <trkpt lat="43.86293" lon="3.95279">
        <ele>104.296188</ele>
        <time>2020-01-17T20:40:43.351Z</time>
      </trkpt>
      <trkpt lat="43.86312" lon="3.95406">
        <ele>103.977164</ele>
        <time>2020-01-17T20:41:17.281Z</time>
      </trkpt>
      <trkpt lat="43.86299" lon="3.95545">
        <ele>103.612377</ele>
        <time>2020-01-17T20:41:54.056Z</time>
      </trkpt>
      <trkpt lat="43.86327" lon="3.95767">
        <ele>102.889112</ele>
        <time>2020-01-17T20:42:52.574Z</time>
      </trkpt>
      <trkpt lat="43.86327" lon="3.95768">
        <ele>102.883223</ele>
        <time>2020-01-17T20:42:52.794Z</time>
      </trkpt>
      <trkpt lat="43.86327" lon="3.95937">
        <ele>101.924856</ele>
        <time>2020-01-17T20:43:35.600Z</time>
      </trkpt>
      <trkpt lat="43.86323" lon="3.96023">
        <ele>101.250587</ele>
        <time>2020-01-17T20:43:57.073Z</time>
      </trkpt>
      <trkpt lat="43.86313" lon="3.96077">
        <ele>100.650144</ele>
        <time>2020-01-17T20:44:10.600Z</time>
      </trkpt>
      <trkpt lat="43.86311" lon="3.9616">
        <ele>99.737748</ele>
        <time>2020-01-17T20:44:30.798Z</time>
      </trkpt>
      <trkpt lat="43.86314" lon="3.96192">
        <ele>99.383371</ele>
        <time>2020-01-17T20:44:38.417Z</time>
      </trkpt>
      <trkpt lat="43.86312" lon="3.96224">
        <ele>99.026706</ele>
        <time>2020-01-17T20:44:42.783Z</time>
      </trkpt>
      <trkpt lat="43.86311" lon="3.96244">
        <ele>98.771199</ele>
        <time>2020-01-17T20:44:45.407Z</time>
      </trkpt>
      <trkpt lat="43.86318" lon="3.96264">
        <ele>98.429603</ele>
        <time>2020-01-17T20:44:48.389Z</time>
      </trkpt>
      <trkpt lat="43.86312" lon="3.963">
        <ele>97.871091</ele>
        <time>2020-01-17T20:44:53.183Z</time>
      </trkpt>
      <trkpt lat="43.86304" lon="3.96324">
        <ele>97.459987</ele>
        <time>2020-01-17T20:44:56.706Z</time>
      </trkpt>
      <trkpt lat="43.86283" lon="3.9636">
        <ele>96.751454</ele>
        <time>2020-01-17T20:45:02.742Z</time>
      </trkpt>
      <trkpt lat="43.86289" lon="3.96405">
        <ele>96.043014</ele>
        <time>2020-01-17T20:45:13.468Z</time>
      </trkpt>
      <trkpt lat="43.86303" lon="3.96518">
        <ele>94.472799</ele>
        <time>2020-01-17T20:45:40.148Z</time>
      </trkpt>
      <trkpt lat="43.86304" lon="3.96599">
        <ele>93.52549</ele>
        <time>2020-01-17T20:45:59.366Z</time>
      </trkpt>
      <trkpt lat="43.86295" lon="3.96682">
        <ele>92.553186</ele>
        <time>2020-01-17T20:46:19.728Z</time>
      </trkpt>
      <trkpt lat="43.86296" lon="3.96737">
        <ele>92.073717</ele>
        <time>2020-01-17T20:46:33.434Z</time>
      </trkpt>
      <trkpt lat="43.86277" lon="3.96797">
        <ele>91.809613</ele>
        <time>2020-01-17T20:46:50.013Z</time>
      </trkpt>
      <trkpt lat="43.86232" lon="3.97029">
        <ele>90.964143</ele>
        <time>2020-01-17T20:47:52.750Z</time>
      </trkpt>
      <trkpt lat="43.86213" lon="3.97168">
        <ele>90.610191</ele>
        <time>2020-01-17T20:48:29.612Z</time>
      </trkpt>
      <trkpt lat="43.86206" lon="3.97219">
        <ele>90.488017</ele>
        <time>2020-01-17T20:48:43.197Z</time>
      </trkpt>
      <trkpt lat="43.86205" lon="3.97227">
        <ele>90.470555</ele>
        <time>2020-01-17T20:48:45.376Z</time>
      </trkpt>
      <trkpt lat="43.86198" lon="3.97272">
        <ele>90.373527</ele>
        <time>2020-01-17T20:48:57.318Z</time>
      </trkpt>
      <trkpt lat="43.86179" lon="3.97401">
        <ele>90.09674</ele>
        <time>2020-01-17T20:49:31.801Z</time>
      </trkpt>
      <trkpt lat="43.862" lon="3.97473">
        <ele>89.747515</ele>
        <time>2020-01-17T20:49:52.435Z</time>
      </trkpt>
      <trkpt lat="43.86208" lon="3.9753">
        <ele>89.331999</ele>
        <time>2020-01-17T20:50:07.297Z</time>
      </trkpt>
      <trkpt lat="43.8623" lon="3.97617">
        <ele>88.671761</ele>
        <time>2020-01-17T20:50:30.243Z</time>
      </trkpt>
      <trkpt lat="43.86232" lon="3.97635">
        <ele>88.545355</ele>
        <time>2020-01-17T20:50:34.547Z</time>
      </trkpt>
      <trkpt lat="43.86232" lon="3.97635">
        <ele>88.545355</ele>
        <time>2020-01-17T20:50:34.558Z</time>
      </trkpt>
      <trkpt lat="43.86232" lon="3.97635">
        <ele>88.545355</ele>
        <time>2020-01-17T20:50:34.634Z</time>
      </trkpt>
      <trkpt lat="43.86244" lon="3.97715">
        <ele>87.579501</ele>
        <time>2020-01-17T20:50:54.162Z</time>
      </trkpt>
      <trkpt lat="43.86244" lon="3.97762">
        <ele>86.761234</ele>
        <time>2020-01-17T20:51:05.034Z</time>
      </trkpt>
      <trkpt lat="43.86218" lon="3.97998">
        <ele>82.68535</ele>
        <time>2020-01-17T20:51:59.197Z</time>
      </trkpt>
      <trkpt lat="43.86224" lon="3.98077">
        <ele>81.407841</ele>
        <time>2020-01-17T20:52:17.788Z</time>
      </trkpt>
      <trkpt lat="43.86203" lon="3.98243">
        <ele>79.423173</ele>
        <time>2020-01-17T20:52:57.954Z</time>
      </trkpt>
      <trkpt lat="43.862" lon="3.98269">
        <ele>79.253235</ele>
        <time>2020-01-17T20:53:04.513Z</time>
      </trkpt>
      <trkpt lat="43.86192" lon="3.98288">
        <ele>79.12125</ele>
        <time>2020-01-17T20:53:09.885Z</time>
      </trkpt>
      <trkpt lat="43.86126" lon="3.98377">
        <ele>78.317842</ele>
        <time>2020-01-17T20:53:42.556Z</time>
      </trkpt>
      <trkpt lat="43.86115" lon="3.98403">
        <ele>78.49302</ele>
        <time>2020-01-17T20:53:50.941Z</time>
      </trkpt>
      <trkpt lat="43.86117" lon="3.98421">
        <ele>78.617562</ele>
        <time>2020-01-17T20:53:55.849Z</time>
      </trkpt>
      <trkpt lat="43.86135" lon="3.98459">
        <ele>78.927327</ele>
        <time>2020-01-17T20:54:09.259Z</time>
      </trkpt>
      <trkpt lat="43.86174" lon="3.98522">
        <ele>79.492711</ele>
        <time>2020-01-17T20:54:35.084Z</time>
      </trkpt>
      <trkpt lat="43.86191" lon="3.98572">
        <ele>79.868422</ele>
        <time>2020-01-17T20:54:53.076Z</time>
      </trkpt>
      <trkpt lat="43.86211" lon="3.98655">
        <ele>80.519346</ele>
        <time>2020-01-17T20:55:22.073Z</time>
      </trkpt>
      <trkpt lat="43.86216" lon="3.98705">
        <ele>80.901311</ele>
        <time>2020-01-17T20:55:38.719Z</time>
      </trkpt>
      <trkpt lat="43.86226" lon="3.98753">
        <ele>81.285439</ele>
        <time>2020-01-17T20:55:55.390Z</time>
      </trkpt>
      <trkpt lat="43.86304" lon="3.98938">
        <ele>80.92191</ele>
        <time>2020-01-17T20:56:51.461Z</time>
      </trkpt>
      <trkpt lat="43.86309" lon="3.98955">
        <ele>80.79254</ele>
        <time>2020-01-17T20:56:55.549Z</time>
      </trkpt>
      <trkpt lat="43.86294" lon="3.98968">
        <ele>80.615094</ele>
        <time>2020-01-17T20:56:59.371Z</time>
      </trkpt>
      <trkpt lat="43.86295" lon="3.9898">
        <ele>80.530354</ele>
        <time>2020-01-17T20:57:00.793Z</time>
      </trkpt>
      <trkpt lat="43.86323" lon="3.99038">
        <ele>79.971663</ele>
        <time>2020-01-17T20:57:10.586Z</time>
      </trkpt>
      <trkpt lat="43.86326" lon="3.99089">
        <ele>79.255307</ele>
        <time>2020-01-17T20:57:17.706Z</time>
      </trkpt>
      <trkpt lat="43.86324" lon="3.99124">
        <ele>78.780917</ele>
        <time>2020-01-17T20:57:22.261Z</time>
      </trkpt>
      <trkpt lat="43.86289" lon="3.99357">
        <ele>76.399001</ele>
        <time>2020-01-17T20:57:55.997Z</time>
      </trkpt>
      <trkpt lat="43.86276" lon="3.99394">
        <ele>76.281893</ele>
        <time>2020-01-17T20:58:02.602Z</time>
      </trkpt>
      <trkpt lat="43.86273" lon="3.99415">
        <ele>76.223514</ele>
        <time>2020-01-17T20:58:05.646Z</time>
      </trkpt>
      <trkpt lat="43.86293" lon="3.99546">
        <ele>76.347075</ele>
        <time>2020-01-17T20:58:31.823Z</time>
      </trkpt>
      <trkpt lat="43.86294" lon="3.99559">
        <ele>76.527767</ele>
        <time>2020-01-17T20:58:33.940Z</time>
      </trkpt>
      <trkpt lat="43.86304" lon="3.99568">
        <ele>76.760132</ele>
        <time>2020-01-17T20:58:40.408Z</time>
      </trkpt>
      <trkpt lat="43.8632" lon="3.99588">
        <ele>77.174771</ele>
        <time>2020-01-17T20:58:49.463Z</time>
      </trkpt>
      <trkpt lat="43.86417" lon="3.9963">
        <ele>79.138187</ele>
        <time>2020-01-17T20:59:39.706Z</time>
      </trkpt>
      <trkpt lat="43.86462" lon="3.99666">
        <ele>80.118085</ele>
        <time>2020-01-17T21:00:05.230Z</time>
      </trkpt>
      <trkpt lat="43.86525" lon="3.99743">
        <ele>81.730089</ele>
        <time>2020-01-17T21:00:43.877Z</time>
      </trkpt>
      <trkpt lat="43.86611" lon="3.99864">
        <ele>83.934464</ele>
        <time>2020-01-17T21:01:39.409Z</time>
      </trkpt>
      <trkpt lat="43.86638" lon="3.99813">
        <ele>84.709175</ele>
        <time>2020-01-17T21:01:59.723Z</time>
      </trkpt>
      <trkpt lat="43.86638" lon="3.99813">
        <ele>84.709175</ele>
        <time>2020-01-17T21:01:59.863Z</time>
      </trkpt>
      <trkpt lat="43.86656" lon="3.99731">
        <ele>85.76424</ele>
        <time>2020-01-17T21:02:27.703Z</time>
      </trkpt>
      <trkpt lat="43.8669" lon="3.99589">
        <ele>87.824562</ele>
        <time>2020-01-17T21:03:19.538Z</time>
      </trkpt>
      <trkpt lat="43.86753" lon="3.99379">
        <ele>89.947383</ele>
        <time>2020-01-17T21:04:34.768Z</time>
      </trkpt>
      <trkpt lat="43.86776" lon="3.99333">
        <ele>90.229015</ele>
        <time>2020-01-17T21:04:51.010Z</time>
      </trkpt>
      <trkpt lat="43.86845" lon="3.99124">
        <ele>89.354902</ele>
        <time>2020-01-17T21:05:26.200Z</time>
      </trkpt>
      <trkpt lat="43.86928" lon="3.98946">
        <ele>87.758819</ele>
        <time>2020-01-17T21:05:56.191Z</time>
      </trkpt>
      <trkpt lat="43.86997" lon="3.98726">
        <ele>87.350078</ele>
        <time>2020-01-17T21:06:34.825Z</time>
      </trkpt>
      <trkpt lat="43.87001" lon="3.9871">
        <ele>87.436009</ele>
        <time>2020-01-17T21:06:38.051Z</time>
      </trkpt>
      <trkpt lat="43.87002" lon="3.98701">
        <ele>87.483979</ele>
        <time>2020-01-17T21:06:40.341Z</time>
      </trkpt>
      <trkpt lat="43.87053" lon="3.98584">
        <ele>88.25872</ele>
        <time>2020-01-17T21:07:10.229Z</time>
      </trkpt>
      <trkpt lat="43.87098" lon="3.98479">
        <ele>89.473676</ele>
        <time>2020-01-17T21:07:38.567Z</time>
      </trkpt>
      <trkpt lat="43.87106" lon="3.98465">
        <ele>89.65911</ele>
        <time>2020-01-17T21:07:42.732Z</time>
      </trkpt>
      <trkpt lat="43.87165" lon="3.98415">
        <ele>90.560594</ele>
        <time>2020-01-17T21:08:02.111Z</time>
      </trkpt>
      <trkpt lat="43.87224" lon="3.98432">
        <ele>90.62756</ele>
        <time>2020-01-17T21:08:25.248Z</time>
      </trkpt>
      <trkpt lat="43.87251" lon="3.98436">
        <ele>90.658524</ele>
        <time>2020-01-17T21:08:35.558Z</time>
      </trkpt>
      <trkpt lat="43.87296" lon="3.98443">
        <ele>90.709795</ele>
        <time>2020-01-17T21:08:52.058Z</time>
      </trkpt>
      <trkpt lat="43.87334" lon="3.98442">
        <ele>90.752527</ele>
        <time>2020-01-17T21:09:05.646Z</time>
      </trkpt>
      <trkpt lat="43.87389" lon="3.98441">
        <ele>91.068722</ele>
        <time>2020-01-17T21:09:25.732Z</time>
      </trkpt>
      <trkpt lat="43.87406" lon="3.98449">
        <ele>91.185483</ele>
        <time>2020-01-17T21:09:32.881Z</time>
      </trkpt>
      <trkpt lat="43.87451" lon="3.98488">
        <ele>91.514192</ele>
        <time>2020-01-17T21:09:55.125Z</time>
      </trkpt>
      <trkpt lat="43.87512" lon="3.98518">
        <ele>91.943951</ele>
        <time>2020-01-17T21:10:22.567Z</time>
      </trkpt>
      <trkpt lat="43.87514" lon="3.98524">
        <ele>91.98633</ele>
        <time>2020-01-17T21:10:24.883Z</time>
      </trkpt>
      <trkpt lat="43.87537" lon="3.98521">
        <ele>92.194805</ele>
        <time>2020-01-17T21:10:30.636Z</time>
      </trkpt>
      <trkpt lat="43.87548" lon="3.98533">
        <ele>92.325455</ele>
        <time>2020-01-17T21:10:34.666Z</time>
      </trkpt>
      <trkpt lat="43.8759" lon="3.9857">
        <ele>92.788606</ele>
        <time>2020-01-17T21:10:48.252Z</time>
      </trkpt>
      <trkpt lat="43.87607" lon="3.98581">
        <ele>92.962016</ele>
        <time>2020-01-17T21:10:53.102Z</time>
      </trkpt>
      <trkpt lat="43.87641" lon="3.98599">
        <ele>93.300702</ele>
        <time>2020-01-17T21:11:03.111Z</time>
      </trkpt>
      <trkpt lat="43.87665" lon="3.9861">
        <ele>93.541623</ele>
        <time>2020-01-17T21:11:10.160Z</time>
      </trkpt>
      <trkpt lat="43.87675" lon="3.98616">
        <ele>93.616516</ele>
        <time>2020-01-17T21:11:12.876Z</time>
      </trkpt>
      <trkpt lat="43.87724" lon="3.98643">
        <ele>93.956302</ele>
        <time>2020-01-17T21:11:26.048Z</time>
      </trkpt>
      <trkpt lat="43.87815" lon="3.98679">
        <ele>94.572204</ele>
        <time>2020-01-17T21:11:49.873Z</time>
      </trkpt>
      <trkpt lat="43.87832" lon="3.98685">
        <ele>94.684544</ele>
        <time>2020-01-17T21:11:54.303Z</time>
      </trkpt>
      <trkpt lat="43.87842" lon="3.98686">
        <ele>94.74428</ele>
        <time>2020-01-17T21:11:57.260Z</time>
      </trkpt>
      <trkpt lat="43.8801" lon="3.98653">
        <ele>95.60994</ele>
        <time>2020-01-17T21:12:39.848Z</time>
      </trkpt>
      <trkpt lat="43.88132" lon="3.98688">
        <ele>95.515298</ele>
        <time>2020-01-17T21:13:07.031Z</time>
      </trkpt>
      <trkpt lat="43.88232" lon="3.9875">
        <ele>95.534986</ele>
        <time>2020-01-17T21:13:30.661Z</time>
      </trkpt>
      <trkpt lat="43.88321" lon="3.98777">
        <ele>95.703599</ele>
        <time>2020-01-17T21:13:51.136Z</time>
      </trkpt>
      <trkpt lat="43.88625" lon="3.98848">
        <ele>98.334236</ele>
        <time>2020-01-17T21:15:12.172Z</time>
      </trkpt>
      <trkpt lat="43.8867" lon="3.98873">
        <ele>98.968109</ele>
        <time>2020-01-17T21:15:26.481Z</time>
      </trkpt>
      <trkpt lat="43.88681" lon="3.9888">
        <ele>99.120978</ele>
        <time>2020-01-17T21:15:30.205Z</time>
      </trkpt>
      <trkpt lat="43.88682" lon="3.98874">
        <ele>99.176636</ele>
        <time>2020-01-17T21:15:32.080Z</time>
      </trkpt>
      <trkpt lat="43.8868" lon="3.98865">
        <ele>99.272059</ele>
        <time>2020-01-17T21:15:35.263Z</time>
      </trkpt>
      <trkpt lat="43.88679" lon="3.98856">
        <ele>99.35438</ele>
        <time>2020-01-17T21:15:38.052Z</time>
      </trkpt>
      <trkpt lat="43.8872" lon="3.98864">
        <ele>100.182551</ele>
        <time>2020-01-17T21:15:58.019Z</time>
      </trkpt>
      <trkpt lat="43.88814" lon="3.98892">
        <ele>102.443237</ele>
        <time>2020-01-17T21:16:45.278Z</time>
      </trkpt>
      <trkpt lat="43.88851" lon="3.98893">
        <ele>103.326717</ele>
        <time>2020-01-17T21:17:04.077Z</time>
      </trkpt>
      <trkpt lat="43.88857" lon="3.98892">
        <ele>103.47138</ele>
        <time>2020-01-17T21:17:07.304Z</time>
      </trkpt>
      <trkpt lat="43.88857" lon="3.98892">
        <ele>103.47138</ele>
        <time>2020-01-17T21:17:07.409Z</time>
      </trkpt>
      <trkpt lat="43.88866" lon="3.98889">
        <ele>103.698324</ele>
        <time>2020-01-17T21:17:12.303Z</time>
      </trkpt>
      <trkpt lat="43.88904" lon="3.98903">
        <ele>104.23444</ele>
        <time>2020-01-17T21:17:30.620Z</time>
      </trkpt>
      <trkpt lat="43.88979" lon="3.98947">
        <ele>105.256829</ele>
        <time>2020-01-17T21:18:08.153Z</time>
      </trkpt>
      <trkpt lat="43.88984" lon="3.98948">
        <ele>105.312918</ele>
        <time>2020-01-17T21:18:10.117Z</time>
      </trkpt>
      <trkpt lat="43.88991" lon="3.9895">
        <ele>105.40814</ele>
        <time>2020-01-17T21:18:13.553Z</time>
      </trkpt>
      <trkpt lat="43.89037" lon="3.98969">
        <ele>106.005776</ele>
        <time>2020-01-17T21:18:25.458Z</time>
      </trkpt>
      <trkpt lat="43.89047" lon="3.98973">
        <ele>105.954374</ele>
        <time>2020-01-17T21:18:27.227Z</time>
      </trkpt>
      <trkpt lat="43.89109" lon="3.98997">
        <ele>105.020043</ele>
        <time>2020-01-17T21:18:41.149Z</time>
      </trkpt>
      <trkpt lat="43.89142" lon="3.99008">
        <ele>104.532457</ele>
        <time>2020-01-17T21:18:48.132Z</time>
      </trkpt>
      <trkpt lat="43.89148" lon="3.9901">
        <ele>104.445881</ele>
        <time>2020-01-17T21:18:49.151Z</time>
      </trkpt>
      <trkpt lat="43.89179" lon="3.99028">
        <ele>103.961515</ele>
        <time>2020-01-17T21:18:55.638Z</time>
      </trkpt>
      <trkpt lat="43.89186" lon="3.99031">
        <ele>103.84639</ele>
        <time>2020-01-17T21:18:57.015Z</time>
      </trkpt>
      <trkpt lat="43.89177" lon="3.99038">
        <ele>103.691186</ele>
        <time>2020-01-17T21:18:59.084Z</time>
      </trkpt>
      <trkpt lat="43.89145" lon="3.99064">
        <ele>102.879382</ele>
        <time>2020-01-17T21:19:05.607Z</time>
      </trkpt>
      <trkpt lat="43.89144" lon="3.99064">
        <ele>102.860553</ele>
        <time>2020-01-17T21:19:05.737Z</time>
      </trkpt>
      <trkpt lat="43.89145" lon="3.99064">
        <ele>102.841723</ele>
        <time>2020-01-17T21:19:05.860Z</time>
      </trkpt>
      <trkpt lat="43.89177" lon="3.99038">
        <ele>101.800321</ele>
        <time>2020-01-17T21:19:12.245Z</time>
      </trkpt>
      <trkpt lat="43.89186" lon="3.99031">
        <ele>101.49605</ele>
        <time>2020-01-17T21:19:14.189Z</time>
      </trkpt>
      <trkpt lat="43.89193" lon="3.99031">
        <ele>101.297658</ele>
        <time>2020-01-17T21:19:15.282Z</time>
      </trkpt>
      <trkpt lat="43.89203" lon="3.99031">
        <ele>101.017424</ele>
        <time>2020-01-17T21:19:17.000Z</time>
      </trkpt>
      <trkpt lat="43.8921" lon="3.99034">
        <ele>100.807958</ele>
        <time>2020-01-17T21:19:18.334Z</time>
      </trkpt>
      <trkpt lat="43.89221" lon="3.99039">
        <ele>100.484466</ele>
        <time>2020-01-17T21:19:20.277Z</time>
      </trkpt>
      <trkpt lat="43.89352" lon="3.99076">
        <ele>97.140246</ele>
        <time>2020-01-17T21:19:43.494Z</time>
      </trkpt>
      <trkpt lat="43.89362" lon="3.99079">
        <ele>96.931533</ele>
        <time>2020-01-17T21:19:45.174Z</time>
      </trkpt>
      <trkpt lat="43.89366" lon="3.9908">
        <ele>96.842376</ele>
        <time>2020-01-17T21:19:45.982Z</time>
      </trkpt>
      <trkpt lat="43.89391" lon="3.99087">
        <ele>96.316806</ele>
        <time>2020-01-17T21:19:50.642Z</time>
      </trkpt>
      <trkpt lat="43.89469" lon="3.99101">
        <ele>94.662011</ele>
        <time>2020-01-17T21:20:05.572Z</time>
      </trkpt>
      <trkpt lat="43.89475" lon="3.99103">
        <ele>94.579236</ele>
        <time>2020-01-17T21:20:06.806Z</time>
      </trkpt>
      <trkpt lat="43.89565" lon="3.99123">
        <ele>93.716069</ele>
        <time>2020-01-17T21:20:25.462Z</time>
      </trkpt>
      <trkpt lat="43.89668" lon="3.99132">
        <ele>92.576825</ele>
        <time>2020-01-17T21:20:46.132Z</time>
      </trkpt>
      <trkpt lat="43.89716" lon="3.99129">
        <ele>91.677586</ele>
        <time>2020-01-17T21:20:55.062Z</time>
      </trkpt>
      <trkpt lat="43.89742" lon="3.9913">
        <ele>91.190138</ele>
        <time>2020-01-17T21:20:59.777Z</time>
      </trkpt>
      <trkpt lat="43.89803" lon="3.99163">
        <ele>89.974165</ele>
        <time>2020-01-17T21:21:11.595Z</time>
      </trkpt>
      <trkpt lat="43.89812" lon="3.99169">
        <ele>89.783226</ele>
        <time>2020-01-17T21:21:13.456Z</time>
      </trkpt>
      <trkpt lat="43.89863" lon="3.992">
        <ele>89.123718</ele>
        <time>2020-01-17T21:21:23.664Z</time>
      </trkpt>
      <trkpt lat="43.89957" lon="3.99247">
        <ele>88.140375</ele>
        <time>2020-01-17T21:21:43.434Z</time>
      </trkpt>
      <trkpt lat="43.90023" lon="3.99271">
        <ele>87.763426</ele>
        <time>2020-01-17T21:21:59.065Z</time>
      </trkpt>
      <trkpt lat="43.90031" lon="3.99271">
        <ele>87.76192</ele>
        <time>2020-01-17T21:22:01.076Z</time>
      </trkpt>
      <trkpt lat="43.90057" lon="3.99271">
        <ele>87.756775</ele>
        <time>2020-01-17T21:22:07.149Z</time>
      </trkpt>
      <trkpt lat="43.90069" lon="3.99278">
        <ele>87.754318</ele>
        <time>2020-01-17T21:22:10.289Z</time>
      </trkpt>
      <trkpt lat="43.90074" lon="3.99287">
        <ele>87.752773</ele>
        <time>2020-01-17T21:22:12.166Z</time>
      </trkpt>
      <trkpt lat="43.9008" lon="3.99293">
        <ele>87.751247</ele>
        <time>2020-01-17T21:22:13.877Z</time>
      </trkpt>
      <trkpt lat="43.90086" lon="3.99296">
        <ele>87.749925</ele>
        <time>2020-01-17T21:22:15.330Z</time>
      </trkpt>
      <trkpt lat="43.90093" lon="3.99296">
        <ele>87.748612</ele>
        <time>2020-01-17T21:22:16.782Z</time>
      </trkpt>
      <trkpt lat="43.901" lon="3.99294">
        <ele>87.747293</ele>
        <time>2020-01-17T21:22:18.454Z</time>
      </trkpt>
      <trkpt lat="43.90105" lon="3.99291">
        <ele>87.746204</ele>
        <time>2020-01-17T21:22:19.697Z</time>
      </trkpt>
      <trkpt lat="43.90109" lon="3.99286">
        <ele>87.745094</ele>
        <time>2020-01-17T21:22:20.940Z</time>
      </trkpt>
      <trkpt lat="43.90127" lon="3.99291">
        <ele>87.741519</ele>
        <time>2020-01-17T21:22:24.769Z</time>
      </trkpt>
      <trkpt lat="43.90142" lon="3.99304">
        <ele>87.738064</ele>
        <time>2020-01-17T21:22:28.801Z</time>
      </trkpt>
      <trkpt lat="43.9015" lon="3.99316">
        <ele>87.735754</ele>
        <time>2020-01-17T21:22:31.231Z</time>
      </trkpt>
      <trkpt lat="43.90152" lon="3.99322">
        <ele>87.734915</ele>
        <time>2020-01-17T21:22:32.098Z</time>
      </trkpt>
      <trkpt lat="43.90159" lon="3.99328">
        <ele>87.73439</ele>
        <time>2020-01-17T21:22:34.242Z</time>
      </trkpt>
      <trkpt lat="43.90201" lon="3.99343">
        <ele>87.73428</ele>
        <time>2020-01-17T21:22:43.359Z</time>
      </trkpt>
      <trkpt lat="43.9022" lon="3.99346">
        <ele>87.73423</ele>
        <time>2020-01-17T21:22:47.327Z</time>
      </trkpt>
      <trkpt lat="43.90228" lon="3.99352">
        <ele>87.734207</ele>
        <time>2020-01-17T21:22:49.240Z</time>
      </trkpt>
      <trkpt lat="43.90238" lon="3.99364">
        <ele>87.734173</ele>
        <time>2020-01-17T21:22:52.262Z</time>
      </trkpt>
      <trkpt lat="43.90246" lon="3.99374">
        <ele>87.734145</ele>
        <time>2020-01-17T21:22:54.520Z</time>
      </trkpt>
      <trkpt lat="43.90247" lon="3.99375">
        <ele>87.734142</ele>
        <time>2020-01-17T21:22:54.775Z</time>
      </trkpt>
      <trkpt lat="43.90302" lon="3.99299">
        <ele>87.733703</ele>
        <time>2020-01-17T21:23:14.242Z</time>
      </trkpt>
      <trkpt lat="43.90368" lon="3.99206">
        <ele>87.710799</ele>
        <time>2020-01-17T21:23:38.681Z</time>
      </trkpt>
      <trkpt lat="43.9038" lon="3.99188">
        <ele>87.706559</ele>
        <time>2020-01-17T21:23:42.904Z</time>
      </trkpt>
      <trkpt lat="43.90379" lon="3.99173">
        <ele>87.703922</ele>
        <time>2020-01-17T21:23:45.744Z</time>
      </trkpt>
      <trkpt lat="43.90447" lon="3.99144">
        <ele>87.395519</ele>
        <time>2020-01-17T21:24:00.990Z</time>
      </trkpt>
      <trkpt lat="43.90467" lon="3.99136">
        <ele>86.983889</ele>
        <time>2020-01-17T21:24:05.194Z</time>
      </trkpt>
      <trkpt lat="43.9053" lon="3.99175">
        <ele>85.623446</ele>
        <time>2020-01-17T21:24:18.634Z</time>
      </trkpt>
      <trkpt lat="43.90547" lon="3.99118">
        <ele>84.747434</ele>
        <time>2020-01-17T21:24:32.681Z</time>
      </trkpt>
      <trkpt lat="43.90547" lon="3.99116">
        <ele>84.725362</ele>
        <time>2020-01-17T21:24:33.066Z</time>
      </trkpt>
      <trkpt lat="43.9055" lon="3.99108">
        <ele>84.598635</ele>
        <time>2020-01-17T21:24:34.980Z</time>
      </trkpt>
      <trkpt lat="43.90581" lon="3.99091">
        <ele>83.889418</ele>
        <time>2020-01-17T21:24:45.458Z</time>
      </trkpt>
      <trkpt lat="43.90604" lon="3.99087">
        <ele>83.338625</ele>
        <time>2020-01-17T21:24:52.811Z</time>
      </trkpt>
      <trkpt lat="43.90611" lon="3.9908">
        <ele>83.125541</ele>
        <time>2020-01-17T21:24:55.688Z</time>
      </trkpt>
      <trkpt lat="43.90641" lon="3.99005">
        <ele>81.652522</ele>
        <time>2020-01-17T21:25:15.527Z</time>
      </trkpt>
      <trkpt lat="43.90668" lon="3.98972">
        <ele>80.806847</ele>
        <time>2020-01-17T21:25:26.737Z</time>
      </trkpt>
      <trkpt lat="43.90777" lon="3.98945">
        <ele>78.43316</ele>
        <time>2020-01-17T21:26:02.457Z</time>
      </trkpt>
      <trkpt lat="43.90786" lon="3.98941">
        <ele>78.236566</ele>
        <time>2020-01-17T21:26:05.584Z</time>
      </trkpt>
      <trkpt lat="43.9079" lon="3.98961">
        <ele>77.929143</ele>
        <time>2020-01-17T21:26:10.495Z</time>
      </trkpt>
      <trkpt lat="43.90829" lon="3.98977">
        <ele>77.11382</ele>
        <time>2020-01-17T21:26:23.837Z</time>
      </trkpt>
      <trkpt lat="43.90852" lon="3.9898">
        <ele>76.655636</ele>
        <time>2020-01-17T21:26:31.432Z</time>
      </trkpt>
      <trkpt lat="43.9086" lon="3.9899">
        <ele>76.438413</ele>
        <time>2020-01-17T21:26:34.910Z</time>
      </trkpt>
      <trkpt lat="43.90864" lon="3.99018">
        <ele>76.151922</ele>
        <time>2020-01-17T21:26:49.471Z</time>
      </trkpt>
      <trkpt lat="43.90869" lon="3.99082">
        <ele>75.756898</ele>
        <time>2020-01-17T21:27:04.863Z</time>
      </trkpt>
      <trkpt lat="43.9096" lon="3.99161">
        <ele>74.835608</ele>
        <time>2020-01-17T21:27:42.939Z</time>
      </trkpt>
      <trkpt lat="43.90978" lon="3.99182">
        <ele>74.717246</ele>
        <time>2020-01-17T21:27:51.508Z</time>
      </trkpt>
      <trkpt lat="43.9098" lon="3.99188">
        <ele>74.721546</ele>
        <time>2020-01-17T21:27:53.295Z</time>
      </trkpt>
      <trkpt lat="43.91001" lon="3.99234">
        <ele>74.757481</ele>
        <time>2020-01-17T21:28:08.109Z</time>
      </trkpt>
      <trkpt lat="43.91048" lon="3.99269">
        <ele>74.805616</ele>
        <time>2020-01-17T21:28:28.033Z</time>
      </trkpt>
      <trkpt lat="43.9111" lon="3.99287">
        <ele>74.863034</ele>
        <time>2020-01-17T21:28:52.280Z</time>
      </trkpt>
      <trkpt lat="43.9113" lon="3.99286">
        <ele>74.892551</ele>
        <time>2020-01-17T21:29:00.149Z</time>
      </trkpt>
      <trkpt lat="43.91195" lon="3.99246">
        <ele>75.037024</ele>
        <time>2020-01-17T21:29:27.206Z</time>
      </trkpt>
      <trkpt lat="43.91258" lon="3.99239">
        <ele>75.166134</ele>
        <time>2020-01-17T21:29:51.146Z</time>
      </trkpt>
      <trkpt lat="43.91267" lon="3.99255">
        <ele>75.197274</ele>
        <time>2020-01-17T21:29:54.927Z</time>
      </trkpt>
      <trkpt lat="43.91276" lon="3.99298">
        <ele>75.250134</ele>
        <time>2020-01-17T21:30:02.590Z</time>
      </trkpt>
      <trkpt lat="43.91277" lon="3.99301">
        <ele>75.252515</ele>
        <time>2020-01-17T21:30:03.238Z</time>
      </trkpt>
      <trkpt lat="43.91279" lon="3.99313">
        <ele>75.260525</ele>
        <time>2020-01-17T21:30:05.291Z</time>
      </trkpt>
      <trkpt lat="43.91288" lon="3.9935">
        <ele>75.286952</ele>
        <time>2020-01-17T21:30:11.880Z</time>
      </trkpt>
      <trkpt lat="43.91289" lon="3.99369">
        <ele>75.299668</ele>
        <time>2020-01-17T21:30:14.958Z</time>
      </trkpt>
      <trkpt lat="43.91277" lon="3.99429">
        <ele>75.340784</ele>
        <time>2020-01-17T21:30:24.727Z</time>
      </trkpt>
      <trkpt lat="43.91271" lon="3.99455">
        <ele>75.359374</ele>
        <time>2020-01-17T21:30:29.048Z</time>
      </trkpt>
      <trkpt lat="43.91189" lon="3.99517">
        <ele>75.717338</ele>
        <time>2020-01-17T21:30:51.194Z</time>
      </trkpt>
      <trkpt lat="43.91183" lon="3.99524">
        <ele>75.772505</ele>
        <time>2020-01-17T21:30:52.935Z</time>
      </trkpt>
      <trkpt lat="43.91171" lon="3.9952">
        <ele>75.862211</ele>
        <time>2020-01-17T21:30:55.958Z</time>
      </trkpt>
      <trkpt lat="43.91166" lon="3.99521">
        <ele>75.897445</ele>
        <time>2020-01-17T21:30:57.343Z</time>
      </trkpt>
      <trkpt lat="43.91156" lon="3.9952">
        <ele>75.97519</ele>
        <time>2020-01-17T21:30:59.920Z</time>
      </trkpt>
      <trkpt lat="43.91147" lon="3.99521">
        <ele>76.040462</ele>
        <time>2020-01-17T21:31:02.045Z</time>
      </trkpt>
      <trkpt lat="43.91138" lon="3.9952">
        <ele>76.102079</ele>
        <time>2020-01-17T21:31:04.041Z</time>
      </trkpt>
      <trkpt lat="43.9113" lon="3.99524">
        <ele>76.165302</ele>
        <time>2020-01-17T21:31:06.774Z</time>
      </trkpt>
      <trkpt lat="43.91081" lon="3.9956">
        <ele>76.574193</ele>
        <time>2020-01-17T21:31:21.865Z</time>
      </trkpt>
      <trkpt lat="43.91018" lon="3.99622">
        <ele>77.352744</ele>
        <time>2020-01-17T21:31:42.973Z</time>
      </trkpt>
      <trkpt lat="43.91006" lon="3.99634">
        <ele>77.523541</ele>
        <time>2020-01-17T21:31:47.668Z</time>
      </trkpt>
      <trkpt lat="43.91001" lon="3.99639">
        <ele>77.594044</ele>
        <time>2020-01-17T21:31:50.108Z</time>
      </trkpt>
      <trkpt lat="43.91006" lon="3.99643">
        <ele>77.653928</ele>
        <time>2020-01-17T21:31:51.259Z</time>
      </trkpt>
      <trkpt lat="43.91035" lon="3.99722">
        <ele>78.369657</ele>
        <time>2020-01-17T21:32:08.907Z</time>
      </trkpt>
      <trkpt lat="43.91065" lon="3.99717">
        <ele>78.705853</ele>
        <time>2020-01-17T21:32:16.702Z</time>
      </trkpt>
      <trkpt lat="43.91081" lon="3.99747">
        <ele>79.042697</ele>
        <time>2020-01-17T21:32:24.407Z</time>
      </trkpt>
      <trkpt lat="43.91068" lon="3.99761">
        <ele>79.248712</ele>
        <time>2020-01-17T21:32:29.519Z</time>
      </trkpt>
      <trkpt lat="43.91053" lon="3.99776">
        <ele>79.485728</ele>
        <time>2020-01-17T21:32:34.329Z</time>
      </trkpt>
      <trkpt lat="43.91044" lon="3.99793">
        <ele>79.67834</ele>
        <time>2020-01-17T21:32:38.289Z</time>
      </trkpt>
      <trkpt lat="43.9109" lon="3.99758">
        <ele>80.342133</ele>
        <time>2020-01-17T21:32:52.681Z</time>
      </trkpt>
      <trkpt lat="43.91107" lon="3.99746">
        <ele>80.594201</ele>
        <time>2020-01-17T21:32:58.381Z</time>
      </trkpt>
      <trkpt lat="43.91128" lon="3.99791">
        <ele>81.106416</ele>
        <time>2020-01-17T21:33:10.324Z</time>
      </trkpt>
      <trkpt lat="43.9114" lon="3.99803">
        <ele>81.406166</ele>
        <time>2020-01-17T21:33:15.335Z</time>
      </trkpt>
      <trkpt lat="43.91169" lon="3.99801">
        <ele>81.976275</ele>
        <time>2020-01-17T21:33:24.756Z</time>
      </trkpt>
      <trkpt lat="43.91184" lon="3.99812">
        <ele>82.317631</ele>
        <time>2020-01-17T21:33:30.828Z</time>
      </trkpt>
      <trkpt lat="43.91198" lon="3.99816">
        <ele>82.606454</ele>
        <time>2020-01-17T21:33:35.415Z</time>
      </trkpt>
      <trkpt lat="43.91231" lon="3.99814">
        <ele>83.257214</ele>
        <time>2020-01-17T21:33:46.612Z</time>
      </trkpt>
      <trkpt lat="43.91254" lon="3.99815">
        <ele>83.704096</ele>
        <time>2020-01-17T21:33:54.647Z</time>
      </trkpt>
      <trkpt lat="43.91266" lon="3.99815">
        <ele>83.943622</ele>
        <time>2020-01-17T21:33:58.626Z</time>
      </trkpt>
      <trkpt lat="43.91295" lon="3.99818">
        <ele>84.510001</ele>
        <time>2020-01-17T21:34:08.396Z</time>
      </trkpt>
      <trkpt lat="43.91344" lon="3.99826">
        <ele>85.1701</ele>
        <time>2020-01-17T21:34:24.452Z</time>
      </trkpt>
      <trkpt lat="43.91368" lon="3.99838">
        <ele>85.485998</ele>
        <time>2020-01-17T21:34:32.409Z</time>
      </trkpt>
      <trkpt lat="43.91396" lon="3.99866">
        <ele>85.923324</ele>
        <time>2020-01-17T21:34:43.012Z</time>
      </trkpt>
      <trkpt lat="43.91417" lon="3.99895">
        <ele>86.29144</ele>
        <time>2020-01-17T21:34:51.403Z</time>
      </trkpt>
      <trkpt lat="43.91422" lon="3.999">
        <ele>86.366337</ele>
        <time>2020-01-17T21:34:53.063Z</time>
      </trkpt>
      <trkpt lat="43.91426" lon="3.99907">
        <ele>86.445036</ele>
        <time>2020-01-17T21:34:54.716Z</time>
      </trkpt>
      <trkpt lat="43.91436" lon="3.9992">
        <ele>86.618828</ele>
        <time>2020-01-17T21:34:58.191Z</time>
      </trkpt>
      <trkpt lat="43.91467" lon="3.99958">
        <ele>86.882016</ele>
        <time>2020-01-17T21:35:08.226Z</time>
      </trkpt>
      <trkpt lat="43.91545" lon="4.0003">
        <ele>86.998099</ele>
        <time>2020-01-17T21:35:30.622Z</time>
      </trkpt>
      <trkpt lat="43.91549" lon="4.00043">
        <ele>87.010811</ele>
        <time>2020-01-17T21:35:32.942Z</time>
      </trkpt>
      <trkpt lat="43.91548" lon="4.00052">
        <ele>87.018371</ele>
        <time>2020-01-17T21:35:34.167Z</time>
      </trkpt>
      <trkpt lat="43.91548" lon="4.00052">
        <ele>87.018549</ele>
        <time>2020-01-17T21:35:34.204Z</time>
      </trkpt>
      <trkpt lat="43.91545" lon="4.00052">
        <ele>87.02212</ele>
        <time>2020-01-17T21:35:35.081Z</time>
      </trkpt>
      <trkpt lat="43.91496" lon="4.00032">
        <ele>87.155846</ele>
        <time>2020-01-17T21:35:46.908Z</time>
      </trkpt>
      <trkpt lat="43.9149" lon="4.00039">
        <ele>87.240327</ele>
        <time>2020-01-17T21:35:48.915Z</time>
      </trkpt>
      <trkpt lat="43.91494" lon="4.00052">
        <ele>87.345629</ele>
        <time>2020-01-17T21:35:51.161Z</time>
      </trkpt>
      <trkpt lat="43.91495" lon="4.00056">
        <ele>87.374867</ele>
        <time>2020-01-17T21:35:52.069Z</time>
      </trkpt>
      <trkpt lat="43.91503" lon="4.0007">
        <ele>87.509219</ele>
        <time>2020-01-17T21:35:55.459Z</time>
      </trkpt>
      <trkpt lat="43.91506" lon="4.00077">
        <ele>87.568869</ele>
        <time>2020-01-17T21:35:56.977Z</time>
      </trkpt>
      <trkpt lat="43.9151" lon="4.00085">
        <ele>87.643573</ele>
        <time>2020-01-17T21:35:58.759Z</time>
      </trkpt>
      <trkpt lat="43.91512" lon="4.00085">
        <ele>87.66424</ele>
        <time>2020-01-17T21:35:59.164Z</time>
      </trkpt>
      <trkpt lat="43.91514" lon="4.00085">
        <ele>87.682852</ele>
        <time>2020-01-17T21:35:59.549Z</time>
      </trkpt>
      <trkpt lat="43.91539" lon="4.00083">
        <ele>87.93497</ele>
        <time>2020-01-17T21:36:06.102Z</time>
      </trkpt>
      <trkpt lat="43.91551" lon="4.00087">
        <ele>88.070249</ele>
        <time>2020-01-17T21:36:09.907Z</time>
      </trkpt>
      <trkpt lat="43.91559" lon="4.00092">
        <ele>88.157889</ele>
        <time>2020-01-17T21:36:12.349Z</time>
      </trkpt>
      <trkpt lat="43.9156" lon="4.00111">
        <ele>88.299499</ele>
        <time>2020-01-17T21:36:16.246Z</time>
      </trkpt>
      <trkpt lat="43.91563" lon="4.0013">
        <ele>88.445879</ele>
        <time>2020-01-17T21:36:20.911Z</time>
      </trkpt>
      <trkpt lat="43.91564" lon="4.00141">
        <ele>88.523651</ele>
        <time>2020-01-17T21:36:22.989Z</time>
      </trkpt>
      <trkpt lat="43.91565" lon="4.00149">
        <ele>88.588174</ele>
        <time>2020-01-17T21:36:24.786Z</time>
      </trkpt>
      <trkpt lat="43.91567" lon="4.00208">
        <ele>89.15433</ele>
        <time>2020-01-17T21:36:38.878Z</time>
      </trkpt>
      <trkpt lat="43.91565" lon="4.00246">
        <ele>89.802481</ele>
        <time>2020-01-17T21:36:48.330Z</time>
      </trkpt>
      <trkpt lat="43.91563" lon="4.00271">
        <ele>90.239038</ele>
        <time>2020-01-17T21:36:55.162Z</time>
      </trkpt>
      <trkpt lat="43.91562" lon="4.00279">
        <ele>90.378226</ele>
        <time>2020-01-17T21:36:57.590Z</time>
      </trkpt>
      <trkpt lat="43.9156" lon="4.00394">
        <ele>92.379481</ele>
        <time>2020-01-17T21:37:27.798Z</time>
      </trkpt>
      <trkpt lat="43.91558" lon="4.00404">
        <ele>92.558145</ele>
        <time>2020-01-17T21:37:31.038Z</time>
      </trkpt>
      <trkpt lat="43.91552" lon="4.00414">
        <ele>92.784528</ele>
        <time>2020-01-17T21:37:34.127Z</time>
      </trkpt>
      <trkpt lat="43.91542" lon="4.00432">
        <ele>93.174257</ele>
        <time>2020-01-17T21:37:39.188Z</time>
      </trkpt>
      <trkpt lat="43.91542" lon="4.00438">
        <ele>93.267582</ele>
        <time>2020-01-17T21:37:41.107Z</time>
      </trkpt>
      <trkpt lat="43.91601" lon="4.00461">
        <ele>94.026288</ele>
        <time>2020-01-17T21:38:00.501Z</time>
      </trkpt>
      <trkpt lat="43.91631" lon="4.0048">
        <ele>94.44121</ele>
        <time>2020-01-17T21:38:10.728Z</time>
      </trkpt>
      <trkpt lat="43.91736" lon="4.00552">
        <ele>95.615839</ele>
        <time>2020-01-17T21:38:39.597Z</time>
      </trkpt>
      <trkpt lat="43.91761" lon="4.00569">
        <ele>95.735002</ele>
        <time>2020-01-17T21:38:45.831Z</time>
      </trkpt>
      <trkpt lat="43.91801" lon="4.00597">
        <ele>95.922632</ele>
        <time>2020-01-17T21:38:55.513Z</time>
      </trkpt>
      <trkpt lat="43.91828" lon="4.00605">
        <ele>96.042104</ele>
        <time>2020-01-17T21:39:01.909Z</time>
      </trkpt>
      <trkpt lat="43.91844" lon="4.00607">
        <ele>96.109638</ele>
        <time>2020-01-17T21:39:05.801Z</time>
      </trkpt>
      <trkpt lat="43.91876" lon="4.00604">
        <ele>96.258833</ele>
        <time>2020-01-17T21:39:14.255Z</time>
      </trkpt>
      <trkpt lat="43.91938" lon="4.00576">
        <ele>98.007349</ele>
        <time>2020-01-17T21:39:34.302Z</time>
      </trkpt>
      <trkpt lat="43.91963" lon="4.00561">
        <ele>98.737163</ele>
        <time>2020-01-17T21:39:43.525Z</time>
      </trkpt>
      <trkpt lat="43.92003" lon="4.00615">
        <ele>100.230059</ele>
        <time>2020-01-17T21:40:13.151Z</time>
      </trkpt>
      <trkpt lat="43.92057" lon="4.00755">
        <ele>104.606095</ele>
        <time>2020-01-17T21:41:22.215Z</time>
      </trkpt>
      <trkpt lat="43.92083" lon="4.00802">
        <ele>106.409653</ele>
        <time>2020-01-17T21:41:49.644Z</time>
      </trkpt>
      <trkpt lat="43.92108" lon="4.00833">
        <ele>107.808768</ele>
        <time>2020-01-17T21:42:09.381Z</time>
      </trkpt>
      <trkpt lat="43.92159" lon="4.00929">
        <ele>108.684119</ele>
        <time>2020-01-17T21:42:50.361Z</time>
      </trkpt>
      <trkpt lat="43.9217" lon="4.00938">
        <ele>108.694394</ele>
        <time>2020-01-17T21:42:56.544Z</time>
      </trkpt>
      <trkpt lat="43.92186" lon="4.00957">
        <ele>108.710508</ele>
        <time>2020-01-17T21:43:03.757Z</time>
      </trkpt>
      <trkpt lat="43.92212" lon="4.00985">
        <ele>108.736003</ele>
        <time>2020-01-17T21:43:15.224Z</time>
      </trkpt>
      <trkpt lat="43.92224" lon="4.01">
        <ele>108.748496</ele>
        <time>2020-01-17T21:43:20.898Z</time>
      </trkpt>
      <trkpt lat="43.92229" lon="4.01006">
        <ele>108.75393</ele>
        <time>2020-01-17T21:43:23.131Z</time>
      </trkpt>
      <trkpt lat="43.92251" lon="4.01036">
        <ele>108.461751</ele>
        <time>2020-01-17T21:43:33.128Z</time>
      </trkpt>
      <trkpt lat="43.92335" lon="4.01188">
        <ele>102.595545</ele>
        <time>2020-01-17T21:44:12.829Z</time>
      </trkpt>
      <trkpt lat="43.92348" lon="4.01224">
        <ele>101.363845</ele>
        <time>2020-01-17T21:44:21.382Z</time>
      </trkpt>
      <trkpt lat="43.92385" lon="4.01345">
        <ele>99.246732</ele>
        <time>2020-01-17T21:44:50.734Z</time>
      </trkpt>
      <trkpt lat="43.92421" lon="4.01333">
        <ele>98.462487</ele>
        <time>2020-01-17T21:45:02.773Z</time>
      </trkpt>
      <trkpt lat="43.92496" lon="4.01309">
        <ele>97.583731</ele>
        <time>2020-01-17T21:45:30.364Z</time>
      </trkpt>
      <trkpt lat="43.9282" lon="4.01076">
        <ele>103.029132</ele>
        <time>2020-01-17T21:48:13.170Z</time>
      </trkpt>
      <trkpt lat="43.92821" lon="4.01075">
        <ele>103.045249</ele>
        <time>2020-01-17T21:48:14.165Z</time>
      </trkpt>
      <trkpt lat="43.92836" lon="4.01066">
        <ele>103.53609</ele>
        <time>2020-01-17T21:48:21.804Z</time>
      </trkpt>
      <trkpt lat="43.92851" lon="4.01066">
        <ele>103.985975</ele>
        <time>2020-01-17T21:48:28.739Z</time>
      </trkpt>
      <trkpt lat="43.92928" lon="4.01091">
        <ele>106.323908</ele>
        <time>2020-01-17T21:49:12.248Z</time>
      </trkpt>
      <trkpt lat="43.92983" lon="4.01095">
        <ele>107.945258</ele>
        <time>2020-01-17T21:49:41.916Z</time>
      </trkpt>
      <trkpt lat="43.93075" lon="4.01086">
        <ele>110.592874</ele>
        <time>2020-01-17T21:50:29.984Z</time>
      </trkpt>
      <trkpt lat="43.93184" lon="4.01088">
        <ele>113.085581</ele>
        <time>2020-01-17T21:51:24.314Z</time>
      </trkpt>
      <trkpt lat="43.93199" lon="4.01146">
        <ele>113.572109</ele>
        <time>2020-01-17T21:51:44.161Z</time>
      </trkpt>
      <trkpt lat="43.93201" lon="4.01152">
        <ele>113.629421</ele>
        <time>2020-01-17T21:51:46.922Z</time>
      </trkpt>
      <trkpt lat="43.93206" lon="4.01152">
        <ele>113.683726</ele>
        <time>2020-01-17T21:51:48.647Z</time>
      </trkpt>
      <trkpt lat="43.93235" lon="4.01137">
        <ele>114.023389</ele>
        <time>2020-01-17T21:52:01.925Z</time>
      </trkpt>
      <trkpt lat="43.93351" lon="4.01122">
        <ele>113.948078</ele>
        <time>2020-01-17T21:52:44.269Z</time>
      </trkpt>
      <trkpt lat="43.93418" lon="4.01083">
        <ele>113.036456</ele>
        <time>2020-01-17T21:53:08.615Z</time>
      </trkpt>
      <trkpt lat="43.93478" lon="4.01077">
        <ele>112.121694</ele>
        <time>2020-01-17T21:53:28.125Z</time>
      </trkpt>
      <trkpt lat="43.9353" lon="4.01071">
        <ele>110.683276</ele>
        <time>2020-01-17T21:53:44.651Z</time>
      </trkpt>
      <trkpt lat="43.93636" lon="4.0106">
        <ele>107.707309</ele>
        <time>2020-01-17T21:54:17.760Z</time>
      </trkpt>
      <trkpt lat="43.9367" lon="4.01037">
        <ele>106.478579</ele>
        <time>2020-01-17T21:54:29.275Z</time>
      </trkpt>
      <trkpt lat="43.93725" lon="4.01026">
        <ele>104.608556</ele>
        <time>2020-01-17T21:54:46.145Z</time>
      </trkpt>
      <trkpt lat="43.93745" lon="4.01006">
        <ele>103.763877</ele>
        <time>2020-01-17T21:54:53.729Z</time>
      </trkpt>
      <trkpt lat="43.93757" lon="4.00989">
        <ele>103.181125</ele>
        <time>2020-01-17T21:54:58.864Z</time>
      </trkpt>
      <trkpt lat="43.93858" lon="4.01062">
        <ele>99.000424</ele>
        <time>2020-01-17T21:55:18.006Z</time>
      </trkpt>
      <trkpt lat="43.93868" lon="4.01069">
        <ele>98.569433</ele>
        <time>2020-01-17T21:55:19.794Z</time>
      </trkpt>
      <trkpt lat="43.93902" lon="4.0112">
        <ele>96.611505</ele>
        <time>2020-01-17T21:55:28.182Z</time>
      </trkpt>
      <trkpt lat="43.9396" lon="4.01256">
        <ele>92.21045</ele>
        <time>2020-01-17T21:55:46.832Z</time>
      </trkpt>
      <trkpt lat="43.94011" lon="4.01314">
        <ele>89.683904</ele>
        <time>2020-01-17T21:55:57.745Z</time>
      </trkpt>
      <trkpt lat="43.94052" lon="4.01333">
        <ele>88.027859</ele>
        <time>2020-01-17T21:56:04.930Z</time>
      </trkpt>
      <trkpt lat="43.94214" lon="4.01356">
        <ele>83.68322</ele>
        <time>2020-01-17T21:56:33.258Z</time>
      </trkpt>
      <trkpt lat="43.94316" lon="4.01453">
        <ele>82.508588</ele>
        <time>2020-01-17T21:56:57.137Z</time>
      </trkpt>
      <trkpt lat="43.94327" lon="4.01459">
        <ele>82.463743</ele>
        <time>2020-01-17T21:56:59.802Z</time>
      </trkpt>
      <trkpt lat="43.94332" lon="4.0146">
        <ele>82.443762</ele>
        <time>2020-01-17T21:57:01.024Z</time>
      </trkpt>
      <trkpt lat="43.94346" lon="4.01464">
        <ele>82.394036</ele>
        <time>2020-01-17T21:57:04.015Z</time>
      </trkpt>
      <trkpt lat="43.94434" lon="4.01485">
        <ele>82.77392</ele>
        <time>2020-01-17T21:57:27.810Z</time>
      </trkpt>
      <trkpt lat="43.94459" lon="4.01495">
        <ele>83.263592</ele>
        <time>2020-01-17T21:57:35.452Z</time>
      </trkpt>
      <trkpt lat="43.94472" lon="4.01511">
        <ele>83.608438</ele>
        <time>2020-01-17T21:57:41.228Z</time>
      </trkpt>
      <trkpt lat="43.94479" lon="4.01542">
        <ele>84.051722</ele>
        <time>2020-01-17T21:57:48.771Z</time>
      </trkpt>
      <trkpt lat="43.94493" lon="4.01799">
        <ele>87.57166</ele>
        <time>2020-01-17T21:58:53.276Z</time>
      </trkpt>
      <trkpt lat="43.94435" lon="4.02199">
        <ele>90.699929</ele>
        <time>2020-01-17T22:00:14.378Z</time>
      </trkpt>
      <trkpt lat="43.94429" lon="4.0223">
        <ele>90.637478</ele>
        <time>2020-01-17T22:00:19.259Z</time>
      </trkpt>
      <trkpt lat="43.94435" lon="4.02257">
        <ele>90.581267</ele>
        <time>2020-01-17T22:00:23.620Z</time>
      </trkpt>
      <trkpt lat="43.94443" lon="4.02269">
        <ele>90.547695</ele>
        <time>2020-01-17T22:00:26.231Z</time>
      </trkpt>
      <trkpt lat="43.94456" lon="4.02278">
        <ele>90.509583</ele>
        <time>2020-01-17T22:00:29.553Z</time>
      </trkpt>
      <trkpt lat="43.94467" lon="4.02276">
        <ele>90.478446</ele>
        <time>2020-01-17T22:00:31.665Z</time>
      </trkpt>
      <trkpt lat="43.9452" lon="4.02254">
        <ele>90.326077</ele>
        <time>2020-01-17T22:00:43.060Z</time>
      </trkpt>
      <trkpt lat="43.94622" lon="4.02188">
        <ele>88.919461</ele>
        <time>2020-01-17T22:01:04.242Z</time>
      </trkpt>
      <trkpt lat="43.94765" lon="4.02078">
        <ele>87.293833</ele>
        <time>2020-01-17T22:01:36.291Z</time>
      </trkpt>
      <trkpt lat="43.94798" lon="4.02065">
        <ele>87.045522</ele>
        <time>2020-01-17T22:01:43.540Z</time>
      </trkpt>
      <trkpt lat="43.94827" lon="4.02068">
        <ele>86.834676</ele>
        <time>2020-01-17T22:01:49.740Z</time>
      </trkpt>
      <trkpt lat="43.949" lon="4.02093">
        <ele>86.474103</ele>
        <time>2020-01-17T22:02:06.021Z</time>
      </trkpt>
      <trkpt lat="43.94947" lon="4.02103">
        <ele>86.313713</ele>
        <time>2020-01-17T22:02:16.318Z</time>
      </trkpt>
      <trkpt lat="43.95039" lon="4.02115">
        <ele>85.957329</ele>
        <time>2020-01-17T22:02:35.742Z</time>
      </trkpt>
      <trkpt lat="43.95078" lon="4.02125">
        <ele>85.575018</ele>
        <time>2020-01-17T22:02:43.831Z</time>
      </trkpt>
      <trkpt lat="43.95099" lon="4.02153">
        <ele>85.290176</ele>
        <time>2020-01-17T22:02:49.745Z</time>
      </trkpt>
      <trkpt lat="43.95117" lon="4.02204">
        <ele>84.89283</ele>
        <time>2020-01-17T22:02:57.871Z</time>
      </trkpt>
      <trkpt lat="43.9518" lon="4.02432">
        <ele>83.346679</ele>
        <time>2020-01-17T22:03:32.310Z</time>
      </trkpt>
      <trkpt lat="43.95252" lon="4.02663">
        <ele>83.278714</ele>
        <time>2020-01-17T22:04:11.030Z</time>
      </trkpt>
      <trkpt lat="43.95275" lon="4.0273">
        <ele>83.505019</ele>
        <time>2020-01-17T22:04:26.581Z</time>
      </trkpt>
      <trkpt lat="43.953" lon="4.02811">
        <ele>84.942805</ele>
        <time>2020-01-17T22:04:47.569Z</time>
      </trkpt>
      <trkpt lat="43.95328" lon="4.02888">
        <ele>86.60975</ele>
        <time>2020-01-17T22:05:09.491Z</time>
      </trkpt>
      <trkpt lat="43.95334" lon="4.02894">
        <ele>86.804781</ele>
        <time>2020-01-17T22:05:12.747Z</time>
      </trkpt>
      <trkpt lat="43.95337" lon="4.02896">
        <ele>86.891927</ele>
        <time>2020-01-17T22:05:14.534Z</time>
      </trkpt>
      <trkpt lat="43.95387" lon="4.02907">
        <ele>88.242835</ele>
        <time>2020-01-17T22:05:33.831Z</time>
      </trkpt>
      <trkpt lat="43.95402" lon="4.02903">
        <ele>88.623891</ele>
        <time>2020-01-17T22:05:39.744Z</time>
      </trkpt>
      <trkpt lat="43.95447" lon="4.02884">
        <ele>89.66273</ele>
        <time>2020-01-17T22:05:57.813Z</time>
      </trkpt>
      <trkpt lat="43.95451" lon="4.02882">
        <ele>89.749315</ele>
        <time>2020-01-17T22:05:59.225Z</time>
      </trkpt>
      <trkpt lat="43.95487" lon="4.02852">
        <ele>90.691587</ele>
        <time>2020-01-17T22:06:15.112Z</time>
      </trkpt>
      <trkpt lat="43.95492" lon="4.02849">
        <ele>90.814639</ele>
        <time>2020-01-17T22:06:16.822Z</time>
      </trkpt>
      <trkpt lat="43.95497" lon="4.02848">
        <ele>90.91729</ele>
        <time>2020-01-17T22:06:18.255Z</time>
      </trkpt>
      <trkpt lat="43.95519" lon="4.02846">
        <ele>91.401642</ele>
        <time>2020-01-17T22:06:25.418Z</time>
      </trkpt>
      <trkpt lat="43.9554" lon="4.02836">
        <ele>91.908316</ele>
        <time>2020-01-17T22:06:31.854Z</time>
      </trkpt>
      <trkpt lat="43.95573" lon="4.02841">
        <ele>92.287242</ele>
        <time>2020-01-17T22:06:40.686Z</time>
      </trkpt>
      <trkpt lat="43.9559" lon="4.02853">
        <ele>92.139981</ele>
        <time>2020-01-17T22:06:45.824Z</time>
      </trkpt>
      <trkpt lat="43.95643" lon="4.02864">
        <ele>91.748347</ele>
        <time>2020-01-17T22:06:57.707Z</time>
      </trkpt>
      <trkpt lat="43.95673" lon="4.02866">
        <ele>91.528283</ele>
        <time>2020-01-17T22:07:03.895Z</time>
      </trkpt>
      <trkpt lat="43.95684" lon="4.02875">
        <ele>91.434715</ele>
        <time>2020-01-17T22:07:06.351Z</time>
      </trkpt>
      <trkpt lat="43.9571" lon="4.02907">
        <ele>91.178531</ele>
        <time>2020-01-17T22:07:13.212Z</time>
      </trkpt>
      <trkpt lat="43.95719" lon="4.02905">
        <ele>91.110046</ele>
        <time>2020-01-17T22:07:14.935Z</time>
      </trkpt>
      <trkpt lat="43.95741" lon="4.02901">
        <ele>90.81137</ele>
        <time>2020-01-17T22:07:18.940Z</time>
      </trkpt>
      <trkpt lat="43.95752" lon="4.02893">
        <ele>90.576901</ele>
        <time>2020-01-17T22:07:21.208Z</time>
      </trkpt>
      <trkpt lat="43.95765" lon="4.02875">
        <ele>90.247406</ele>
        <time>2020-01-17T22:07:24.541Z</time>
      </trkpt>
      <trkpt lat="43.9576" lon="4.02842">
        <ele>89.815183</ele>
        <time>2020-01-17T22:07:28.696Z</time>
      </trkpt>
      <trkpt lat="43.95975" lon="4.0274">
        <ele>86.456621</ele>
        <time>2020-01-17T22:08:11.516Z</time>
      </trkpt>
      <trkpt lat="43.9601" lon="4.02714">
        <ele>86.01278</ele>
        <time>2020-01-17T22:08:19.527Z</time>
      </trkpt>
      <trkpt lat="43.96011" lon="4.02723">
        <ele>85.944088</ele>
        <time>2020-01-17T22:08:21.768Z</time>
      </trkpt>
      <trkpt lat="43.96031" lon="4.02779">
        <ele>85.840327</ele>
        <time>2020-01-17T22:08:38.351Z</time>
      </trkpt>
      <trkpt lat="43.96042" lon="4.02797">
        <ele>85.926414</ele>
        <time>2020-01-17T22:08:45.076Z</time>
      </trkpt>
      <trkpt lat="43.96058" lon="4.02822">
        <ele>86.04341</ele>
        <time>2020-01-17T22:08:54.481Z</time>
      </trkpt>
      <trkpt lat="43.96126" lon="4.02859">
        <ele>86.398972</ele>
        <time>2020-01-17T22:09:23.950Z</time>
      </trkpt>
      <trkpt lat="43.9613" lon="4.02868">
        <ele>86.436663</ele>
        <time>2020-01-17T22:09:27.116Z</time>
      </trkpt>
      <trkpt lat="43.96137" lon="4.029">
        <ele>86.557139</ele>
        <time>2020-01-17T22:09:37.182Z</time>
      </trkpt>
      <trkpt lat="43.96138" lon="4.02907">
        <ele>86.581827</ele>
        <time>2020-01-17T22:09:39.280Z</time>
      </trkpt>
      <trkpt lat="43.96152" lon="4.02925">
        <ele>86.831951</ele>
        <time>2020-01-17T22:09:47.104Z</time>
      </trkpt>
      <trkpt lat="43.96192" lon="4.02974">
        <ele>87.636348</ele>
        <time>2020-01-17T22:10:09.378Z</time>
      </trkpt>
      <trkpt lat="43.96235" lon="4.0307">
        <ele>88.887669</ele>
        <time>2020-01-17T22:10:47.370Z</time>
      </trkpt>
      <trkpt lat="43.96242" lon="4.03093">
        <ele>89.160859</ele>
        <time>2020-01-17T22:10:55.740Z</time>
      </trkpt>
      <trkpt lat="43.96248" lon="4.03106">
        <ele>89.329314</ele>
        <time>2020-01-17T22:10:59.204Z</time>
      </trkpt>
      <trkpt lat="43.96335" lon="4.03115">
        <ele>91.16449</ele>
        <time>2020-01-17T22:11:40.691Z</time>
      </trkpt>
      <trkpt lat="43.96413" lon="4.03061">
        <ele>92.984716</ele>
        <time>2020-01-17T22:12:22.654Z</time>
      </trkpt>
      <trkpt lat="43.96435" lon="4.03053">
        <ele>93.38108</ele>
        <time>2020-01-17T22:12:33.663Z</time>
      </trkpt>
      <trkpt lat="43.96541" lon="4.03134">
        <ele>95.275261</ele>
        <time>2020-01-17T22:13:28.053Z</time>
      </trkpt>
      <trkpt lat="43.96601" lon="4.03169">
        <ele>96.174805</ele>
        <time>2020-01-17T22:13:55.681Z</time>
      </trkpt>
      <trkpt lat="43.96787" lon="4.03248">
        <ele>97.781185</ele>
        <time>2020-01-17T22:15:18.963Z</time>
      </trkpt>
      <trkpt lat="43.96885" lon="4.03289">
        <ele>97.512278</ele>
        <time>2020-01-17T22:15:56.258Z</time>
      </trkpt>
      <trkpt lat="43.96884" lon="4.03305">
        <ele>97.482135</ele>
        <time>2020-01-17T22:15:59.893Z</time>
      </trkpt>
      <trkpt lat="43.96852" lon="4.03377">
        <ele>96.70439</ele>
        <time>2020-01-17T22:16:20.637Z</time>
      </trkpt>
      <trkpt lat="43.96843" lon="4.03487">
        <ele>94.951806</ele>
        <time>2020-01-17T22:16:45.933Z</time>
      </trkpt>
      <trkpt lat="43.96836" lon="4.03532">
        <ele>94.229053</ele>
        <time>2020-01-17T22:16:56.383Z</time>
      </trkpt>
      <trkpt lat="43.96829" lon="4.03577">
        <ele>93.51399</ele>
        <time>2020-01-17T22:17:06.857Z</time>
      </trkpt>
      <trkpt lat="43.96761" lon="4.03761">
        <ele>90.687559</ele>
        <time>2020-01-17T22:17:55.414Z</time>
      </trkpt>
      <trkpt lat="43.9676" lon="4.03892">
        <ele>89.253161</ele>
        <time>2020-01-17T22:18:27.246Z</time>
      </trkpt>
      <trkpt lat="43.9679" lon="4.03946">
        <ele>88.616379</ele>
        <time>2020-01-17T22:18:43.778Z</time>
      </trkpt>
      <trkpt lat="43.96732" lon="4.03977">
        <ele>87.802576</ele>
        <time>2020-01-17T22:19:05.012Z</time>
      </trkpt>
      <trkpt lat="43.96706" lon="4.04">
        <ele>87.649539</ele>
        <time>2020-01-17T22:19:15.435Z</time>
      </trkpt>
      <trkpt lat="43.96639" lon="4.04048">
        <ele>87.463645</ele>
        <time>2020-01-17T22:19:41.821Z</time>
      </trkpt>
      <trkpt lat="43.96622" lon="4.04078">
        <ele>87.395244</ele>
        <time>2020-01-17T22:19:51.778Z</time>
      </trkpt>
      <trkpt lat="43.96596" lon="4.04129">
        <ele>87.28517</ele>
        <time>2020-01-17T22:20:09.602Z</time>
      </trkpt>
      <trkpt lat="43.96563" lon="4.04166">
        <ele>88.013585</ele>
        <time>2020-01-17T22:20:27.895Z</time>
      </trkpt>
      <trkpt lat="43.96518" lon="4.04182">
        <ele>89.044291</ele>
        <time>2020-01-17T22:20:49.151Z</time>
      </trkpt>
      <trkpt lat="43.96503" lon="4.04192">
        <ele>89.421334</ele>
        <time>2020-01-17T22:20:57.393Z</time>
      </trkpt>
      <trkpt lat="43.96496" lon="4.04196">
        <ele>89.579077</ele>
        <time>2020-01-17T22:21:00.646Z</time>
      </trkpt>
      <trkpt lat="43.96478" lon="4.04211">
        <ele>90.052161</ele>
        <time>2020-01-17T22:21:11.803Z</time>
      </trkpt>
      <trkpt lat="43.96395" lon="4.04289">
        <ele>92.380797</ele>
        <time>2020-01-17T22:22:05.694Z</time>
      </trkpt>
      <trkpt lat="43.96315" lon="4.04388">
        <ele>94.957029</ele>
        <time>2020-01-17T22:23:00.070Z</time>
      </trkpt>
      <trkpt lat="43.96321" lon="4.04402">
        <ele>95.245368</ele>
        <time>2020-01-17T22:23:05.513Z</time>
      </trkpt>
      <trkpt lat="43.96311" lon="4.04837">
        <ele>96.417817</ele>
        <time>2020-01-17T22:25:06.523Z</time>
      </trkpt>
      <trkpt lat="43.96314" lon="4.04886">
        <ele>96.404771</ele>
        <time>2020-01-17T22:25:19.041Z</time>
      </trkpt>
      <trkpt lat="43.96338" lon="4.04928">
        <ele>96.348796</ele>
        <time>2020-01-17T22:25:32.622Z</time>
      </trkpt>
      <trkpt lat="43.9641" lon="4.04965">
        <ele>96.053657</ele>
        <time>2020-01-17T22:25:48.513Z</time>
      </trkpt>
      <trkpt lat="43.96383" lon="4.05011">
        <ele>95.892315</ele>
        <time>2020-01-17T22:25:57.726Z</time>
      </trkpt>
      <trkpt lat="43.96367" lon="4.05041">
        <ele>95.786507</ele>
        <time>2020-01-17T22:26:03.818Z</time>
      </trkpt>
      <trkpt lat="43.96355" lon="4.05081">
        <ele>95.761483</ele>
        <time>2020-01-17T22:26:10.982Z</time>
      </trkpt>
      <trkpt lat="43.96362" lon="4.05245">
        <ele>96.423711</ele>
        <time>2020-01-17T22:26:41.558Z</time>
      </trkpt>
      <trkpt lat="43.96389" lon="4.05458">
        <ele>98.08354</ele>
        <time>2020-01-17T22:27:25.285Z</time>
      </trkpt>
      <trkpt lat="43.96416" lon="4.05529">
        <ele>98.849052</ele>
        <time>2020-01-17T22:27:43.820Z</time>
      </trkpt>
      <trkpt lat="43.96442" lon="4.05654">
        <ele>100.763173</ele>
        <time>2020-01-17T22:28:14.741Z</time>
      </trkpt>
      <trkpt lat="43.96443" lon="4.05659">
        <ele>100.839986</ele>
        <time>2020-01-17T22:28:16.252Z</time>
      </trkpt>
      <trkpt lat="43.96443" lon="4.05701">
        <ele>101.506283</ele>
        <time>2020-01-17T22:28:26.328Z</time>
      </trkpt>
      <trkpt lat="43.96469" lon="4.05904">
        <ele>105.061378</ele>
        <time>2020-01-17T22:29:19.536Z</time>
      </trkpt>
      <trkpt lat="43.96507" lon="4.06053">
        <ele>108.015132</ele>
        <time>2020-01-17T22:30:00.513Z</time>
      </trkpt>
      <trkpt lat="43.96524" lon="4.06252">
        <ele>112.207198</ele>
        <time>2020-01-17T22:30:55.178Z</time>
      </trkpt>
      <trkpt lat="43.96525" lon="4.06362">
        <ele>114.025352</ele>
        <time>2020-01-17T22:31:25.622Z</time>
      </trkpt>
      <trkpt lat="43.96533" lon="4.06405">
        <ele>114.684069</ele>
        <time>2020-01-17T22:31:36.823Z</time>
      </trkpt>
      <trkpt lat="43.96538" lon="4.06416">
        <ele>114.860545</ele>
        <time>2020-01-17T22:31:40.653Z</time>
      </trkpt>
      <trkpt lat="43.96539" lon="4.06462">
        <ele>115.541375</ele>
        <time>2020-01-17T22:31:56.391Z</time>
      </trkpt>
      <trkpt lat="43.96482" lon="4.0676">
        <ele>117.518552</ele>
        <time>2020-01-17T22:33:25.811Z</time>
      </trkpt>
      <trkpt lat="43.96455" lon="4.06965">
        <ele>117.685326</ele>
        <time>2020-01-17T22:34:20.990Z</time>
      </trkpt>
      <trkpt lat="43.96432" lon="4.07085">
        <ele>117.935406</ele>
        <time>2020-01-17T22:34:55.270Z</time>
      </trkpt>
      <trkpt lat="43.96441" lon="4.07199">
        <ele>118.285291</ele>
        <time>2020-01-17T22:35:28.019Z</time>
      </trkpt>
      <trkpt lat="43.96426" lon="4.07266">
        <ele>118.510361</ele>
        <time>2020-01-17T22:35:48.424Z</time>
      </trkpt>
      <trkpt lat="43.96426" lon="4.07267">
        <ele>118.513486</ele>
        <time>2020-01-17T22:35:48.727Z</time>
      </trkpt>
      <trkpt lat="43.96402" lon="4.07301">
        <ele>118.720207</ele>
        <time>2020-01-17T22:36:02.290Z</time>
      </trkpt>
      <trkpt lat="43.96364" lon="4.07334">
        <ele>118.994788</ele>
        <time>2020-01-17T22:36:20.489Z</time>
      </trkpt>
      <trkpt lat="43.96344" lon="4.07376">
        <ele>119.216065</ele>
        <time>2020-01-17T22:36:35.091Z</time>
      </trkpt>
      <trkpt lat="43.96326" lon="4.07498">
        <ele>119.900752</ele>
        <time>2020-01-17T22:37:11.116Z</time>
      </trkpt>
      <trkpt lat="43.96296" lon="4.07656">
        <ele>121.153548</ele>
        <time>2020-01-17T22:38:00.387Z</time>
      </trkpt>
      <trkpt lat="43.96255" lon="4.0773">
        <ele>122.16642</ele>
        <time>2020-01-17T22:38:31.226Z</time>
      </trkpt>
      <trkpt lat="43.96252" lon="4.0779">
        <ele>122.980841</ele>
        <time>2020-01-17T22:38:51.169Z</time>
      </trkpt>
      <trkpt lat="43.96278" lon="4.07809">
        <ele>123.537279</ele>
        <time>2020-01-17T22:39:00.660Z</time>
      </trkpt>
      <trkpt lat="43.9629" lon="4.07843">
        <ele>124.046524</ele>
        <time>2020-01-17T22:39:09.731Z</time>
      </trkpt>
      <trkpt lat="43.96315" lon="4.07902">
        <ele>125.005139</ele>
        <time>2020-01-17T22:39:26.312Z</time>
      </trkpt>
      <trkpt lat="43.96368" lon="4.08096">
        <ele>128.563105</ele>
        <time>2020-01-17T22:40:18.792Z</time>
      </trkpt>
      <trkpt lat="43.96389" lon="4.08192">
        <ele>129.878715</ele>
        <time>2020-01-17T22:40:44.987Z</time>
      </trkpt>
      <trkpt lat="43.96375" lon="4.08205">
        <ele>130.129923</ele>
        <time>2020-01-17T22:40:51.139Z</time>
      </trkpt>
      <trkpt lat="43.96306" lon="4.08286">
        <ele>131.515861</ele>
        <time>2020-01-17T22:41:18.719Z</time>
      </trkpt>
      <trkpt lat="43.96293" lon="4.0833">
        <ele>131.750771</ele>
        <time>2020-01-17T22:41:27.596Z</time>
      </trkpt>
      <trkpt lat="43.9629" lon="4.08338">
        <ele>131.629909</ele>
        <time>2020-01-17T22:41:28.902Z</time>
      </trkpt>
      <trkpt lat="43.96281" lon="4.08336">
        <ele>131.457259</ele>
        <time>2020-01-17T22:41:31.016Z</time>
      </trkpt>
      <trkpt lat="43.96256" lon="4.08335">
        <ele>130.988613</ele>
        <time>2020-01-17T22:41:36.178Z</time>
      </trkpt>
      <trkpt lat="43.96239" lon="4.08372">
        <ele>130.396392</ele>
        <time>2020-01-17T22:41:42.371Z</time>
      </trkpt>
      <trkpt lat="43.96239" lon="4.08372">
        <ele>130.396392</ele>
        <time>2020-01-17T22:41:42.381Z</time>
      </trkpt>
      <trkpt lat="43.96229" lon="4.08367">
        <ele>130.190162</ele>
        <time>2020-01-17T22:41:44.389Z</time>
      </trkpt>
      <trkpt lat="43.96208" lon="4.08361">
        <ele>129.793341</ele>
        <time>2020-01-17T22:41:48.387Z</time>
      </trkpt>
      <trkpt lat="43.96185" lon="4.08351">
        <ele>129.331158</ele>
        <time>2020-01-17T22:41:52.826Z</time>
      </trkpt>
      <trkpt lat="43.96078" lon="4.08285">
        <ele>126.809635</ele>
        <time>2020-01-17T22:42:13.962Z</time>
      </trkpt>
      <trkpt lat="43.96069" lon="4.08292">
        <ele>126.590034</ele>
        <time>2020-01-17T22:42:16.965Z</time>
      </trkpt>
      <trkpt lat="43.96051" lon="4.08371">
        <ele>125.204922</ele>
        <time>2020-01-17T22:42:36.313Z</time>
      </trkpt>
      <trkpt lat="43.96023" lon="4.08367">
        <ele>124.562618</ele>
        <time>2020-01-17T22:42:45.557Z</time>
      </trkpt>
      <trkpt lat="43.96017" lon="4.08375">
        <ele>124.374658</ele>
        <time>2020-01-17T22:42:48.471Z</time>
      </trkpt>
      <trkpt lat="43.9601" lon="4.08413">
        <ele>124.197939</ele>
        <time>2020-01-17T22:42:58.323Z</time>
      </trkpt>
      <trkpt lat="43.95987" lon="4.08432">
        <ele>124.030621</ele>
        <time>2020-01-17T22:43:07.864Z</time>
      </trkpt>
      <trkpt lat="43.95966" lon="4.08467">
        <ele>123.827501</ele>
        <time>2020-01-17T22:43:19.646Z</time>
      </trkpt>
      <trkpt lat="43.95867" lon="4.08512">
        <ele>123.258625</ele>
        <time>2020-01-17T22:43:57.060Z</time>
      </trkpt>
      <trkpt lat="43.95816" lon="4.08508">
        <ele>123.253892</ele>
        <time>2020-01-17T22:44:15.792Z</time>
      </trkpt>
      <trkpt lat="43.95628" lon="4.08569">
        <ele>123.93725</ele>
        <time>2020-01-17T22:45:28.940Z</time>
      </trkpt>
      <trkpt lat="43.95551" lon="4.08695">
        <ele>125.174693</ele>
        <time>2020-01-17T22:46:21.372Z</time>
      </trkpt>
      <trkpt lat="43.95521" lon="4.08716">
        <ele>125.809484</ele>
        <time>2020-01-17T22:46:36.788Z</time>
      </trkpt>
      <trkpt lat="43.95444" lon="4.08728">
        <ele>127.291477</ele>
        <time>2020-01-17T22:47:13.507Z</time>
      </trkpt>
      <trkpt lat="43.95391" lon="4.08716">
        <ele>128.312352</ele>
        <time>2020-01-17T22:47:39.105Z</time>
      </trkpt>
      <trkpt lat="43.9532" lon="4.08679">
        <ele>129.736327</ele>
        <time>2020-01-17T22:48:14.612Z</time>
      </trkpt>
      <trkpt lat="43.95215" lon="4.08668">
        <ele>131.70125</ele>
        <time>2020-01-17T22:49:03.947Z</time>
      </trkpt>
      <trkpt lat="43.95101" lon="4.08706">
        <ele>132.536447</ele>
        <time>2020-01-17T22:49:53.874Z</time>
      </trkpt>
      <trkpt lat="43.95068" lon="4.08696">
        <ele>132.773715</ele>
        <time>2020-01-17T22:50:06.227Z</time>
      </trkpt>
      <trkpt lat="43.95013" lon="4.08709">
        <ele>132.576509</ele>
        <time>2020-01-17T22:50:26.499Z</time>
      </trkpt>
      <trkpt lat="43.95003" lon="4.08704">
        <ele>132.436253</ele>
        <time>2020-01-17T22:50:28.565Z</time>
      </trkpt>
      <trkpt lat="43.94928" lon="4.08721">
        <ele>131.439052</ele>
        <time>2020-01-17T22:50:43.892Z</time>
      </trkpt>
      <trkpt lat="43.94924" lon="4.08718">
        <ele>131.370519</ele>
        <time>2020-01-17T22:50:44.989Z</time>
      </trkpt>
      <trkpt lat="43.94863" lon="4.0857">
        <ele>130.015312</ele>
        <time>2020-01-17T22:51:08.535Z</time>
      </trkpt>
      <trkpt lat="43.94863" lon="4.0857">
        <ele>130.015312</ele>
        <time>2020-01-17T22:51:08.555Z</time>
      </trkpt>
      <trkpt lat="43.94855" lon="4.08556">
        <ele>129.895586</ele>
        <time>2020-01-17T22:51:11.149Z</time>
      </trkpt>
      <trkpt lat="43.94839" lon="4.08532">
        <ele>129.673939</ele>
        <time>2020-01-17T22:51:16.000Z</time>
      </trkpt>
      <trkpt lat="43.94821" lon="4.08494">
        <ele>129.371972</ele>
        <time>2020-01-17T22:51:23.169Z</time>
      </trkpt>
      <trkpt lat="43.94811" lon="4.08461">
        <ele>129.13687</ele>
        <time>2020-01-17T22:51:28.616Z</time>
      </trkpt>
      <trkpt lat="43.94793" lon="4.08421">
        <ele>129.246274</ele>
        <time>2020-01-17T22:51:37.883Z</time>
      </trkpt>
      <trkpt lat="43.94746" lon="4.08365">
        <ele>130.707184</ele>
        <time>2020-01-17T22:51:57.959Z</time>
      </trkpt>
      <trkpt lat="43.94694" lon="4.08333">
        <ele>132.067685</ele>
        <time>2020-01-17T22:52:19.736Z</time>
      </trkpt>
      <trkpt lat="43.94681" lon="4.0833">
        <ele>132.360125</ele>
        <time>2020-01-17T22:52:25.653Z</time>
      </trkpt>
      <trkpt lat="43.94652" lon="4.08317">
        <ele>133.086363</ele>
        <time>2020-01-17T22:52:37.151Z</time>
      </trkpt>
      <trkpt lat="43.94549" lon="4.08255">
        <ele>135.969688</ele>
        <time>2020-01-17T22:53:20.380Z</time>
      </trkpt>
      <trkpt lat="43.94532" lon="4.08245">
        <ele>136.433911</ele>
        <time>2020-01-17T22:53:25.860Z</time>
      </trkpt>
      <trkpt lat="43.94519" lon="4.0824">
        <ele>136.783066</ele>
        <time>2020-01-17T22:53:30.110Z</time>
      </trkpt>
      <trkpt lat="43.94359" lon="4.08257">
        <ele>140.091845</ele>
        <time>2020-01-17T22:54:18.178Z</time>
      </trkpt>
      <trkpt lat="43.9427" lon="4.08272">
        <ele>141.780924</ele>
        <time>2020-01-17T22:54:49.612Z</time>
      </trkpt>
      <trkpt lat="43.94264" lon="4.08258">
        <ele>142.000926</ele>
        <time>2020-01-17T22:54:53.765Z</time>
      </trkpt>
      <trkpt lat="43.94251" lon="4.08252">
        <ele>142.256585</ele>
        <time>2020-01-17T22:54:58.554Z</time>
      </trkpt>
      <trkpt lat="43.94248" lon="4.08219">
        <ele>142.687416</ele>
        <time>2020-01-17T22:55:05.376Z</time>
      </trkpt>
      <trkpt lat="43.94234" lon="4.08229">
        <ele>142.97222</ele>
        <time>2020-01-17T22:55:10.871Z</time>
      </trkpt>
      <trkpt lat="43.94227" lon="4.0823">
        <ele>143.101421</ele>
        <time>2020-01-17T22:55:12.843Z</time>
      </trkpt>
      <trkpt lat="43.94204" lon="4.0822">
        <ele>143.544518</ele>
        <time>2020-01-17T22:55:20.819Z</time>
      </trkpt>
      <trkpt lat="43.94176" lon="4.08208">
        <ele>144.081983</ele>
        <time>2020-01-17T22:55:29.604Z</time>
      </trkpt>
      <trkpt lat="43.94158" lon="4.08201">
        <ele>144.422869</ele>
        <time>2020-01-17T22:55:34.947Z</time>
      </trkpt>
      <trkpt lat="43.94154" lon="4.08199">
        <ele>144.512111</ele>
        <time>2020-01-17T22:55:36.475Z</time>
      </trkpt>
      <trkpt lat="43.94117" lon="4.08186">
        <ele>145.107397</ele>
        <time>2020-01-17T22:55:47.358Z</time>
      </trkpt>
      <trkpt lat="43.94111" lon="4.08183">
        <ele>145.205397</ele>
        <time>2020-01-17T22:55:48.867Z</time>
      </trkpt>
      <trkpt lat="43.9412" lon="4.08131">
        <ele>145.817599</ele>
        <time>2020-01-17T22:55:59.453Z</time>
      </trkpt>
      <trkpt lat="43.9411" lon="4.08114">
        <ele>146.068097</ele>
        <time>2020-01-17T22:56:03.513Z</time>
      </trkpt>
      <trkpt lat="43.94065" lon="4.08025">
        <ele>147.302827</ele>
        <time>2020-01-17T22:56:25.300Z</time>
      </trkpt>
      <trkpt lat="43.9393" lon="4.07849">
        <ele>156.890773</ele>
        <time>2020-01-17T22:57:59.035Z</time>
      </trkpt>
      <trkpt lat="43.93909" lon="4.0782">
        <ele>159.43162</ele>
        <time>2020-01-17T22:58:16.184Z</time>
      </trkpt>
      <trkpt lat="43.93902" lon="4.07818">
        <ele>160.036831</ele>
        <time>2020-01-17T22:58:23.046Z</time>
      </trkpt>
      <trkpt lat="43.93887" lon="4.0782">
        <ele>161.327502</ele>
        <time>2020-01-17T22:58:34.044Z</time>
      </trkpt>
      <trkpt lat="43.93863" lon="4.07808">
        <ele>163.531777</ele>
        <time>2020-01-17T22:58:55.293Z</time>
      </trkpt>
      <trkpt lat="43.93858" lon="4.07752">
        <ele>167.010045</ele>
        <time>2020-01-17T22:59:28.959Z</time>
      </trkpt>
      <trkpt lat="43.93851" lon="4.07753">
        <ele>167.59871</ele>
        <time>2020-01-17T22:59:34.432Z</time>
      </trkpt>
      <trkpt lat="43.93824" lon="4.07788">
        <ele>170.780463</ele>
        <time>2020-01-17T23:00:06.959Z</time>
      </trkpt>
      <trkpt lat="43.93811" lon="4.07792">
        <ele>172.000438</ele>
        <time>2020-01-17T23:00:19.487Z</time>
      </trkpt>
      <trkpt lat="43.93675" lon="4.07752">
        <ele>184.508124</ele>
        <time>2020-01-17T23:02:13.435Z</time>
      </trkpt>
      <trkpt lat="43.93657" lon="4.07742">
        <ele>186.247191</ele>
        <time>2020-01-17T23:02:29.781Z</time>
      </trkpt>
      <trkpt lat="43.93632" lon="4.07712">
        <ele>189.054084</ele>
        <time>2020-01-17T23:02:56.555Z</time>
      </trkpt>
      <trkpt lat="43.93605" lon="4.07733">
        <ele>191.244262</ele>
        <time>2020-01-17T23:03:21.411Z</time>
      </trkpt>
      <trkpt lat="43.93549" lon="4.07757">
        <ele>195.304165</ele>
        <time>2020-01-17T23:04:04.744Z</time>
      </trkpt>
      <trkpt lat="43.93533" lon="4.07757">
        <ele>196.419677</ele>
        <time>2020-01-17T23:04:16.303Z</time>
      </trkpt>
      <trkpt lat="43.93532" lon="4.07745">
        <ele>197.027361</ele>
        <time>2020-01-17T23:04:22.481Z</time>
      </trkpt>
      <trkpt lat="43.93543" lon="4.07698">
        <ele>199.506928</ele>
        <time>2020-01-17T23:04:46.312Z</time>
      </trkpt>
      <trkpt lat="43.93564" lon="4.07658">
        <ele>201.477173</ele>
        <time>2020-01-17T23:05:08.859Z</time>
      </trkpt>
      <trkpt lat="43.93574" lon="4.07622">
        <ele>202.366316</ele>
        <time>2020-01-17T23:05:25.029Z</time>
      </trkpt>
      <trkpt lat="43.93603" lon="4.07572">
        <ele>203.870484</ele>
        <time>2020-01-17T23:05:51.251Z</time>
      </trkpt>
      <trkpt lat="43.93633" lon="4.07545">
        <ele>205.021769</ele>
        <time>2020-01-17T23:06:08.432Z</time>
      </trkpt>
      <trkpt lat="43.93638" lon="4.07524">
        <ele>205.533935</ele>
        <time>2020-01-17T23:06:15.979Z</time>
      </trkpt>
      <trkpt lat="43.93657" lon="4.07491">
        <ele>206.526666</ele>
        <time>2020-01-17T23:06:30.467Z</time>
      </trkpt>
      <trkpt lat="43.93661" lon="4.07435">
        <ele>207.389491</ele>
        <time>2020-01-17T23:06:49.027Z</time>
      </trkpt>
      <trkpt lat="43.93648" lon="4.0739">
        <ele>208.005063</ele>
        <time>2020-01-17T23:07:05.021Z</time>
      </trkpt>
      <trkpt lat="43.93645" lon="4.07366">
        <ele>208.323708</ele>
        <time>2020-01-17T23:07:11.818Z</time>
      </trkpt>
      <trkpt lat="43.93644" lon="4.07361">
        <ele>208.387644</ele>
        <time>2020-01-17T23:07:14.726Z</time>
      </trkpt>
      <trkpt lat="43.93616" lon="4.0726">
        <ele>209.776334</ele>
        <time>2020-01-17T23:07:50.875Z</time>
      </trkpt>
      <trkpt lat="43.9356" lon="4.07199">
        <ele>210.633362</ele>
        <time>2020-01-17T23:08:23.279Z</time>
      </trkpt>
      <trkpt lat="43.93534" lon="4.07176">
        <ele>210.952331</ele>
        <time>2020-01-17T23:08:37.385Z</time>
      </trkpt>
      <trkpt lat="43.93484" lon="4.07157">
        <ele>211.488608</ele>
        <time>2020-01-17T23:08:59.856Z</time>
      </trkpt>
      <trkpt lat="43.93365" lon="4.07147">
        <ele>210.115524</ele>
        <time>2020-01-17T23:09:42.322Z</time>
      </trkpt>
      <trkpt lat="43.93336" lon="4.07133">
        <ele>209.409777</ele>
        <time>2020-01-17T23:09:52.013Z</time>
      </trkpt>
      <trkpt lat="43.93327" lon="4.07124">
        <ele>209.144651</ele>
        <time>2020-01-17T23:09:55.568Z</time>
      </trkpt>
      <trkpt lat="43.93305" lon="4.07077">
        <ele>208.227138</ele>
        <time>2020-01-17T23:10:07.639Z</time>
      </trkpt>
      <trkpt lat="43.93293" lon="4.06998">
        <ele>205.345273</ele>
        <time>2020-01-17T23:10:24.614Z</time>
      </trkpt>
      <trkpt lat="43.93234" lon="4.06922">
        <ele>200.279893</ele>
        <time>2020-01-17T23:10:46.968Z</time>
      </trkpt>
      <trkpt lat="43.9314" lon="4.06882">
        <ele>193.689611</ele>
        <time>2020-01-17T23:11:13.387Z</time>
      </trkpt>
      <trkpt lat="43.93112" lon="4.06884">
        <ele>191.592789</ele>
        <time>2020-01-17T23:11:20.904Z</time>
      </trkpt>
      <trkpt lat="43.9307" lon="4.06914">
        <ele>188.068693</ele>
        <time>2020-01-17T23:11:33.583Z</time>
      </trkpt>
      <trkpt lat="43.93043" lon="4.06934">
        <ele>185.764185</ele>
        <time>2020-01-17T23:11:41.905Z</time>
      </trkpt>
      <trkpt lat="43.93002" lon="4.06955">
        <ele>182.599932</ele>
        <time>2020-01-17T23:11:53.720Z</time>
      </trkpt>
      <trkpt lat="43.92971" lon="4.06987">
        <ele>180.143048</ele>
        <time>2020-01-17T23:12:04.307Z</time>
      </trkpt>
      <trkpt lat="43.92966" lon="4.06997">
        <ele>179.561434</ele>
        <time>2020-01-17T23:12:06.842Z</time>
      </trkpt>
      <trkpt lat="43.92966" lon="4.07008">
        <ele>179.06045</ele>
        <time>2020-01-17T23:12:09.018Z</time>
      </trkpt>
      <trkpt lat="43.92977" lon="4.0702">
        <ele>178.223626</ele>
        <time>2020-01-17T23:12:12.673Z</time>
      </trkpt>
      <trkpt lat="43.93042" lon="4.07032">
        <ele>174.031029</ele>
        <time>2020-01-17T23:12:31.050Z</time>
      </trkpt>
      <trkpt lat="43.93073" lon="4.07032">
        <ele>172.056306</ele>
        <time>2020-01-17T23:12:39.753Z</time>
      </trkpt>
      <trkpt lat="43.93075" lon="4.07042">
        <ele>171.574805</ele>
        <time>2020-01-17T23:12:41.878Z</time>
      </trkpt>
      <trkpt lat="43.9301" lon="4.07068">
        <ele>167.530869</ele>
        <time>2020-01-17T23:13:00.587Z</time>
      </trkpt>
      <trkpt lat="43.92898" lon="4.07132">
        <ele>160.438312</ele>
        <time>2020-01-17T23:13:34.253Z</time>
      </trkpt>
      <trkpt lat="43.92877" lon="4.07136">
        <ele>159.735873</ele>
        <time>2020-01-17T23:13:40.677Z</time>
      </trkpt>
      <trkpt lat="43.92865" lon="4.07143">
        <ele>159.303554</ele>
        <time>2020-01-17T23:13:44.091Z</time>
      </trkpt>
      <trkpt lat="43.9286" lon="4.07144">
        <ele>159.129196</ele>
        <time>2020-01-17T23:13:45.919Z</time>
      </trkpt>
      <trkpt lat="43.92825" lon="4.07114">
        <ele>157.739097</ele>
        <time>2020-01-17T23:13:58.315Z</time>
      </trkpt>
      <trkpt lat="43.92803" lon="4.07109">
        <ele>156.970452</ele>
        <time>2020-01-17T23:14:05.126Z</time>
      </trkpt>
      <trkpt lat="43.92767" lon="4.07115">
        <ele>155.745102</ele>
        <time>2020-01-17T23:14:16.707Z</time>
      </trkpt>
      <trkpt lat="43.92728" lon="4.07159">
        <ele>154.92243</ele>
        <time>2020-01-17T23:14:33.799Z</time>
      </trkpt>
      <trkpt lat="43.92709" lon="4.07194">
        <ele>155.303082</ele>
        <time>2020-01-17T23:14:46.429Z</time>
      </trkpt>
      <trkpt lat="43.9265" lon="4.07227">
        <ele>156.057691</ele>
        <time>2020-01-17T23:15:13.683Z</time>
      </trkpt>
      <trkpt lat="43.92639" lon="4.07228">
        <ele>156.187965</ele>
        <time>2020-01-17T23:15:18.541Z</time>
      </trkpt>
      <trkpt lat="43.92625" lon="4.07219">
        <ele>156.375854</ele>
        <time>2020-01-17T23:15:25.581Z</time>
      </trkpt>
      <trkpt lat="43.92592" lon="4.07173">
        <ele>157.069534</ele>
        <time>2020-01-17T23:15:49.516Z</time>
      </trkpt>
      <trkpt lat="43.92572" lon="4.07158">
        <ele>157.801217</ele>
        <time>2020-01-17T23:16:02.800Z</time>
      </trkpt>
      <trkpt lat="43.92554" lon="4.07147">
        <ele>158.421132</ele>
        <time>2020-01-17T23:16:12.768Z</time>
      </trkpt>
      <trkpt lat="43.92535" lon="4.07144">
        <ele>159.012308</ele>
        <time>2020-01-17T23:16:21.288Z</time>
      </trkpt>
      <trkpt lat="43.92489" lon="4.07141">
        <ele>160.472413</ele>
        <time>2020-01-17T23:16:39.789Z</time>
      </trkpt>
      <trkpt lat="43.92473" lon="4.0714">
        <ele>160.96799</ele>
        <time>2020-01-17T23:16:45.879Z</time>
      </trkpt>
      <trkpt lat="43.92475" lon="4.07133">
        <ele>161.147851</ele>
        <time>2020-01-17T23:16:49.436Z</time>
      </trkpt>
      <trkpt lat="43.92481" lon="4.07126">
        <ele>161.379602</ele>
        <time>2020-01-17T23:16:52.013Z</time>
      </trkpt>
      <trkpt lat="43.92496" lon="4.07061">
        <ele>162.403912</ele>
        <time>2020-01-17T23:17:10.601Z</time>
      </trkpt>
      <trkpt lat="43.92495" lon="4.07014">
        <ele>162.072793</ele>
        <time>2020-01-17T23:17:21.828Z</time>
      </trkpt>
      <trkpt lat="43.92493" lon="4.06945">
        <ele>161.598536</ele>
        <time>2020-01-17T23:17:34.307Z</time>
      </trkpt>
      <trkpt lat="43.92479" lon="4.06896">
        <ele>161.228681</ele>
        <time>2020-01-17T23:17:41.739Z</time>
      </trkpt>
      <trkpt lat="43.92479" lon="4.06849">
        <ele>160.901026</ele>
        <time>2020-01-17T23:17:47.617Z</time>
      </trkpt>
      <trkpt lat="43.92466" lon="4.06778">
        <ele>157.932501</ele>
        <time>2020-01-17T23:17:56.233Z</time>
      </trkpt>
      <trkpt lat="43.92448" lon="4.06746">
        <ele>155.929779</ele>
        <time>2020-01-17T23:18:00.772Z</time>
      </trkpt>
      <trkpt lat="43.9239" lon="4.06668">
        <ele>150.340492</ele>
        <time>2020-01-17T23:18:13.210Z</time>
      </trkpt>
      <trkpt lat="43.92352" lon="4.06602">
        <ele>146.662008</ele>
        <time>2020-01-17T23:18:22.721Z</time>
      </trkpt>
      <trkpt lat="43.92342" lon="4.06565">
        <ele>145.208511</ele>
        <time>2020-01-17T23:18:27.209Z</time>
      </trkpt>
      <trkpt lat="43.92347" lon="4.06547">
        <ele>144.471292</ele>
        <time>2020-01-17T23:18:29.554Z</time>
      </trkpt>
      <trkpt lat="43.92347" lon="4.06529">
        <ele>143.804522</ele>
        <time>2020-01-17T23:18:31.664Z</time>
      </trkpt>
      <trkpt lat="43.92314" lon="4.06454">
        <ele>140.522855</ele>
        <time>2020-01-17T23:18:42.598Z</time>
      </trkpt>
      <trkpt lat="43.92312" lon="4.06431">
        <ele>139.687627</ele>
        <time>2020-01-17T23:18:45.504Z</time>
      </trkpt>
      <trkpt lat="43.92315" lon="4.06386">
        <ele>138.76916</ele>
        <time>2020-01-17T23:18:51.638Z</time>
      </trkpt>
      <trkpt lat="43.92314" lon="4.06367">
        <ele>138.566316</ele>
        <time>2020-01-17T23:18:54.481Z</time>
      </trkpt>
      <trkpt lat="43.92307" lon="4.06348">
        <ele>138.351102</ele>
        <time>2020-01-17T23:18:57.406Z</time>
      </trkpt>
      <trkpt lat="43.92235" lon="4.0623">
        <ele>136.748236</ele>
        <time>2020-01-17T23:19:20.618Z</time>
      </trkpt>
      <trkpt lat="43.92197" lon="4.062">
        <ele>136.058059</ele>
        <time>2020-01-17T23:19:29.994Z</time>
      </trkpt>
      <trkpt lat="43.92196" lon="4.06186">
        <ele>135.895867</ele>
        <time>2020-01-17T23:19:32.080Z</time>
      </trkpt>
      <trkpt lat="43.92201" lon="4.06172">
        <ele>135.703252</ele>
        <time>2020-01-17T23:19:34.489Z</time>
      </trkpt>
      <trkpt lat="43.9221" lon="4.0616">
        <ele>135.49202</ele>
        <time>2020-01-17T23:19:37.073Z</time>
      </trkpt>
      <trkpt lat="43.92213" lon="4.06147">
        <ele>135.328478</ele>
        <time>2020-01-17T23:19:39.156Z</time>
      </trkpt>
      <trkpt lat="43.92211" lon="4.0613">
        <ele>135.117785</ele>
        <time>2020-01-17T23:19:41.723Z</time>
      </trkpt>
      <trkpt lat="43.922" lon="4.06102">
        <ele>134.732907</ele>
        <time>2020-01-17T23:19:46.139Z</time>
      </trkpt>
      <trkpt lat="43.92188" lon="4.06047">
        <ele>134.044385</ele>
        <time>2020-01-17T23:19:53.913Z</time>
      </trkpt>
      <trkpt lat="43.92186" lon="4.06027">
        <ele>133.804107</ele>
        <time>2020-01-17T23:19:56.616Z</time>
      </trkpt>
      <trkpt lat="43.9219" lon="4.06007">
        <ele>133.554487</ele>
        <time>2020-01-17T23:19:59.436Z</time>
      </trkpt>
      <trkpt lat="43.92175" lon="4.05954">
        <ele>132.816251</ele>
        <time>2020-01-17T23:20:07.208Z</time>
      </trkpt>
      <trkpt lat="43.92169" lon="4.05927">
        <ele>132.449364</ele>
        <time>2020-01-17T23:20:11.143Z</time>
      </trkpt>
      <trkpt lat="43.9217" lon="4.05895">
        <ele>132.035714</ele>
        <time>2020-01-17T23:20:16.774Z</time>
      </trkpt>
      <trkpt lat="43.9218" lon="4.05789">
        <ele>130.654454</ele>
        <time>2020-01-17T23:20:36.435Z</time>
      </trkpt>
      <trkpt lat="43.92167" lon="4.05722">
        <ele>130.299215</ele>
        <time>2020-01-17T23:20:49.768Z</time>
      </trkpt>
      <trkpt lat="43.92153" lon="4.05691">
        <ele>130.358952</ele>
        <time>2020-01-17T23:20:57.065Z</time>
      </trkpt>
      <trkpt lat="43.92146" lon="4.05656">
        <ele>130.419659</ele>
        <time>2020-01-17T23:21:05.811Z</time>
      </trkpt>
      <trkpt lat="43.92081" lon="4.05488">
        <ele>130.671141</ele>
        <time>2020-01-17T23:21:51.314Z</time>
      </trkpt>
      <trkpt lat="43.92078" lon="4.05477">
        <ele>130.676922</ele>
        <time>2020-01-17T23:21:54.726Z</time>
      </trkpt>
      <trkpt lat="43.92075" lon="4.05475">
        <ele>130.678806</ele>
        <time>2020-01-17T23:21:55.426Z</time>
      </trkpt>
      <trkpt lat="43.92024" lon="4.05442">
        <ele>130.715359</ele>
        <time>2020-01-17T23:22:16.606Z</time>
      </trkpt>
      <trkpt lat="43.91962" lon="4.05414">
        <ele>130.757832</ele>
        <time>2020-01-17T23:22:34.375Z</time>
      </trkpt>
      <trkpt lat="43.91926" lon="4.05435">
        <ele>129.918376</ele>
        <time>2020-01-17T23:22:43.953Z</time>
      </trkpt>
      <trkpt lat="43.91924" lon="4.05437">
        <ele>129.853763</ele>
        <time>2020-01-17T23:22:45.088Z</time>
      </trkpt>
      <trkpt lat="43.91917" lon="4.05441">
        <ele>129.659766</ele>
        <time>2020-01-17T23:22:46.279Z</time>
      </trkpt>
      <trkpt lat="43.91886" lon="4.05405">
        <ele>128.512478</ele>
        <time>2020-01-17T23:22:53.468Z</time>
      </trkpt>
      <trkpt lat="43.91882" lon="4.05401">
        <ele>128.385792</ele>
        <time>2020-01-17T23:22:54.214Z</time>
      </trkpt>
      <trkpt lat="43.91816" lon="4.05353">
        <ele>126.286531</ele>
        <time>2020-01-17T23:23:07.976Z</time>
      </trkpt>
      <trkpt lat="43.91806" lon="4.05346">
        <ele>125.986483</ele>
        <time>2020-01-17T23:23:10.046Z</time>
      </trkpt>
      <trkpt lat="43.91807" lon="4.05337">
        <ele>125.80424</ele>
        <time>2020-01-17T23:23:11.249Z</time>
      </trkpt>
      <trkpt lat="43.91796" lon="4.05295">
        <ele>124.838363</ele>
        <time>2020-01-17T23:23:16.985Z</time>
      </trkpt>
      <trkpt lat="43.91784" lon="4.0528">
        <ele>124.323466</ele>
        <time>2020-01-17T23:23:19.880Z</time>
      </trkpt>
      <trkpt lat="43.91767" lon="4.05267">
        <ele>123.744136</ele>
        <time>2020-01-17T23:23:23.265Z</time>
      </trkpt>
      <trkpt lat="43.91758" lon="4.05258">
        <ele>123.402965</ele>
        <time>2020-01-17T23:23:25.094Z</time>
      </trkpt>
      <trkpt lat="43.91749" lon="4.0525">
        <ele>123.089289</ele>
        <time>2020-01-17T23:23:26.898Z</time>
      </trkpt>
      <trkpt lat="43.91696" lon="4.05198">
        <ele>121.088785</ele>
        <time>2020-01-17T23:23:38.366Z</time>
      </trkpt>
      <trkpt lat="43.91689" lon="4.05188">
        <ele>120.768325</ele>
        <time>2020-01-17T23:23:40.314Z</time>
      </trkpt>
      <trkpt lat="43.91666" lon="4.05143">
        <ele>119.934762</ele>
        <time>2020-01-17T23:23:48.491Z</time>
      </trkpt>
      <trkpt lat="43.91663" lon="4.05127">
        <ele>119.773987</ele>
        <time>2020-01-17T23:23:51.351Z</time>
      </trkpt>
      <trkpt lat="43.91662" lon="4.05114">
        <ele>119.640944</ele>
        <time>2020-01-17T23:23:53.974Z</time>
      </trkpt>
      <trkpt lat="43.91668" lon="4.05109">
        <ele>119.536566</ele>
        <time>2020-01-17T23:23:55.471Z</time>
      </trkpt>
      <trkpt lat="43.91676" lon="4.05098">
        <ele>119.388081</ele>
        <time>2020-01-17T23:23:57.518Z</time>
      </trkpt>
      <trkpt lat="43.91679" lon="4.05067">
        <ele>119.079085</ele>
        <time>2020-01-17T23:24:02.268Z</time>
      </trkpt>
      <trkpt lat="43.91679" lon="4.05051">
        <ele>118.91774</ele>
        <time>2020-01-17T23:24:04.409Z</time>
      </trkpt>
      <trkpt lat="43.91678" lon="4.05021">
        <ele>118.619351</ele>
        <time>2020-01-17T23:24:09.000Z</time>
      </trkpt>
      <trkpt lat="43.91676" lon="4.05007">
        <ele>118.480711</ele>
        <time>2020-01-17T23:24:10.780Z</time>
      </trkpt>
      <trkpt lat="43.91649" lon="4.04998">
        <ele>118.095157</ele>
        <time>2020-01-17T23:24:16.301Z</time>
      </trkpt>
      <trkpt lat="43.91498" lon="4.04885">
        <ele>115.753247</ele>
        <time>2020-01-17T23:24:50.682Z</time>
      </trkpt>
      <trkpt lat="43.91402" lon="4.04863">
        <ele>112.981155</ele>
        <time>2020-01-17T23:25:07.697Z</time>
      </trkpt>
      <trkpt lat="43.91353" lon="4.04869">
        <ele>111.214847</ele>
        <time>2020-01-17T23:25:15.904Z</time>
      </trkpt>
      <trkpt lat="43.91264" lon="4.04861">
        <ele>107.980588</ele>
        <time>2020-01-17T23:25:30.243Z</time>
      </trkpt>
      <trkpt lat="43.9125" lon="4.04848">
        <ele>107.391594</ele>
        <time>2020-01-17T23:25:32.898Z</time>
      </trkpt>
      <trkpt lat="43.91241" lon="4.04778">
        <ele>105.538495</ele>
        <time>2020-01-17T23:25:41.448Z</time>
      </trkpt>
      <trkpt lat="43.91215" lon="4.04752">
        <ele>104.404077</ele>
        <time>2020-01-17T23:25:46.768Z</time>
      </trkpt>
      <trkpt lat="43.912" lon="4.04771">
        <ele>103.663647</ele>
        <time>2020-01-17T23:25:53.244Z</time>
      </trkpt>
      <trkpt lat="43.9118" lon="4.04797">
        <ele>102.683164</ele>
        <time>2020-01-17T23:26:01.798Z</time>
      </trkpt>
      <trkpt lat="43.91099" lon="4.04872">
        <ele>102.147574</ele>
        <time>2020-01-17T23:26:33.700Z</time>
      </trkpt>
      <trkpt lat="43.91016" lon="4.04919">
        <ele>101.901671</ele>
        <time>2020-01-17T23:27:12.007Z</time>
      </trkpt>
      <trkpt lat="43.90976" lon="4.04991">
        <ele>104.29975</ele>
        <time>2020-01-17T23:27:43.777Z</time>
      </trkpt>
      <trkpt lat="43.90996" lon="4.05021">
        <ele>105.395327</ele>
        <time>2020-01-17T23:27:59.359Z</time>
      </trkpt>
      <trkpt lat="43.90996" lon="4.05021">
        <ele>105.401876</ele>
        <time>2020-01-17T23:27:59.612Z</time>
      </trkpt>
      <trkpt lat="43.90992" lon="4.05113">
        <ele>107.89096</ele>
        <time>2020-01-17T23:28:39.993Z</time>
      </trkpt>
      <trkpt lat="43.90973" lon="4.05143">
        <ele>109.335132</ele>
        <time>2020-01-17T23:28:59.052Z</time>
      </trkpt>
      <trkpt lat="43.90962" lon="4.05193">
        <ele>112.290373</ele>
        <time>2020-01-17T23:29:24.855Z</time>
      </trkpt>
      <trkpt lat="43.90981" lon="4.05225">
        <ele>114.643562</ele>
        <time>2020-01-17T23:29:46.649Z</time>
      </trkpt>
      <trkpt lat="43.9107" lon="4.05261">
        <ele>122.070974</ele>
        <time>2020-01-17T23:31:02.221Z</time>
      </trkpt>
      <trkpt lat="43.91117" lon="4.05302">
        <ele>127.426285</ele>
        <time>2020-01-17T23:31:50.170Z</time>
      </trkpt>
      <trkpt lat="43.91189" lon="4.05285">
        <ele>134.946054</ele>
        <time>2020-01-17T23:32:56.948Z</time>
      </trkpt>
      <trkpt lat="43.91188" lon="4.05268">
        <ele>136.211437</ele>
        <time>2020-01-17T23:33:08.322Z</time>
      </trkpt>
      <trkpt lat="43.91169" lon="4.05261">
        <ele>138.167168</ele>
        <time>2020-01-17T23:33:25.440Z</time>
      </trkpt>
      <trkpt lat="43.91143" lon="4.05234">
        <ele>141.48507</ele>
        <time>2020-01-17T23:33:55.105Z</time>
      </trkpt>
      <trkpt lat="43.91132" lon="4.05197">
        <ele>143.817333</ele>
        <time>2020-01-17T23:34:20.376Z</time>
      </trkpt>
      <trkpt lat="43.91146" lon="4.05184">
        <ele>145.192393</ele>
        <time>2020-01-17T23:34:34.901Z</time>
      </trkpt>
      <trkpt lat="43.91284" lon="4.05176">
        <ele>156.229061</ele>
        <time>2020-01-17T23:36:19.964Z</time>
      </trkpt>
      <trkpt lat="43.91321" lon="4.05191">
        <ele>157.489035</ele>
        <time>2020-01-17T23:36:43.974Z</time>
      </trkpt>
      <trkpt lat="43.91363" lon="4.05184">
        <ele>158.857016</ele>
        <time>2020-01-17T23:37:07.815Z</time>
      </trkpt>
      <trkpt lat="43.91401" lon="4.0536">
        <ele>161.906171</ele>
        <time>2020-01-17T23:38:06.408Z</time>
      </trkpt>
      <trkpt lat="43.914" lon="4.05392">
        <ele>161.90816</ele>
        <time>2020-01-17T23:38:14.729Z</time>
      </trkpt>
      <trkpt lat="43.9144" lon="4.05442">
        <ele>161.912752</ele>
        <time>2020-01-17T23:38:33.869Z</time>
      </trkpt>
      <trkpt lat="43.91475" lon="4.05508">
        <ele>161.917856</ele>
        <time>2020-01-17T23:38:55.388Z</time>
      </trkpt>
      <trkpt lat="43.91497" lon="4.05584">
        <ele>160.520636</ele>
        <time>2020-01-17T23:39:16.238Z</time>
      </trkpt>
      <trkpt lat="43.91497" lon="4.05584">
        <ele>160.520636</ele>
        <time>2020-01-17T23:39:16.359Z</time>
      </trkpt>
      <trkpt lat="43.91506" lon="4.05618">
        <ele>159.853398</ele>
        <time>2020-01-17T23:39:25.194Z</time>
      </trkpt>
      <trkpt lat="43.91562" lon="4.05683">
        <ele>157.973472</ele>
        <time>2020-01-17T23:39:47.454Z</time>
      </trkpt>
      <trkpt lat="43.91586" lon="4.05733">
        <ele>156.302312</ele>
        <time>2020-01-17T23:39:59.638Z</time>
      </trkpt>
      <trkpt lat="43.91596" lon="4.05756">
        <ele>155.139304</ele>
        <time>2020-01-17T23:40:05.861Z</time>
      </trkpt>
      <trkpt lat="43.91591" lon="4.0577">
        <ele>154.469273</ele>
        <time>2020-01-17T23:40:07.711Z</time>
      </trkpt>
      <trkpt lat="43.91589" lon="4.05775">
        <ele>154.195285</ele>
        <time>2020-01-17T23:40:08.350Z</time>
      </trkpt>
      <trkpt lat="43.916" lon="4.05851">
        <ele>150.854465</ele>
        <time>2020-01-17T23:40:17.492Z</time>
      </trkpt>
      <trkpt lat="43.91596" lon="4.05878">
        <ele>149.669485</ele>
        <time>2020-01-17T23:40:20.494Z</time>
      </trkpt>
      <trkpt lat="43.91586" lon="4.05901">
        <ele>148.477047</ele>
        <time>2020-01-17T23:40:23.765Z</time>
      </trkpt>
      <trkpt lat="43.91569" lon="4.05924">
        <ele>147.079637</ele>
        <time>2020-01-17T23:40:27.328Z</time>
      </trkpt>
      <trkpt lat="43.91562" lon="4.05945">
        <ele>146.201461</ele>
        <time>2020-01-17T23:40:30.053Z</time>
      </trkpt>
      <trkpt lat="43.91559" lon="4.05982">
        <ele>145.109753</ele>
        <time>2020-01-17T23:40:34.257Z</time>
      </trkpt>
      <trkpt lat="43.91538" lon="4.06039">
        <ele>143.219491</ele>
        <time>2020-01-17T23:40:42.099Z</time>
      </trkpt>
      <trkpt lat="43.91532" lon="4.06079">
        <ele>142.033501</ele>
        <time>2020-01-17T23:40:47.214Z</time>
      </trkpt>
      <trkpt lat="43.91512" lon="4.06133">
        <ele>140.246417</ele>
        <time>2020-01-17T23:40:55.109Z</time>
      </trkpt>
      <trkpt lat="43.91501" lon="4.06188">
        <ele>139.341621</ele>
        <time>2020-01-17T23:41:03.187Z</time>
      </trkpt>
      <trkpt lat="43.915" lon="4.06198">
        <ele>139.432134</ele>
        <time>2020-01-17T23:41:05.022Z</time>
      </trkpt>
      <trkpt lat="43.91506" lon="4.0622">
        <ele>139.628526</ele>
        <time>2020-01-17T23:41:08.482Z</time>
      </trkpt>
      <trkpt lat="43.91508" lon="4.0623">
        <ele>139.718979</ele>
        <time>2020-01-17T23:41:10.030Z</time>
      </trkpt>
      <trkpt lat="43.91517" lon="4.06276">
        <ele>140.130907</ele>
        <time>2020-01-17T23:41:18.557Z</time>
      </trkpt>
      <trkpt lat="43.91511" lon="4.06336">
        <ele>140.650186</ele>
        <time>2020-01-17T23:41:32.001Z</time>
      </trkpt>
      <trkpt lat="43.91416" lon="4.06447">
        <ele>144.797659</ele>
        <time>2020-01-17T23:42:24.140Z</time>
      </trkpt>
      <trkpt lat="43.91366" lon="4.06575">
        <ele>150.17594</ele>
        <time>2020-01-17T23:43:20.478Z</time>
      </trkpt>
      <trkpt lat="43.91346" lon="4.06647">
        <ele>152.450436</ele>
        <time>2020-01-17T23:43:50.007Z</time>
      </trkpt>
      <trkpt lat="43.91332" lon="4.06673">
        <ele>153.367511</ele>
        <time>2020-01-17T23:44:01.574Z</time>
      </trkpt>
      <trkpt lat="43.91316" lon="4.06726">
        <ele>154.987016</ele>
        <time>2020-01-17T23:44:19.699Z</time>
      </trkpt>
      <trkpt lat="43.91274" lon="4.06804">
        <ele>157.642768</ele>
        <time>2020-01-17T23:44:44.302Z</time>
      </trkpt>
      <trkpt lat="43.91246" lon="4.06834">
        <ele>158.036648</ele>
        <time>2020-01-17T23:44:54.038Z</time>
      </trkpt>
      <trkpt lat="43.91241" lon="4.06856">
        <ele>158.220191</ele>
        <time>2020-01-17T23:44:57.945Z</time>
      </trkpt>
      <trkpt lat="43.91259" lon="4.0696">
        <ele>159.078215</ele>
        <time>2020-01-17T23:45:16.414Z</time>
      </trkpt>
      <trkpt lat="43.91229" lon="4.07036">
        <ele>160.156535</ele>
        <time>2020-01-17T23:45:35.287Z</time>
      </trkpt>
      <trkpt lat="43.91223" lon="4.07064">
        <ele>160.90016</ele>
        <time>2020-01-17T23:45:43.654Z</time>
      </trkpt>
      <trkpt lat="43.91188" lon="4.07119">
        <ele>162.776083</ele>
        <time>2020-01-17T23:46:07.020Z</time>
      </trkpt>
      <trkpt lat="43.91153" lon="4.07142">
        <ele>164.170103</ele>
        <time>2020-01-17T23:46:25.858Z</time>
      </trkpt>
      <trkpt lat="43.91154" lon="4.07153">
        <ele>164.448226</ele>
        <time>2020-01-17T23:46:30.081Z</time>
      </trkpt>
      <trkpt lat="43.91128" lon="4.07163">
        <ele>165.412191</ele>
        <time>2020-01-17T23:46:40.463Z</time>
      </trkpt>
      <trkpt lat="43.91084" lon="4.07191">
        <ele>166.139638</ele>
        <time>2020-01-17T23:46:59.942Z</time>
      </trkpt>
      <trkpt lat="43.91082" lon="4.07192">
        <ele>166.1529</ele>
        <time>2020-01-17T23:47:02.820Z</time>
      </trkpt>
      <trkpt lat="43.91065" lon="4.07178">
        <ele>166.248659</ele>
        <time>2020-01-17T23:47:10.135Z</time>
      </trkpt>
      <trkpt lat="43.91061" lon="4.07157">
        <ele>166.325845</ele>
        <time>2020-01-17T23:47:19.186Z</time>
      </trkpt>
      <trkpt lat="43.91059" lon="4.07127">
        <ele>166.435953</ele>
        <time>2020-01-17T23:47:27.818Z</time>
      </trkpt>
      <trkpt lat="43.91062" lon="4.07103">
        <ele>166.521938</ele>
        <time>2020-01-17T23:47:37.557Z</time>
      </trkpt>
      <trkpt lat="43.91067" lon="4.07092">
        <ele>166.56879</ele>
        <time>2020-01-17T23:47:41.051Z</time>
      </trkpt>
      <trkpt lat="43.9107" lon="4.07087">
        <ele>166.591763</ele>
        <time>2020-01-17T23:47:42.260Z</time>
      </trkpt>
      <trkpt lat="43.91092" lon="4.07058">
        <ele>166.740404</ele>
        <time>2020-01-17T23:47:52.756Z</time>
      </trkpt>
      <trkpt lat="43.91099" lon="4.07032">
        <ele>166.841607</ele>
        <time>2020-01-17T23:47:58.652Z</time>
      </trkpt>
      <trkpt lat="43.91089" lon="4.07007">
        <ele>166.170337</ele>
        <time>2020-01-17T23:48:05.158Z</time>
      </trkpt>
      <trkpt lat="43.91063" lon="4.0697">
        <ele>164.317774</ele>
        <time>2020-01-17T23:48:15.649Z</time>
      </trkpt>
      <trkpt lat="43.91045" lon="4.06934">
        <ele>162.738767</ele>
        <time>2020-01-17T23:48:24.806Z</time>
      </trkpt>
      <trkpt lat="43.9103" lon="4.06913">
        <ele>161.674717</ele>
        <time>2020-01-17T23:48:30.657Z</time>
      </trkpt>
      <trkpt lat="43.90999" lon="4.06865">
        <ele>159.385611</ele>
        <time>2020-01-17T23:48:43.861Z</time>
      </trkpt>
      <trkpt lat="43.90974" lon="4.06797">
        <ele>156.942187</ele>
        <time>2020-01-17T23:48:59.590Z</time>
      </trkpt>
      <trkpt lat="43.909" lon="4.06677">
        <ele>152.626651</ele>
        <time>2020-01-17T23:49:33.346Z</time>
      </trkpt>
      <trkpt lat="43.90865" lon="4.06672">
        <ele>151.27747</ele>
        <time>2020-01-17T23:49:44.670Z</time>
      </trkpt>
      <trkpt lat="43.90818" lon="4.06717">
        <ele>152.154769</ele>
        <time>2020-01-17T23:50:03.961Z</time>
      </trkpt>
      <trkpt lat="43.90772" lon="4.06784">
        <ele>153.48136</ele>
        <time>2020-01-17T23:50:34.751Z</time>
      </trkpt>
      <trkpt lat="43.90739" lon="4.0682">
        <ele>154.312894</ele>
        <time>2020-01-17T23:50:59.945Z</time>
      </trkpt>
      <trkpt lat="43.90734" lon="4.06852">
        <ele>155.023191</ele>
        <time>2020-01-17T23:51:15.606Z</time>
      </trkpt>
      <trkpt lat="43.90724" lon="4.06872">
        <ele>156.338425</ele>
        <time>2020-01-17T23:51:27.297Z</time>
      </trkpt>
      <trkpt lat="43.90698" lon="4.06891">
        <ele>158.590047</ele>
        <time>2020-01-17T23:51:48.534Z</time>
      </trkpt>
      <trkpt lat="43.90704" lon="4.06996">
        <ele>164.451167</ele>
        <time>2020-01-17T23:52:46.844Z</time>
      </trkpt>
      <trkpt lat="43.90722" lon="4.07071">
        <ele>168.82235</ele>
        <time>2020-01-17T23:53:36.025Z</time>
      </trkpt>
      <trkpt lat="43.9079" lon="4.07168">
        <ele>175.876088</ele>
        <time>2020-01-17T23:54:51.674Z</time>
      </trkpt>
      <trkpt lat="43.9081" lon="4.07177">
        <ele>177.419725</ele>
        <time>2020-01-17T23:55:07.139Z</time>
      </trkpt>
      <trkpt lat="43.90834" lon="4.07199">
        <ele>179.490629</ele>
        <time>2020-01-17T23:55:26.046Z</time>
      </trkpt>
      <trkpt lat="43.90845" lon="4.07216">
        <ele>180.666477</ele>
        <time>2020-01-17T23:55:36.056Z</time>
      </trkpt>
      <trkpt lat="43.90849" lon="4.07239">
        <ele>181.702792</ele>
        <time>2020-01-17T23:55:47.120Z</time>
      </trkpt>
      <trkpt lat="43.90844" lon="4.07261">
        <ele>182.2627</ele>
        <time>2020-01-17T23:55:57.609Z</time>
      </trkpt>
      <trkpt lat="43.90827" lon="4.07285">
        <ele>183.048463</ele>
        <time>2020-01-17T23:56:12.750Z</time>
      </trkpt>
      <trkpt lat="43.90797" lon="4.07294">
        <ele>184.027363</ele>
        <time>2020-01-17T23:56:30.254Z</time>
      </trkpt>
      <trkpt lat="43.9074" lon="4.07297">
        <ele>185.901991</ele>
        <time>2020-01-17T23:57:00.168Z</time>
      </trkpt>
      <trkpt lat="43.90569" lon="4.07248">
        <ele>186.905582</ele>
        <time>2020-01-17T23:58:12.854Z</time>
      </trkpt>
      <trkpt lat="43.90538" lon="4.07228">
        <ele>186.771377</ele>
        <time>2020-01-17T23:58:23.999Z</time>
      </trkpt>
      <trkpt lat="43.90491" lon="4.07178">
        <ele>183.460692</ele>
        <time>2020-01-17T23:58:41.798Z</time>
      </trkpt>
      <trkpt lat="43.90448" lon="4.07205">
        <ele>179.872086</ele>
        <time>2020-01-17T23:58:54.593Z</time>
      </trkpt>
      <trkpt lat="43.90414" lon="4.07212">
        <ele>177.242935</ele>
        <time>2020-01-17T23:59:03.508Z</time>
      </trkpt>
      <trkpt lat="43.90377" lon="4.07232">
        <ele>174.123649</ele>
        <time>2020-01-17T23:59:13.852Z</time>
      </trkpt>
      <trkpt lat="43.90325" lon="4.07268">
        <ele>167.589031</ele>
        <time>2020-01-17T23:59:28.293Z</time>
      </trkpt>
      <trkpt lat="43.90297" lon="4.073">
        <ele>162.911105</ele>
        <time>2020-01-17T23:59:37.359Z</time>
      </trkpt>
      <trkpt lat="43.90287" lon="4.07319">
        <ele>160.70773</ele>
        <time>2020-01-17T23:59:41.620Z</time>
      </trkpt>
      <trkpt lat="43.9028" lon="4.07373">
        <ele>155.722206</ele>
        <time>2020-01-17T23:59:51.223Z</time>
      </trkpt>
      <trkpt lat="43.90271" lon="4.07399">
        <ele>153.013877</ele>
        <time>2020-01-17T23:59:56.415Z</time>
      </trkpt>
      <trkpt lat="43.90182" lon="4.07448">
        <ele>140.748631</ele>
        <time>2020-01-18T00:00:19.911Z</time>
      </trkpt>
      <trkpt lat="43.90164" lon="4.0745">
        <ele>138.392531</ele>
        <time>2020-01-18T00:00:24.430Z</time>
      </trkpt>
      <trkpt lat="43.90155" lon="4.0746">
        <ele>136.88608</ele>
        <time>2020-01-18T00:00:27.306Z</time>
      </trkpt>
      <trkpt lat="43.90146" lon="4.07484">
        <ele>134.411096</ele>
        <time>2020-01-18T00:00:32.070Z</time>
      </trkpt>
      <trkpt lat="43.90109" lon="4.07525">
        <ele>128.273926</ele>
        <time>2020-01-18T00:00:43.813Z</time>
      </trkpt>
      <trkpt lat="43.90083" lon="4.07574">
        <ele>123.292115</ele>
        <time>2020-01-18T00:00:54.774Z</time>
      </trkpt>
      <trkpt lat="43.90071" lon="4.07583">
        <ele>121.802174</ele>
        <time>2020-01-18T00:00:58.380Z</time>
      </trkpt>
      <trkpt lat="43.90046" lon="4.07575">
        <ele>119.055583</ele>
        <time>2020-01-18T00:01:04.868Z</time>
      </trkpt>
      <trkpt lat="43.90049" lon="4.07612">
        <ele>116.155978</ele>
        <time>2020-01-18T00:01:11.906Z</time>
      </trkpt>
      <trkpt lat="43.90049" lon="4.07613">
        <ele>116.078219</ele>
        <time>2020-01-18T00:01:12.095Z</time>
      </trkpt>
      <trkpt lat="43.90067" lon="4.07658">
        <ele>112.09163</ele>
        <time>2020-01-18T00:01:21.605Z</time>
      </trkpt>
      <trkpt lat="43.90057" lon="4.07688">
        <ele>109.513262</ele>
        <time>2020-01-18T00:01:27.947Z</time>
      </trkpt>
      <trkpt lat="43.90062" lon="4.07704">
        <ele>108.191177</ele>
        <time>2020-01-18T00:01:31.058Z</time>
      </trkpt>
      <trkpt lat="43.90111" lon="4.07727">
        <ele>104.149186</ele>
        <time>2020-01-18T00:01:44.668Z</time>
      </trkpt>
      <trkpt lat="43.90125" lon="4.07763">
        <ele>101.906256</ele>
        <time>2020-01-18T00:01:52.792Z</time>
      </trkpt>
      <trkpt lat="43.90134" lon="4.07782">
        <ele>100.736332</ele>
        <time>2020-01-18T00:01:55.289Z</time>
      </trkpt>
      <trkpt lat="43.90136" lon="4.07796">
        <ele>99.960935</ele>
        <time>2020-01-18T00:01:56.924Z</time>
      </trkpt>
      <trkpt lat="43.90131" lon="4.07891">
        <ele>94.873107</ele>
        <time>2020-01-18T00:02:07.848Z</time>
      </trkpt>
      <trkpt lat="43.90125" lon="4.07929">
        <ele>93.125317</ele>
        <time>2020-01-18T00:02:12.396Z</time>
      </trkpt>
      <trkpt lat="43.90126" lon="4.07952">
        <ele>92.243271</ele>
        <time>2020-01-18T00:02:14.968Z</time>
      </trkpt>
      <trkpt lat="43.90131" lon="4.07977">
        <ele>91.225111</ele>
        <time>2020-01-18T00:02:18.082Z</time>
      </trkpt>
      <trkpt lat="43.90129" lon="4.07999">
        <ele>90.356202</ele>
        <time>2020-01-18T00:02:20.659Z</time>
      </trkpt>
      <trkpt lat="43.90117" lon="4.08038">
        <ele>88.700661</ele>
        <time>2020-01-18T00:02:25.839Z</time>
      </trkpt>
      <trkpt lat="43.90067" lon="4.08156">
        <ele>83.494682</ele>
        <time>2020-01-18T00:02:42.399Z</time>
      </trkpt>
      <trkpt lat="43.90054" lon="4.08185">
        <ele>82.375171</ele>
        <time>2020-01-18T00:02:46.316Z</time>
      </trkpt>
      <trkpt lat="43.90028" lon="4.08257">
        <ele>79.664484</ele>
        <time>2020-01-18T00:02:56.316Z</time>
      </trkpt>
      <trkpt lat="43.9001" lon="4.08284">
        <ele>78.428371</ele>
        <time>2020-01-18T00:03:00.883Z</time>
      </trkpt>
      <trkpt lat="43.90005" lon="4.08288">
        <ele>78.154703</ele>
        <time>2020-01-18T00:03:01.811Z</time>
      </trkpt>
      <trkpt lat="43.89994" lon="4.08362">
        <ele>75.621786</ele>
        <time>2020-01-18T00:03:11.124Z</time>
      </trkpt>
      <trkpt lat="43.90022" lon="4.08409">
        <ele>73.645373</ele>
        <time>2020-01-18T00:03:18.460Z</time>
      </trkpt>
      <trkpt lat="43.90019" lon="4.08429">
        <ele>72.9553</ele>
        <time>2020-01-18T00:03:21.005Z</time>
      </trkpt>
      <trkpt lat="43.90027" lon="4.08452">
        <ele>72.129494</ele>
        <time>2020-01-18T00:03:24.037Z</time>
      </trkpt>
      <trkpt lat="43.90039" lon="4.08492">
        <ele>70.704489</ele>
        <time>2020-01-18T00:03:29.348Z</time>
      </trkpt>
      <trkpt lat="43.90062" lon="4.08524">
        <ele>69.244311</ele>
        <time>2020-01-18T00:03:34.919Z</time>
      </trkpt>
      <trkpt lat="43.90065" lon="4.08535">
        <ele>68.85013</ele>
        <time>2020-01-18T00:03:36.343Z</time>
      </trkpt>
      <trkpt lat="43.90066" lon="4.08546">
        <ele>68.499871</ele>
        <time>2020-01-18T00:03:37.696Z</time>
      </trkpt>
      <trkpt lat="43.90057" lon="4.08583">
        <ele>67.396378</ele>
        <time>2020-01-18T00:03:42.697Z</time>
      </trkpt>
      <trkpt lat="43.9006" lon="4.08592">
        <ele>67.16418</ele>
        <time>2020-01-18T00:03:43.920Z</time>
      </trkpt>
      <trkpt lat="43.90063" lon="4.08598">
        <ele>67.009653</ele>
        <time>2020-01-18T00:03:44.739Z</time>
      </trkpt>
      <trkpt lat="43.90063" lon="4.08619">
        <ele>66.553499</ele>
        <time>2020-01-18T00:03:47.231Z</time>
      </trkpt>
      <trkpt lat="43.90054" lon="4.08674">
        <ele>65.26802</ele>
        <time>2020-01-18T00:03:54.218Z</time>
      </trkpt>
      <trkpt lat="43.90054" lon="4.08689">
        <ele>64.931331</ele>
        <time>2020-01-18T00:03:56.009Z</time>
      </trkpt>
      <trkpt lat="43.90057" lon="4.0871">
        <ele>64.456284</ele>
        <time>2020-01-18T00:03:58.732Z</time>
      </trkpt>
      <trkpt lat="43.90059" lon="4.08721">
        <ele>64.207212</ele>
        <time>2020-01-18T00:04:00.111Z</time>
      </trkpt>
      <trkpt lat="43.90054" lon="4.08736">
        <ele>63.834938</ele>
        <time>2020-01-18T00:04:02.096Z</time>
      </trkpt>
      <trkpt lat="43.90047" lon="4.08736">
        <ele>63.635565</ele>
        <time>2020-01-18T00:04:03.237Z</time>
      </trkpt>
      <trkpt lat="43.90038" lon="4.08763">
        <ele>62.953077</ele>
        <time>2020-01-18T00:04:07.504Z</time>
      </trkpt>
      <trkpt lat="43.89989" lon="4.08811">
        <ele>61.625531</ele>
        <time>2020-01-18T00:04:19.088Z</time>
      </trkpt>
      <trkpt lat="43.89906" lon="4.08918">
        <ele>59.77602</ele>
        <time>2020-01-18T00:04:41.406Z</time>
      </trkpt>
      <trkpt lat="43.89883" lon="4.08967">
        <ele>59.18021</ele>
        <time>2020-01-18T00:04:49.901Z</time>
      </trkpt>
      <trkpt lat="43.89854" lon="4.09037">
        <ele>58.679575</ele>
        <time>2020-01-18T00:05:01.912Z</time>
      </trkpt>
      <trkpt lat="43.89847" lon="4.09043">
        <ele>58.602528</ele>
        <time>2020-01-18T00:05:04.898Z</time>
      </trkpt>
      <trkpt lat="43.89836" lon="4.09041">
        <ele>58.508996</ele>
        <time>2020-01-18T00:05:08.698Z</time>
      </trkpt>
      <trkpt lat="43.89813" lon="4.09016">
        <ele>58.257345</ele>
        <time>2020-01-18T00:05:18.782Z</time>
      </trkpt>
      <trkpt lat="43.89762" lon="4.09">
        <ele>57.807388</ele>
        <time>2020-01-18T00:05:37.364Z</time>
      </trkpt>
      <trkpt lat="43.89761" lon="4.08999">
        <ele>57.798264</ele>
        <time>2020-01-18T00:05:37.697Z</time>
      </trkpt>
      <trkpt lat="43.89701" lon="4.08968">
        <ele>58.213799</ele>
        <time>2020-01-18T00:06:01.484Z</time>
      </trkpt>
      <trkpt lat="43.8969" lon="4.08951">
        <ele>58.35109</ele>
        <time>2020-01-18T00:06:08.211Z</time>
      </trkpt>
      <trkpt lat="43.89681" lon="4.08949">
        <ele>58.432578</ele>
        <time>2020-01-18T00:06:12.104Z</time>
      </trkpt>
      <trkpt lat="43.89673" lon="4.08953">
        <ele>58.502902</ele>
        <time>2020-01-18T00:06:15.377Z</time>
      </trkpt>
      <trkpt lat="43.89669" lon="4.08965">
        <ele>58.584916</ele>
        <time>2020-01-18T00:06:19.221Z</time>
      </trkpt>
      <trkpt lat="43.89668" lon="4.08973">
        <ele>58.634354</ele>
        <time>2020-01-18T00:06:22.035Z</time>
      </trkpt>
      <trkpt lat="43.89691" lon="4.09004">
        <ele>58.900492</ele>
        <time>2020-01-18T00:06:35.298Z</time>
      </trkpt>
      <trkpt lat="43.89806" lon="4.09132">
        <ele>62.086197</ele>
        <time>2020-01-18T00:07:46.808Z</time>
      </trkpt>
      <trkpt lat="43.89818" lon="4.09152">
        <ele>62.569929</ele>
        <time>2020-01-18T00:07:56.459Z</time>
      </trkpt>
      <trkpt lat="43.89816" lon="4.09163">
        <ele>62.800768</ele>
        <time>2020-01-18T00:08:00.928Z</time>
      </trkpt>
      <trkpt lat="43.8973" lon="4.09214">
        <ele>65.782621</ele>
        <time>2020-01-18T00:08:51.293Z</time>
      </trkpt>
      <trkpt lat="43.8973" lon="4.09215">
        <ele>65.79355</ele>
        <time>2020-01-18T00:08:51.635Z</time>
      </trkpt>
      <trkpt lat="43.89721" lon="4.09233">
        <ele>66.380034</ele>
        <time>2020-01-18T00:09:00.251Z</time>
      </trkpt>
      <trkpt lat="43.89711" lon="4.09264">
        <ele>67.274</ele>
        <time>2020-01-18T00:09:13.989Z</time>
      </trkpt>
      <trkpt lat="43.89712" lon="4.09352">
        <ele>69.638296</ele>
        <time>2020-01-18T00:09:50.202Z</time>
      </trkpt>
      <trkpt lat="43.89706" lon="4.09389">
        <ele>70.651526</ele>
        <time>2020-01-18T00:10:05.766Z</time>
      </trkpt>
      <trkpt lat="43.89689" lon="4.09466">
        <ele>72.700561</ele>
        <time>2020-01-18T00:10:38.301Z</time>
      </trkpt>
      <trkpt lat="43.89652" lon="4.09563">
        <ele>75.484818</ele>
        <time>2020-01-18T00:11:21.521Z</time>
      </trkpt>
      <trkpt lat="43.89643" lon="4.09609">
        <ele>76.696477</ele>
        <time>2020-01-18T00:11:39.991Z</time>
      </trkpt>
      <trkpt lat="43.89644" lon="4.09628">
        <ele>77.14945</ele>
        <time>2020-01-18T00:11:47.001Z</time>
      </trkpt>
      <trkpt lat="43.8966" lon="4.09661">
        <ele>77.981348</ele>
        <time>2020-01-18T00:12:02.029Z</time>
      </trkpt>
      <trkpt lat="43.8966" lon="4.09674">
        <ele>78.25578</ele>
        <time>2020-01-18T00:12:06.913Z</time>
      </trkpt>
      <trkpt lat="43.89647" lon="4.09703">
        <ele>78.962389</ele>
        <time>2020-01-18T00:12:19.644Z</time>
      </trkpt>
      <trkpt lat="43.89647" lon="4.09703">
        <ele>78.962389</ele>
        <time>2020-01-18T00:12:19.654Z</time>
      </trkpt>
      <trkpt lat="43.89645" lon="4.09701">
        <ele>79.020955</ele>
        <time>2020-01-18T00:12:20.175Z</time>
      </trkpt>
      <trkpt lat="43.8961" lon="4.09782">
        <ele>80.999519</ele>
        <time>2020-01-18T00:12:37.812Z</time>
      </trkpt>
      <trkpt lat="43.89603" lon="4.09794">
        <ele>81.322954</ele>
        <time>2020-01-18T00:12:40.693Z</time>
      </trkpt>
      <trkpt lat="43.89595" lon="4.09803">
        <ele>81.622352</ele>
        <time>2020-01-18T00:12:43.359Z</time>
      </trkpt>
      <trkpt lat="43.89593" lon="4.0981">
        <ele>81.780103</ele>
        <time>2020-01-18T00:12:44.766Z</time>
      </trkpt>
      <trkpt lat="43.8959" lon="4.09816">
        <ele>81.933092</ele>
        <time>2020-01-18T00:12:46.129Z</time>
      </trkpt>
      <trkpt lat="43.89591" lon="4.09821">
        <ele>82.041798</ele>
        <time>2020-01-18T00:12:47.099Z</time>
      </trkpt>
      <trkpt lat="43.89596" lon="4.09855">
        <ele>82.818997</ele>
        <time>2020-01-18T00:12:53.584Z</time>
      </trkpt>
      <trkpt lat="43.89596" lon="4.09858">
        <ele>82.888169</ele>
        <time>2020-01-18T00:12:54.145Z</time>
      </trkpt>
      <trkpt lat="43.89597" lon="4.09877">
        <ele>83.327422</ele>
        <time>2020-01-18T00:12:57.705Z</time>
      </trkpt>
      <trkpt lat="43.89598" lon="4.09892">
        <ele>83.674757</ele>
        <time>2020-01-18T00:13:00.521Z</time>
      </trkpt>
      <trkpt lat="43.89599" lon="4.09902">
        <ele>83.907539</ele>
        <time>2020-01-18T00:13:02.408Z</time>
      </trkpt>
      <trkpt lat="43.89599" lon="4.09927">
        <ele>84.483969</ele>
        <time>2020-01-18T00:13:07.081Z</time>
      </trkpt>
      <trkpt lat="43.896" lon="4.09957">
        <ele>85.176425</ele>
        <time>2020-01-18T00:13:12.695Z</time>
      </trkpt>
      <trkpt lat="43.896" lon="4.09965">
        <ele>85.360882</ele>
        <time>2020-01-18T00:13:14.190Z</time>
      </trkpt>
      <trkpt lat="43.89601" lon="4.09977">
        <ele>85.639412</ele>
        <time>2020-01-18T00:13:16.448Z</time>
      </trkpt>
      <trkpt lat="43.89601" lon="4.09995">
        <ele>86.054442</ele>
        <time>2020-01-18T00:13:19.813Z</time>
      </trkpt>
      <trkpt lat="43.89602" lon="4.10002">
        <ele>86.218983</ele>
        <time>2020-01-18T00:13:21.147Z</time>
      </trkpt>
      <trkpt lat="43.89603" lon="4.10032">
        <ele>86.911438</ele>
        <time>2020-01-18T00:13:26.761Z</time>
      </trkpt>
      <trkpt lat="43.89605" lon="4.10042">
        <ele>87.150726</ele>
        <time>2020-01-18T00:13:28.701Z</time>
      </trkpt>
      <trkpt lat="43.89606" lon="4.10045">
        <ele>87.22694</ele>
        <time>2020-01-18T00:13:29.318Z</time>
      </trkpt>
      <trkpt lat="43.89616" lon="4.10065">
        <ele>87.78822</ele>
        <time>2020-01-18T00:13:33.864Z</time>
      </trkpt>
      <trkpt lat="43.89619" lon="4.1007">
        <ele>87.938237</ele>
        <time>2020-01-18T00:13:35.078Z</time>
      </trkpt>
      <trkpt lat="43.8962" lon="4.10083">
        <ele>88.299205</ele>
        <time>2020-01-18T00:13:37.522Z</time>
      </trkpt>
      <trkpt lat="43.89618" lon="4.10099">
        <ele>88.777236</ele>
        <time>2020-01-18T00:13:40.558Z</time>
      </trkpt>
      <trkpt lat="43.89614" lon="4.10119">
        <ele>89.388239</ele>
        <time>2020-01-18T00:13:44.437Z</time>
      </trkpt>
      <trkpt lat="43.8961" lon="4.10127">
        <ele>89.674877</ele>
        <time>2020-01-18T00:13:46.256Z</time>
      </trkpt>
      <trkpt lat="43.89607" lon="4.10131">
        <ele>89.844831</ele>
        <time>2020-01-18T00:13:47.333Z</time>
      </trkpt>
      <trkpt lat="43.89605" lon="4.10135">
        <ele>89.98815</ele>
        <time>2020-01-18T00:13:48.242Z</time>
      </trkpt>
      <trkpt lat="43.89589" lon="4.10176">
        <ele>91.360707</ele>
        <time>2020-01-18T00:13:56.953Z</time>
      </trkpt>
      <trkpt lat="43.89584" lon="4.10191">
        <ele>91.847224</ele>
        <time>2020-01-18T00:14:00.041Z</time>
      </trkpt>
      <trkpt lat="43.89581" lon="4.10207">
        <ele>92.333907</ele>
        <time>2020-01-18T00:14:03.132Z</time>
      </trkpt>
      <trkpt lat="43.89578" lon="4.10217">
        <ele>92.652774</ele>
        <time>2020-01-18T00:14:05.156Z</time>
      </trkpt>
      <trkpt lat="43.89578" lon="4.10218">
        <ele>92.682212</ele>
        <time>2020-01-18T00:14:05.343Z</time>
      </trkpt>
      <trkpt lat="43.89575" lon="4.10228">
        <ele>93.001079</ele>
        <time>2020-01-18T00:14:07.368Z</time>
      </trkpt>
      <trkpt lat="43.89568" lon="4.10248">
        <ele>93.655603</ele>
        <time>2020-01-18T00:14:11.523Z</time>
      </trkpt>
      <trkpt lat="43.89562" lon="4.10268">
        <ele>94.293339</ele>
        <time>2020-01-18T00:14:15.571Z</time>
      </trkpt>
      <trkpt lat="43.89557" lon="4.10284">
        <ele>94.806723</ele>
        <time>2020-01-18T00:14:18.831Z</time>
      </trkpt>
      <trkpt lat="43.89557" lon="4.10285">
        <ele>94.836161</ele>
        <time>2020-01-18T00:14:19.018Z</time>
      </trkpt>
      <trkpt lat="43.89552" lon="4.10297">
        <ele>95.244215</ele>
        <time>2020-01-18T00:14:21.608Z</time>
      </trkpt>
      <trkpt lat="43.89548" lon="4.10306">
        <ele>95.605654</ele>
        <time>2020-01-18T00:14:23.584Z</time>
      </trkpt>
      <trkpt lat="43.89545" lon="4.10311">
        <ele>95.84962</ele>
        <time>2020-01-18T00:14:24.799Z</time>
      </trkpt>
      <trkpt lat="43.89542" lon="4.10321">
        <ele>96.255787</ele>
        <time>2020-01-18T00:14:26.823Z</time>
      </trkpt>
      <trkpt lat="43.89537" lon="4.10341">
        <ele>97.049576</ele>
        <time>2020-01-18T00:14:30.781Z</time>
      </trkpt>
      <trkpt lat="43.89536" lon="4.10344">
        <ele>97.173519</ele>
        <time>2020-01-18T00:14:31.399Z</time>
      </trkpt>
      <trkpt lat="43.89534" lon="4.10348">
        <ele>97.356077</ele>
        <time>2020-01-18T00:14:32.309Z</time>
      </trkpt>
      <trkpt lat="43.89533" lon="4.10351">
        <ele>97.48002</ele>
        <time>2020-01-18T00:14:32.926Z</time>
      </trkpt>
      <trkpt lat="43.89528" lon="4.10358">
        <ele>97.849597</ele>
        <time>2020-01-18T00:14:34.767Z</time>
      </trkpt>
      <trkpt lat="43.89522" lon="4.10369">
        <ele>98.366903</ele>
        <time>2020-01-18T00:14:37.344Z</time>
      </trkpt>
      <trkpt lat="43.89518" lon="4.10381">
        <ele>98.862677</ele>
        <time>2020-01-18T00:14:39.816Z</time>
      </trkpt>
      <trkpt lat="43.89516" lon="4.10394">
        <ele>99.361126</ele>
        <time>2020-01-18T00:14:42.301Z</time>
      </trkpt>
      <trkpt lat="43.89514" lon="4.10401">
        <ele>99.643484</ele>
        <time>2020-01-18T00:14:43.709Z</time>
      </trkpt>
      <trkpt lat="43.89512" lon="4.10409">
        <ele>99.961001</ele>
        <time>2020-01-18T00:14:45.293Z</time>
      </trkpt>
      <trkpt lat="43.89506" lon="4.10416">
        <ele>100.368889</ele>
        <time>2020-01-18T00:14:47.324Z</time>
      </trkpt>
      <trkpt lat="43.89491" lon="4.10426">
        <ele>101.234817</ele>
        <time>2020-01-18T00:14:51.631Z</time>
      </trkpt>
      <trkpt lat="43.89487" lon="4.10429">
        <ele>101.471412</ele>
        <time>2020-01-18T00:14:52.808Z</time>
      </trkpt>
      <trkpt lat="43.8948" lon="4.10436">
        <ele>101.92038</ele>
        <time>2020-01-18T00:14:55.043Z</time>
      </trkpt>
      <trkpt lat="43.89477" lon="4.1044">
        <ele>102.136865</ele>
        <time>2020-01-18T00:14:56.122Z</time>
      </trkpt>
      <trkpt lat="43.89473" lon="4.10447">
        <ele>102.471857</ele>
        <time>2020-01-18T00:14:57.791Z</time>
      </trkpt>
      <trkpt lat="43.89473" lon="4.1045">
        <ele>102.585427</ele>
        <time>2020-01-18T00:14:58.357Z</time>
      </trkpt>
      <trkpt lat="43.89473" lon="4.10453">
        <ele>102.685118</ele>
        <time>2020-01-18T00:14:58.855Z</time>
      </trkpt>
      <trkpt lat="43.89474" lon="4.10462">
        <ele>103.049772</ele>
        <time>2020-01-18T00:15:00.674Z</time>
      </trkpt>
      <trkpt lat="43.89475" lon="4.10465">
        <ele>103.164736</ele>
        <time>2020-01-18T00:15:01.247Z</time>
      </trkpt>
      <trkpt lat="43.89476" lon="4.10468">
        <ele>103.277318</ele>
        <time>2020-01-18T00:15:01.808Z</time>
      </trkpt>
      <trkpt lat="43.89479" lon="4.1047">
        <ele>103.44475</ele>
        <time>2020-01-18T00:15:02.641Z</time>
      </trkpt>
      <trkpt lat="43.8949" lon="4.10474">
        <ele>104.05361</ele>
        <time>2020-01-18T00:15:05.670Z</time>
      </trkpt>
      <trkpt lat="43.89492" lon="4.10475">
        <ele>104.159356</ele>
        <time>2020-01-18T00:15:06.196Z</time>
      </trkpt>
      <trkpt lat="43.89494" lon="4.10474">
        <ele>104.277699</ele>
        <time>2020-01-18T00:15:06.784Z</time>
      </trkpt>
      <trkpt lat="43.89497" lon="4.10472">
        <ele>104.434238</ele>
        <time>2020-01-18T00:15:07.563Z</time>
      </trkpt>
      <trkpt lat="43.89499" lon="4.10469">
        <ele>104.593778</ele>
        <time>2020-01-18T00:15:08.358Z</time>
      </trkpt>
      <trkpt lat="43.895" lon="4.10465">
        <ele>104.785342</ele>
        <time>2020-01-18T00:15:09.275Z</time>
      </trkpt>
      <trkpt lat="43.89502" lon="4.10462">
        <ele>104.935473</ele>
        <time>2020-01-18T00:15:09.916Z</time>
      </trkpt>
      <trkpt lat="43.89506" lon="4.1046">
        <ele>105.153946</ele>
        <time>2020-01-18T00:15:10.848Z</time>
      </trkpt>
      <trkpt lat="43.89508" lon="4.1046">
        <ele>105.299555</ele>
        <time>2020-01-18T00:15:11.469Z</time>
      </trkpt>
      <trkpt lat="43.89519" lon="4.10465">
        <ele>106.01653</ele>
        <time>2020-01-18T00:15:14.528Z</time>
      </trkpt>
      <trkpt lat="43.89553" lon="4.10479">
        <ele>108.161158</ele>
        <time>2020-01-18T00:15:23.678Z</time>
      </trkpt>
      <trkpt lat="43.89564" lon="4.10486">
        <ele>108.886516</ele>
        <time>2020-01-18T00:15:26.773Z</time>
      </trkpt>
      <trkpt lat="43.89567" lon="4.10488">
        <ele>109.093379</ele>
        <time>2020-01-18T00:15:27.657Z</time>
      </trkpt>
      <trkpt lat="43.89569" lon="4.10491">
        <ele>109.249256</ele>
        <time>2020-01-18T00:15:28.322Z</time>
      </trkpt>
      <trkpt lat="43.8957" lon="4.10493">
        <ele>109.373608</ele>
        <time>2020-01-18T00:15:28.854Z</time>
      </trkpt>
      <trkpt lat="43.89571" lon="4.10496">
        <ele>109.522403</ele>
        <time>2020-01-18T00:15:29.490Z</time>
      </trkpt>
      <trkpt lat="43.8957" lon="4.105">
        <ele>109.666963</ele>
        <time>2020-01-18T00:15:30.108Z</time>
      </trkpt>
      <trkpt lat="43.89562" lon="4.10535">
        <ele>111.303282</ele>
        <time>2020-01-18T00:15:37.114Z</time>
      </trkpt>
      <trkpt lat="43.89558" lon="4.10549">
        <ele>111.93883</ele>
        <time>2020-01-18T00:15:39.832Z</time>
      </trkpt>
      <trkpt lat="43.89556" lon="4.10558">
        <ele>112.348951</ele>
        <time>2020-01-18T00:15:41.587Z</time>
      </trkpt>
      <trkpt lat="43.89548" lon="4.10574">
        <ele>113.209786</ele>
        <time>2020-01-18T00:15:45.271Z</time>
      </trkpt>
      <trkpt lat="43.89545" lon="4.10581">
        <ele>113.548402</ele>
        <time>2020-01-18T00:15:46.719Z</time>
      </trkpt>
      <trkpt lat="43.89544" lon="4.10586">
        <ele>113.786163</ele>
        <time>2020-01-18T00:15:47.735Z</time>
      </trkpt>
      <trkpt lat="43.89543" lon="4.1059">
        <ele>113.975402</ele>
        <time>2020-01-18T00:15:48.544Z</time>
      </trkpt>
      <trkpt lat="43.89543" lon="4.10594">
        <ele>114.137278</ele>
        <time>2020-01-18T00:15:49.237Z</time>
      </trkpt>
      <trkpt lat="43.89544" lon="4.10597">
        <ele>114.322196</ele>
        <time>2020-01-18T00:15:50.028Z</time>
      </trkpt>
      <trkpt lat="43.89546" lon="4.10601">
        <ele>114.518743</ele>
        <time>2020-01-18T00:15:50.868Z</time>
      </trkpt>
      <trkpt lat="43.89547" lon="4.106">
        <ele>114.56866</ele>
        <time>2020-01-18T00:15:51.082Z</time>
      </trkpt>
      <trkpt lat="43.89552" lon="4.10606">
        <ele>114.9697</ele>
        <time>2020-01-18T00:15:52.796Z</time>
      </trkpt>
      <trkpt lat="43.8956" lon="4.10615">
        <ele>115.594519</ele>
        <time>2020-01-18T00:15:55.465Z</time>
      </trkpt>
      <trkpt lat="43.89568" lon="4.10623">
        <ele>116.052959</ele>
        <time>2020-01-18T00:15:58.018Z</time>
      </trkpt>
      <trkpt lat="43.89571" lon="4.10625">
        <ele>116.203437</ele>
        <time>2020-01-18T00:15:58.880Z</time>
      </trkpt>
      <trkpt lat="43.89575" lon="4.10628">
        <ele>116.409011</ele>
        <time>2020-01-18T00:16:00.058Z</time>
      </trkpt>
      <trkpt lat="43.89585" lon="4.10634">
        <ele>116.90159</ele>
        <time>2020-01-18T00:16:02.880Z</time>
      </trkpt>
      <trkpt lat="43.89592" lon="4.10638">
        <ele>117.243861</ele>
        <time>2020-01-18T00:16:04.839Z</time>
      </trkpt>
      <trkpt lat="43.89598" lon="4.10642">
        <ele>117.544817</ele>
        <time>2020-01-18T00:16:06.562Z</time>
      </trkpt>
      <trkpt lat="43.89603" lon="4.10645">
        <ele>117.791107</ele>
        <time>2020-01-18T00:16:07.971Z</time>
      </trkpt>
      <trkpt lat="43.89605" lon="4.10646">
        <ele>117.887222</ele>
        <time>2020-01-18T00:16:08.521Z</time>
      </trkpt>
      <trkpt lat="43.89609" lon="4.10662">
        <ele>118.449883</ele>
        <time>2020-01-18T00:16:11.746Z</time>
      </trkpt>
      <trkpt lat="43.89609" lon="4.10662">
        <ele>118.454404</ele>
        <time>2020-01-18T00:16:11.862Z</time>
      </trkpt>
      <trkpt lat="43.89599" lon="4.10693">
        <ele>119.543163</ele>
        <time>2020-01-18T00:16:25.891Z</time>
      </trkpt>
      <trkpt lat="43.89588" lon="4.10691">
        <ele>120.025994</ele>
        <time>2020-01-18T00:16:33.084Z</time>
      </trkpt>
      <trkpt lat="43.89502" lon="4.10639">
        <ele>123.943525</ele>
        <time>2020-01-18T00:17:24.714Z</time>
      </trkpt>
      <trkpt lat="43.89434" lon="4.10617">
        <ele>125.057956</ele>
        <time>2020-01-18T00:17:58.239Z</time>
      </trkpt>
      <trkpt lat="43.89383" lon="4.10605">
        <ele>125.879804</ele>
        <time>2020-01-18T00:18:20.188Z</time>
      </trkpt>
      <trkpt lat="43.89339" lon="4.10602">
        <ele>126.567832</ele>
        <time>2020-01-18T00:18:37.629Z</time>
      </trkpt>
      <trkpt lat="43.89288" lon="4.10585">
        <ele>126.386136</ele>
        <time>2020-01-18T00:18:57.813Z</time>
      </trkpt>
      <trkpt lat="43.89233" lon="4.10578">
        <ele>126.121074</ele>
        <time>2020-01-18T00:19:17.777Z</time>
      </trkpt>
      <trkpt lat="43.89178" lon="4.10553">
        <ele>125.845448</ele>
        <time>2020-01-18T00:19:37.659Z</time>
      </trkpt>
      <trkpt lat="43.89109" lon="4.10509">
        <ele>124.652569</ele>
        <time>2020-01-18T00:20:02.997Z</time>
      </trkpt>
      <trkpt lat="43.89095" lon="4.10492">
        <ele>124.310213</ele>
        <time>2020-01-18T00:20:08.836Z</time>
      </trkpt>
      <trkpt lat="43.89037" lon="4.10468">
        <ele>123.160433</ele>
        <time>2020-01-18T00:20:28.536Z</time>
      </trkpt>
      <trkpt lat="43.88999" lon="4.10434">
        <ele>122.312283</ele>
        <time>2020-01-18T00:20:42.934Z</time>
      </trkpt>
      <trkpt lat="43.88974" lon="4.10425">
        <ele>121.813941</ele>
        <time>2020-01-18T00:20:51.439Z</time>
      </trkpt>
      <trkpt lat="43.88955" lon="4.10422">
        <ele>121.445256</ele>
        <time>2020-01-18T00:20:57.634Z</time>
      </trkpt>
      <trkpt lat="43.88943" lon="4.10422">
        <ele>121.224632</ele>
        <time>2020-01-18T00:20:59.899Z</time>
      </trkpt>
      <trkpt lat="43.88857" lon="4.10368">
        <ele>119.429328</ele>
        <time>2020-01-18T00:21:18.120Z</time>
      </trkpt>
      <trkpt lat="43.8883" lon="4.10357">
        <ele>118.906226</ele>
        <time>2020-01-18T00:21:23.773Z</time>
      </trkpt>
      <trkpt lat="43.88665" lon="4.10325">
        <ele>117.067246</ele>
        <time>2020-01-18T00:21:57.576Z</time>
      </trkpt>
      <trkpt lat="43.88647" lon="4.10303">
        <ele>116.978149</ele>
        <time>2020-01-18T00:22:02.876Z</time>
      </trkpt>
      <trkpt lat="43.88486" lon="4.10231">
        <ele>117.353843</ele>
        <time>2020-01-18T00:22:46.080Z</time>
      </trkpt>
      <trkpt lat="43.88423" lon="4.10203">
        <ele>117.339723</ele>
        <time>2020-01-18T00:23:02.499Z</time>
      </trkpt>
      <trkpt lat="43.88417" lon="4.10204">
        <ele>117.338473</ele>
        <time>2020-01-18T00:23:04.902Z</time>
      </trkpt>
      <trkpt lat="43.88417" lon="4.10212">
        <ele>117.337206</ele>
        <time>2020-01-18T00:23:06.024Z</time>
      </trkpt>
      <trkpt lat="43.88603" lon="4.10344">
        <ele>117.564695</ele>
        <time>2020-01-18T00:23:52.514Z</time>
      </trkpt>
      <trkpt lat="43.88639" lon="4.10364">
        <ele>117.652946</ele>
        <time>2020-01-18T00:24:01.754Z</time>
      </trkpt>
      <trkpt lat="43.88646" lon="4.10377">
        <ele>117.67882</ele>
        <time>2020-01-18T00:24:05.740Z</time>
      </trkpt>
      <trkpt lat="43.88645" lon="4.10388">
        <ele>117.697872</ele>
        <time>2020-01-18T00:24:08.114Z</time>
      </trkpt>
      <trkpt lat="43.88594" lon="4.10401">
        <ele>118.921859</ele>
        <time>2020-01-18T00:24:23.954Z</time>
      </trkpt>
      <trkpt lat="43.88594" lon="4.10401">
        <ele>118.921859</ele>
        <time>2020-01-18T00:24:23.999Z</time>
      </trkpt>
      <trkpt lat="43.8859" lon="4.1041">
        <ele>119.13459</ele>
        <time>2020-01-18T00:24:26.302Z</time>
      </trkpt>
      <trkpt lat="43.88614" lon="4.10453">
        <ele>120.278348</ele>
        <time>2020-01-18T00:24:41.384Z</time>
      </trkpt>
      <trkpt lat="43.88627" lon="4.10494">
        <ele>121.217339</ele>
        <time>2020-01-18T00:24:53.279Z</time>
      </trkpt>
      <trkpt lat="43.8863" lon="4.10497">
        <ele>121.327559</ele>
        <time>2020-01-18T00:24:55.726Z</time>
      </trkpt>
      <trkpt lat="43.88654" lon="4.10523">
        <ele>122.1937</ele>
        <time>2020-01-18T00:25:07.245Z</time>
      </trkpt>
      <trkpt lat="43.8867" lon="4.10529">
        <ele>122.666092</ele>
        <time>2020-01-18T00:25:14.795Z</time>
      </trkpt>
      <trkpt lat="43.88787" lon="4.10548">
        <ele>128.578996</ele>
        <time>2020-01-18T00:26:11.161Z</time>
      </trkpt>
      <trkpt lat="43.8882" lon="4.10562">
        <ele>130.324872</ele>
        <time>2020-01-18T00:26:28.020Z</time>
      </trkpt>
      <trkpt lat="43.8886" lon="4.10593">
        <ele>132.890837</ele>
        <time>2020-01-18T00:26:52.476Z</time>
      </trkpt>
      <trkpt lat="43.88941" lon="4.1067">
        <ele>139.459488</ele>
        <time>2020-01-18T00:27:47.770Z</time>
      </trkpt>
      <trkpt lat="43.88988" lon="4.10687">
        <ele>142.754479</ele>
        <time>2020-01-18T00:28:16.737Z</time>
      </trkpt>
      <trkpt lat="43.89077" lon="4.10754">
        <ele>149.953537</ele>
        <time>2020-01-18T00:29:16.919Z</time>
      </trkpt>
      <trkpt lat="43.8909" lon="4.1077">
        <ele>151.157668</ele>
        <time>2020-01-18T00:29:26.722Z</time>
      </trkpt>
      <trkpt lat="43.8917" lon="4.10807">
        <ele>157.28128</ele>
        <time>2020-01-18T00:30:16.497Z</time>
      </trkpt>
      <trkpt lat="43.89243" lon="4.10859">
        <ele>163.989487</ele>
        <time>2020-01-18T00:31:07.077Z</time>
      </trkpt>
      <trkpt lat="43.89272" lon="4.1089">
        <ele>166.963613</ele>
        <time>2020-01-18T00:31:31.176Z</time>
      </trkpt>
      <trkpt lat="43.89311" lon="4.10918">
        <ele>170.513635</ele>
        <time>2020-01-18T00:32:00.569Z</time>
      </trkpt>
      <trkpt lat="43.89396" lon="4.10961">
        <ele>177.424261</ele>
        <time>2020-01-18T00:33:00.856Z</time>
      </trkpt>
      <trkpt lat="43.894" lon="4.10973">
        <ele>178.193329</ele>
        <time>2020-01-18T00:33:07.516Z</time>
      </trkpt>
      <trkpt lat="43.89397" lon="4.10992">
        <ele>179.234682</ele>
        <time>2020-01-18T00:33:16.396Z</time>
      </trkpt>
      <trkpt lat="43.89374" lon="4.11057">
        <ele>183.189502</ele>
        <time>2020-01-18T00:33:48.491Z</time>
      </trkpt>
      <trkpt lat="43.89302" lon="4.11126">
        <ele>186.97632</ele>
        <time>2020-01-18T00:34:30.868Z</time>
      </trkpt>
      <trkpt lat="43.89282" lon="4.11154">
        <ele>187.717896</ele>
        <time>2020-01-18T00:34:41.080Z</time>
      </trkpt>
      <trkpt lat="43.89278" lon="4.11186">
        <ele>188.326817</ele>
        <time>2020-01-18T00:34:48.676Z</time>
      </trkpt>
      <trkpt lat="43.8928" lon="4.11215">
        <ele>188.862033</ele>
        <time>2020-01-18T00:34:54.775Z</time>
      </trkpt>
      <trkpt lat="43.89326" lon="4.1134">
        <ele>190.395985</ele>
        <time>2020-01-18T00:35:19.732Z</time>
      </trkpt>
      <trkpt lat="43.89322" lon="4.1141">
        <ele>190.622755</ele>
        <time>2020-01-18T00:35:30.974Z</time>
      </trkpt>
      <trkpt lat="43.89329" lon="4.11465">
        <ele>190.804121</ele>
        <time>2020-01-18T00:35:41.024Z</time>
      </trkpt>
      <trkpt lat="43.89326" lon="4.11479">
        <ele>190.850204</ele>
        <time>2020-01-18T00:35:43.736Z</time>
      </trkpt>
      <trkpt lat="43.89309" lon="4.11511">
        <ele>190.997493</ele>
        <time>2020-01-18T00:35:52.149Z</time>
      </trkpt>
      <trkpt lat="43.89265" lon="4.11505">
        <ele>191.840403</ele>
        <time>2020-01-18T00:36:06.059Z</time>
      </trkpt>
      <trkpt lat="43.89242" lon="4.11504">
        <ele>192.283983</ele>
        <time>2020-01-18T00:36:13.966Z</time>
      </trkpt>
      <trkpt lat="43.89199" lon="4.11511">
        <ele>193.098604</ele>
        <time>2020-01-18T00:36:28.803Z</time>
      </trkpt>
      <trkpt lat="43.89182" lon="4.11517">
        <ele>193.430046</ele>
        <time>2020-01-18T00:36:34.787Z</time>
      </trkpt>
      <trkpt lat="43.89098" lon="4.11581">
        <ele>194.829632</ele>
        <time>2020-01-18T00:37:06.872Z</time>
      </trkpt>
      <trkpt lat="43.89058" lon="4.11635">
        <ele>195.376499</ele>
        <time>2020-01-18T00:37:23.352Z</time>
      </trkpt>
      <trkpt lat="43.89022" lon="4.11741">
        <ele>196.245026</ele>
        <time>2020-01-18T00:37:42.632Z</time>
      </trkpt>
      <trkpt lat="43.89005" lon="4.11819">
        <ele>197.470371</ele>
        <time>2020-01-18T00:37:58.447Z</time>
      </trkpt>
      <trkpt lat="43.88997" lon="4.1188">
        <ele>198.400369</ele>
        <time>2020-01-18T00:38:11.175Z</time>
      </trkpt>
      <trkpt lat="43.88991" lon="4.11894">
        <ele>198.646842</ele>
        <time>2020-01-18T00:38:16.086Z</time>
      </trkpt>
      <trkpt lat="43.88972" lon="4.11917">
        <ele>199.171052</ele>
        <time>2020-01-18T00:38:24.380Z</time>
      </trkpt>
      <trkpt lat="43.88967" lon="4.11936">
        <ele>199.482975</ele>
        <time>2020-01-18T00:38:31.634Z</time>
      </trkpt>
      <trkpt lat="43.88969" lon="4.12067">
        <ele>205.65004</ele>
        <time>2020-01-18T00:39:18.399Z</time>
      </trkpt>
      <trkpt lat="43.88963" lon="4.12143">
        <ele>209.89085</ele>
        <time>2020-01-18T00:39:56.137Z</time>
      </trkpt>
      <trkpt lat="43.88975" lon="4.12248">
        <ele>216.447491</ele>
        <time>2020-01-18T00:40:53.307Z</time>
      </trkpt>
      <trkpt lat="43.88986" lon="4.12288">
        <ele>219.514509</ele>
        <time>2020-01-18T00:41:17.413Z</time>
      </trkpt>
      <trkpt lat="43.89006" lon="4.12326">
        <ele>222.940566</ele>
        <time>2020-01-18T00:41:44.084Z</time>
      </trkpt>
      <trkpt lat="43.89015" lon="4.12363">
        <ele>225.715647</ele>
        <time>2020-01-18T00:42:05.233Z</time>
      </trkpt>
      <trkpt lat="43.89032" lon="4.124">
        <ele>228.895203</ele>
        <time>2020-01-18T00:42:29.006Z</time>
      </trkpt>
      <trkpt lat="43.89071" lon="4.12452">
        <ele>232.97325</ele>
        <time>2020-01-18T00:43:06.189Z</time>
      </trkpt>
      <trkpt lat="43.89141" lon="4.12527">
        <ele>237.365609</ele>
        <time>2020-01-18T00:43:50.479Z</time>
      </trkpt>
      <trkpt lat="43.89143" lon="4.12542">
        <ele>237.936183</ele>
        <time>2020-01-18T00:43:56.525Z</time>
      </trkpt>
      <trkpt lat="43.89133" lon="4.12626">
        <ele>240.59428</ele>
        <time>2020-01-18T00:44:15.789Z</time>
      </trkpt>
      <trkpt lat="43.89133" lon="4.12647">
        <ele>240.519969</ele>
        <time>2020-01-18T00:44:20.776Z</time>
      </trkpt>
      <trkpt lat="43.89143" lon="4.12692">
        <ele>240.344225</ele>
        <time>2020-01-18T00:44:29.599Z</time>
      </trkpt>
      <trkpt lat="43.89176" lon="4.12779">
        <ele>239.988012</ele>
        <time>2020-01-18T00:44:44.233Z</time>
      </trkpt>
      <trkpt lat="43.89192" lon="4.12836">
        <ele>239.763063</ele>
        <time>2020-01-18T00:44:52.874Z</time>
      </trkpt>
      <trkpt lat="43.89191" lon="4.12863">
        <ele>239.477914</ele>
        <time>2020-01-18T00:44:56.425Z</time>
      </trkpt>
      <trkpt lat="43.89184" lon="4.12904">
        <ele>238.747721</ele>
        <time>2020-01-18T00:45:02.423Z</time>
      </trkpt>
      <trkpt lat="43.8919" lon="4.12927">
        <ele>238.324847</ele>
        <time>2020-01-18T00:45:06.036Z</time>
      </trkpt>
      <trkpt lat="43.89179" lon="4.12919">
        <ele>238.036887</ele>
        <time>2020-01-18T00:45:08.338Z</time>
      </trkpt>
      <trkpt lat="43.89166" lon="4.12909">
        <ele>237.673733</ele>
        <time>2020-01-18T00:45:11.053Z</time>
      </trkpt>
      <trkpt lat="43.89111" lon="4.12898">
        <ele>236.364854</ele>
        <time>2020-01-18T00:45:21.549Z</time>
      </trkpt>
      <trkpt lat="43.89089" lon="4.12903">
        <ele>235.833235</ele>
        <time>2020-01-18T00:45:25.634Z</time>
      </trkpt>
      <trkpt lat="43.89067" lon="4.12911">
        <ele>235.314578</ele>
        <time>2020-01-18T00:45:29.756Z</time>
      </trkpt>
      <trkpt lat="43.8903" lon="4.12948">
        <ele>234.371264</ele>
        <time>2020-01-18T00:45:37.817Z</time>
      </trkpt>
      <trkpt lat="43.88993" lon="4.12955">
        <ele>233.572681</ele>
        <time>2020-01-18T00:45:45.025Z</time>
      </trkpt>
      <trkpt lat="43.88961" lon="4.12981">
        <ele>232.793257</ele>
        <time>2020-01-18T00:45:52.213Z</time>
      </trkpt>
      <trkpt lat="43.8895" lon="4.12981">
        <ele>232.563649</ele>
        <time>2020-01-18T00:45:54.399Z</time>
      </trkpt>
      <trkpt lat="43.88937" lon="4.12963">
        <ele>232.171306</ele>
        <time>2020-01-18T00:45:58.082Z</time>
      </trkpt>
      <trkpt lat="43.88913" lon="4.12948">
        <ele>231.627016</ele>
        <time>2020-01-18T00:46:03.464Z</time>
      </trkpt>
      <trkpt lat="43.88883" lon="4.12913">
        <ele>230.992713</ele>
        <time>2020-01-18T00:46:11.434Z</time>
      </trkpt>
      <trkpt lat="43.88848" lon="4.12889">
        <ele>230.350505</ele>
        <time>2020-01-18T00:46:19.358Z</time>
      </trkpt>
      <trkpt lat="43.88805" lon="4.12875">
        <ele>229.638858</ele>
        <time>2020-01-18T00:46:27.918Z</time>
      </trkpt>
      <trkpt lat="43.88769" lon="4.12854">
        <ele>228.998588</ele>
        <time>2020-01-18T00:46:35.538Z</time>
      </trkpt>
      <trkpt lat="43.88741" lon="4.12851">
        <ele>228.538288</ele>
        <time>2020-01-18T00:46:40.853Z</time>
      </trkpt>
      <trkpt lat="43.88693" lon="4.12839">
        <ele>227.700607</ele>
        <time>2020-01-18T00:46:50.128Z</time>
      </trkpt>
      <trkpt lat="43.88681" lon="4.12858">
        <ele>227.387929</ele>
        <time>2020-01-18T00:46:53.625Z</time>
      </trkpt>
      <trkpt lat="43.88666" lon="4.12875">
        <ele>227.058115</ele>
        <time>2020-01-18T00:46:57.376Z</time>
      </trkpt>
      <trkpt lat="43.88642" lon="4.12937">
        <ele>226.183094</ele>
        <time>2020-01-18T00:47:07.380Z</time>
      </trkpt>
      <trkpt lat="43.88623" lon="4.12999">
        <ele>225.567191</ele>
        <time>2020-01-18T00:47:17.149Z</time>
      </trkpt>
      <trkpt lat="43.88619" lon="4.13009">
        <ele>225.524808</ele>
        <time>2020-01-18T00:47:19.007Z</time>
      </trkpt>
      <trkpt lat="43.88607" lon="4.13036">
        <ele>225.401675</ele>
        <time>2020-01-18T00:47:23.966Z</time>
      </trkpt>
      <trkpt lat="43.88608" lon="4.13112">
        <ele>225.112621</ele>
        <time>2020-01-18T00:47:36.426Z</time>
      </trkpt>
      <trkpt lat="43.88603" lon="4.13135">
        <ele>225.021704</ele>
        <time>2020-01-18T00:47:40.243Z</time>
      </trkpt>
      <trkpt lat="43.88594" lon="4.13167">
        <ele>224.891137</ele>
        <time>2020-01-18T00:47:45.963Z</time>
      </trkpt>
      <trkpt lat="43.8859" lon="4.13192">
        <ele>224.792531</ele>
        <time>2020-01-18T00:47:50.209Z</time>
      </trkpt>
      <trkpt lat="43.88589" lon="4.13218">
        <ele>224.679277</ele>
        <time>2020-01-18T00:47:54.519Z</time>
      </trkpt>
      <trkpt lat="43.88612" lon="4.13363">
        <ele>223.613931</ele>
        <time>2020-01-18T00:48:17.455Z</time>
      </trkpt>
      <trkpt lat="43.88612" lon="4.13399">
        <ele>223.354778</ele>
        <time>2020-01-18T00:48:22.741Z</time>
      </trkpt>
      <trkpt lat="43.88562" lon="4.13483">
        <ele>221.999846</ele>
        <time>2020-01-18T00:48:38.019Z</time>
      </trkpt>
      <trkpt lat="43.8853" lon="4.13554">
        <ele>220.40346</ele>
        <time>2020-01-18T00:48:49.425Z</time>
      </trkpt>
      <trkpt lat="43.88426" lon="4.1368">
        <ele>216.007541</ele>
        <time>2020-01-18T00:49:14.135Z</time>
      </trkpt>
      <trkpt lat="43.88415" lon="4.13707">
        <ele>215.090249</ele>
        <time>2020-01-18T00:49:18.066Z</time>
      </trkpt>
      <trkpt lat="43.88413" lon="4.13743">
        <ele>214.0293</ele>
        <time>2020-01-18T00:49:22.569Z</time>
      </trkpt>
      <trkpt lat="43.88417" lon="4.13804">
        <ele>212.24436</ele>
        <time>2020-01-18T00:49:29.933Z</time>
      </trkpt>
      <trkpt lat="43.88399" lon="4.13935">
        <ele>208.189662</ele>
        <time>2020-01-18T00:49:46.189Z</time>
      </trkpt>
      <trkpt lat="43.88402" lon="4.13959">
        <ele>207.431995</ele>
        <time>2020-01-18T00:49:49.391Z</time>
      </trkpt>
      <trkpt lat="43.88406" lon="4.13981">
        <ele>206.736477</ele>
        <time>2020-01-18T00:49:52.053Z</time>
      </trkpt>
      <trkpt lat="43.88421" lon="4.14009">
        <ele>205.656249</ele>
        <time>2020-01-18T00:49:56.422Z</time>
      </trkpt>
      <trkpt lat="43.88474" lon="4.14053">
        <ele>202.98956</ele>
        <time>2020-01-18T00:50:07.110Z</time>
      </trkpt>
      <trkpt lat="43.88495" lon="4.14075">
        <ele>201.922289</ele>
        <time>2020-01-18T00:50:11.574Z</time>
      </trkpt>
      <trkpt lat="43.885" lon="4.1409">
        <ele>201.453377</ele>
        <time>2020-01-18T00:50:13.748Z</time>
      </trkpt>
      <trkpt lat="43.885" lon="4.14093">
        <ele>201.357154</ele>
        <time>2020-01-18T00:50:14.173Z</time>
      </trkpt>
      <trkpt lat="43.88498" lon="4.14118">
        <ele>200.630424</ele>
        <time>2020-01-18T00:50:17.198Z</time>
      </trkpt>
      <trkpt lat="43.88498" lon="4.14119">
        <ele>200.615896</ele>
        <time>2020-01-18T00:50:17.250Z</time>
      </trkpt>
      <trkpt lat="43.8849" lon="4.14185">
        <ele>198.667058</ele>
        <time>2020-01-18T00:50:25.969Z</time>
      </trkpt>
      <trkpt lat="43.8848" lon="4.14231">
        <ele>197.272788</ele>
        <time>2020-01-18T00:50:31.989Z</time>
      </trkpt>
      <trkpt lat="43.88464" lon="4.1428">
        <ele>195.684643</ele>
        <time>2020-01-18T00:50:38.700Z</time>
      </trkpt>
      <trkpt lat="43.8846" lon="4.14312">
        <ele>194.695669</ele>
        <time>2020-01-18T00:50:42.605Z</time>
      </trkpt>
      <trkpt lat="43.88463" lon="4.14369">
        <ele>192.973881</ele>
        <time>2020-01-18T00:50:49.594Z</time>
      </trkpt>
      <trkpt lat="43.88472" lon="4.1443">
        <ele>191.088548</ele>
        <time>2020-01-18T00:50:57.102Z</time>
      </trkpt>
      <trkpt lat="43.88483" lon="4.14484">
        <ele>189.390365</ele>
        <time>2020-01-18T00:51:04.054Z</time>
      </trkpt>
      <trkpt lat="43.88497" lon="4.14523">
        <ele>188.200453</ele>
        <time>2020-01-18T00:51:09.734Z</time>
      </trkpt>
      <trkpt lat="43.88499" lon="4.14548">
        <ele>187.868357</ele>
        <time>2020-01-18T00:51:13.069Z</time>
      </trkpt>
      <trkpt lat="43.88498" lon="4.14574">
        <ele>187.521776</ele>
        <time>2020-01-18T00:51:16.468Z</time>
      </trkpt>
      <trkpt lat="43.88494" lon="4.14585">
        <ele>187.346527</ele>
        <time>2020-01-18T00:51:18.185Z</time>
      </trkpt>
      <trkpt lat="43.88483" lon="4.14606">
        <ele>187.005801</ele>
        <time>2020-01-18T00:51:21.926Z</time>
      </trkpt>
      <trkpt lat="43.88472" lon="4.14628">
        <ele>186.650972</ele>
        <time>2020-01-18T00:51:25.508Z</time>
      </trkpt>
      <trkpt lat="43.88471" lon="4.14641">
        <ele>186.467578</ele>
        <time>2020-01-18T00:51:27.924Z</time>
      </trkpt>
      <trkpt lat="43.88482" lon="4.14685">
        <ele>185.851488</ele>
        <time>2020-01-18T00:51:34.637Z</time>
      </trkpt>
      <trkpt lat="43.88467" lon="4.14792">
        <ele>184.247373</ele>
        <time>2020-01-18T00:51:51.014Z</time>
      </trkpt>
      <trkpt lat="43.88449" lon="4.14836">
        <ele>183.413046</ele>
        <time>2020-01-18T00:51:58.568Z</time>
      </trkpt>
      <trkpt lat="43.88413" lon="4.14871">
        <ele>182.382572</ele>
        <time>2020-01-18T00:52:07.255Z</time>
      </trkpt>
      <trkpt lat="43.88385" lon="4.14919">
        <ele>181.351625</ele>
        <time>2020-01-18T00:52:15.384Z</time>
      </trkpt>
      <trkpt lat="43.88341" lon="4.15071">
        <ele>175.103707</ele>
        <time>2020-01-18T00:52:34.951Z</time>
      </trkpt>
      <trkpt lat="43.88311" lon="4.15125">
        <ele>172.144668</ele>
        <time>2020-01-18T00:52:42.568Z</time>
      </trkpt>
      <trkpt lat="43.88306" lon="4.15143">
        <ele>171.292073</ele>
        <time>2020-01-18T00:52:44.786Z</time>
      </trkpt>
      <trkpt lat="43.88302" lon="4.15203">
        <ele>168.888672</ele>
        <time>2020-01-18T00:52:51.697Z</time>
      </trkpt>
      <trkpt lat="43.88289" lon="4.15244">
        <ele>167.287995</ele>
        <time>2020-01-18T00:52:56.817Z</time>
      </trkpt>
      <trkpt lat="43.88287" lon="4.1527">
        <ele>166.351485</ele>
        <time>2020-01-18T00:52:59.834Z</time>
      </trkpt>
      <trkpt lat="43.883" lon="4.15318">
        <ele>164.496202</ele>
        <time>2020-01-18T00:53:05.961Z</time>
      </trkpt>
      <trkpt lat="43.88308" lon="4.15434">
        <ele>160.929386</ele>
        <time>2020-01-18T00:53:20.764Z</time>
      </trkpt>
      <trkpt lat="43.88305" lon="4.15487">
        <ele>160.824412</ele>
        <time>2020-01-18T00:53:28.806Z</time>
      </trkpt>
      <trkpt lat="43.88295" lon="4.15531">
        <ele>160.733369</ele>
        <time>2020-01-18T00:53:37.295Z</time>
      </trkpt>
      <trkpt lat="43.88294" lon="4.15558">
        <ele>160.677701</ele>
        <time>2020-01-18T00:53:42.629Z</time>
      </trkpt>
      <trkpt lat="43.88293" lon="4.15565">
        <ele>160.664753</ele>
        <time>2020-01-18T00:53:43.956Z</time>
      </trkpt>
      <trkpt lat="43.88287" lon="4.15568">
        <ele>160.646598</ele>
        <time>2020-01-18T00:53:45.758Z</time>
      </trkpt>
      <trkpt lat="43.8826" lon="4.15559">
        <ele>160.56906</ele>
        <time>2020-01-18T00:53:53.590Z</time>
      </trkpt>
      <trkpt lat="43.88242" lon="4.15549">
        <ele>160.517497</ele>
        <time>2020-01-18T00:53:58.892Z</time>
      </trkpt>
      <trkpt lat="43.88239" lon="4.15555">
        <ele>160.502726</ele>
        <time>2020-01-18T00:54:00.673Z</time>
      </trkpt>
      <trkpt lat="43.88232" lon="4.1556">
        <ele>160.48261</ele>
        <time>2020-01-18T00:54:02.612Z</time>
      </trkpt>
      <trkpt lat="43.88221" lon="4.15558">
        <ele>160.593093</ele>
        <time>2020-01-18T00:54:05.918Z</time>
      </trkpt>
      <trkpt lat="43.88167" lon="4.15528">
        <ele>161.633386</ele>
        <time>2020-01-18T00:54:23.695Z</time>
      </trkpt>
      <trkpt lat="43.88148" lon="4.15527">
        <ele>161.986006</ele>
        <time>2020-01-18T00:54:29.900Z</time>
      </trkpt>
      <trkpt lat="43.88054" lon="4.15561">
        <ele>163.752078</ele>
        <time>2020-01-18T00:55:02.348Z</time>
      </trkpt>
      <trkpt lat="43.88029" lon="4.1558">
        <ele>164.605771</ele>
        <time>2020-01-18T00:55:12.448Z</time>
      </trkpt>
      <trkpt lat="43.88021" lon="4.15594">
        <ele>164.9856</ele>
        <time>2020-01-18T00:55:17.068Z</time>
      </trkpt>
      <trkpt lat="43.88015" lon="4.15609">
        <ele>165.364337</ele>
        <time>2020-01-18T00:55:21.731Z</time>
      </trkpt>
      <trkpt lat="43.88006" lon="4.15656">
        <ele>166.423032</ele>
        <time>2020-01-18T00:55:35.244Z</time>
      </trkpt>
      <trkpt lat="43.88004" lon="4.15714">
        <ele>167.682395</ele>
        <time>2020-01-18T00:55:51.827Z</time>
      </trkpt>
      <trkpt lat="43.88008" lon="4.15735">
        <ele>168.1668</ele>
        <time>2020-01-18T00:55:58.250Z</time>
      </trkpt>
      <trkpt lat="43.88041" lon="4.15821">
        <ele>170.216317</ele>
        <time>2020-01-18T00:56:26.558Z</time>
      </trkpt>
      <trkpt lat="43.88047" lon="4.15847">
        <ele>170.788201</ele>
        <time>2020-01-18T00:56:34.999Z</time>
      </trkpt>
      <trkpt lat="43.88049" lon="4.159">
        <ele>171.873089</ele>
        <time>2020-01-18T00:56:49.958Z</time>
      </trkpt>
      <trkpt lat="43.88047" lon="4.15914">
        <ele>172.178171</ele>
        <time>2020-01-18T00:56:53.873Z</time>
      </trkpt>
      <trkpt lat="43.88024" lon="4.15966">
        <ele>173.436575</ele>
        <time>2020-01-18T00:57:10.038Z</time>
      </trkpt>
      <trkpt lat="43.87998" lon="4.15998">
        <ele>174.307193</ele>
        <time>2020-01-18T00:57:21.166Z</time>
      </trkpt>
      <trkpt lat="43.87994" lon="4.16">
        <ele>174.347705</ele>
        <time>2020-01-18T00:57:23.286Z</time>
      </trkpt>
      <trkpt lat="43.87989" lon="4.16">
        <ele>174.399268</ele>
        <time>2020-01-18T00:57:24.681Z</time>
      </trkpt>
      <trkpt lat="43.87966" lon="4.15979">
        <ele>174.648794</ele>
        <time>2020-01-18T00:57:32.550Z</time>
      </trkpt>
      <trkpt lat="43.87922" lon="4.15923">
        <ele>175.210454</ele>
        <time>2020-01-18T00:57:49.488Z</time>
      </trkpt>
      <trkpt lat="43.87808" lon="4.15768">
        <ele>176.224223</ele>
        <time>2020-01-18T00:58:29.128Z</time>
      </trkpt>
      <trkpt lat="43.87624" lon="4.15613">
        <ele>176.565664</ele>
        <time>2020-01-18T00:59:22.770Z</time>
      </trkpt>
      <trkpt lat="43.87553" lon="4.15574">
        <ele>176.449176</ele>
        <time>2020-01-18T00:59:39.526Z</time>
      </trkpt>
      <trkpt lat="43.87539" lon="4.15573">
        <ele>176.33945</ele>
        <time>2020-01-18T00:59:42.412Z</time>
      </trkpt>
      <trkpt lat="43.87528" lon="4.15577">
        <ele>176.241208</ele>
        <time>2020-01-18T00:59:44.713Z</time>
      </trkpt>
      <trkpt lat="43.8744" lon="4.15677">
        <ele>175.294282</ele>
        <time>2020-01-18T01:00:08.336Z</time>
      </trkpt>
      <trkpt lat="43.87362" lon="4.15744">
        <ele>174.818678</ele>
        <time>2020-01-18T01:00:28.127Z</time>
      </trkpt>
      <trkpt lat="43.87167" lon="4.15997">
        <ele>173.390944</ele>
        <time>2020-01-18T01:01:28.499Z</time>
      </trkpt>
      <trkpt lat="43.87048" lon="4.16075">
        <ele>170.587761</ele>
        <time>2020-01-18T01:01:53.372Z</time>
      </trkpt>
      <trkpt lat="43.87026" lon="4.16089">
        <ele>169.982079</ele>
        <time>2020-01-18T01:01:57.785Z</time>
      </trkpt>
      <trkpt lat="43.87022" lon="4.16092">
        <ele>169.852827</ele>
        <time>2020-01-18T01:01:58.611Z</time>
      </trkpt>
      <trkpt lat="43.86942" lon="4.16156">
        <ele>167.390388</ele>
        <time>2020-01-18T01:02:15.157Z</time>
      </trkpt>
      <trkpt lat="43.86871" lon="4.16193">
        <ele>165.224016</ele>
        <time>2020-01-18T01:02:28.707Z</time>
      </trkpt>
      <trkpt lat="43.86779" lon="4.16255">
        <ele>162.522225</ele>
        <time>2020-01-18T01:02:47.986Z</time>
      </trkpt>
      <trkpt lat="43.86774" lon="4.16262">
        <ele>162.349187</ele>
        <time>2020-01-18T01:02:49.315Z</time>
      </trkpt>
      <trkpt lat="43.86774" lon="4.16262">
        <ele>162.349187</ele>
        <time>2020-01-18T01:02:49.321Z</time>
      </trkpt>
      <trkpt lat="43.86774" lon="4.16262">
        <ele>162.349187</ele>
        <time>2020-01-18T01:02:49.341Z</time>
      </trkpt>
      <trkpt lat="43.86779" lon="4.16254">
        <ele>162.166571</ele>
        <time>2020-01-18T01:02:51.377Z</time>
      </trkpt>
      <trkpt lat="43.86773" lon="4.16262">
        <ele>161.973266</ele>
        <time>2020-01-18T01:02:53.531Z</time>
      </trkpt>
      <trkpt lat="43.86767" lon="4.16265">
        <ele>161.825128</ele>
        <time>2020-01-18T01:02:55.180Z</time>
      </trkpt>
      <trkpt lat="43.86726" lon="4.16296">
        <ele>160.74054</ele>
        <time>2020-01-18T01:03:07.259Z</time>
      </trkpt>
      <trkpt lat="43.86685" lon="4.16327">
        <ele>159.65595</ele>
        <time>2020-01-18T01:03:19.337Z</time>
      </trkpt>
      <trkpt lat="43.86654" lon="4.16343">
        <ele>158.930123</ele>
        <time>2020-01-18T01:03:27.889Z</time>
      </trkpt>
      <trkpt lat="43.8665" lon="4.16343">
        <ele>158.846002</ele>
        <time>2020-01-18T01:03:28.923Z</time>
      </trkpt>
      <trkpt lat="43.86632" lon="4.16346">
        <ele>158.464731</ele>
        <time>2020-01-18T01:03:33.608Z</time>
      </trkpt>
      <trkpt lat="43.8659" lon="4.16337">
        <ele>157.570974</ele>
        <time>2020-01-18T01:03:44.593Z</time>
      </trkpt>
      <trkpt lat="43.86575" lon="4.16338">
        <ele>157.255154</ele>
        <time>2020-01-18T01:03:48.474Z</time>
      </trkpt>
      <trkpt lat="43.86553" lon="4.16348">
        <ele>156.768273</ele>
        <time>2020-01-18T01:03:54.459Z</time>
      </trkpt>
      <trkpt lat="43.86606" lon="4.16388">
        <ele>155.505184</ele>
        <time>2020-01-18T01:04:10.065Z</time>
      </trkpt>
      <trkpt lat="43.86605" lon="4.16388">
        <ele>155.486409</ele>
        <time>2020-01-18T01:04:10.323Z</time>
      </trkpt>
      <trkpt lat="43.8665" lon="4.1642">
        <ele>154.536968</ele>
        <time>2020-01-18T01:04:23.402Z</time>
      </trkpt>
      <trkpt lat="43.86604" lon="4.16504">
        <ele>153.110081</ele>
        <time>2020-01-18T01:04:43.086Z</time>
      </trkpt>
      <trkpt lat="43.86558" lon="4.16587">
        <ele>151.804294</ele>
        <time>2020-01-18T01:05:02.755Z</time>
      </trkpt>
      <trkpt lat="43.86555" lon="4.16584">
        <ele>151.755608</ele>
        <time>2020-01-18T01:05:03.645Z</time>
      </trkpt>
      <trkpt lat="43.86455" lon="4.16749">
        <ele>149.599405</ele>
        <time>2020-01-18T01:05:55.924Z</time>
      </trkpt>
      <trkpt lat="43.86396" lon="4.16866">
        <ele>149.164135</ele>
        <time>2020-01-18T01:06:32.311Z</time>
      </trkpt>
      <trkpt lat="43.86392" lon="4.16872">
        <ele>149.140074</ele>
        <time>2020-01-18T01:06:34.314Z</time>
      </trkpt>
      <trkpt lat="43.86357" lon="4.16827">
        <ele>148.935012</ele>
        <time>2020-01-18T01:06:52.180Z</time>
      </trkpt>
      <trkpt lat="43.86262" lon="4.16714">
        <ele>149.542692</ele>
        <time>2020-01-18T01:07:41.881Z</time>
      </trkpt>
      <trkpt lat="43.86194" lon="4.1665">
        <ele>150.107587</ele>
        <time>2020-01-18T01:08:16.212Z</time>
      </trkpt>
      <trkpt lat="43.86144" lon="4.16573">
        <ele>150.908743</ele>
        <time>2020-01-18T01:08:47.421Z</time>
      </trkpt>
      <trkpt lat="43.86089" lon="4.16517">
        <ele>151.63691</ele>
        <time>2020-01-18T01:09:16.744Z</time>
      </trkpt>
      <trkpt lat="43.86045" lon="4.16482">
        <ele>152.198118</ele>
        <time>2020-01-18T01:09:38.313Z</time>
      </trkpt>
      <trkpt lat="43.86037" lon="4.16479">
        <ele>152.305833</ele>
        <time>2020-01-18T01:09:42.384Z</time>
      </trkpt>
      <trkpt lat="43.86037" lon="4.16468">
        <ele>152.397543</ele>
        <time>2020-01-18T01:09:44.522Z</time>
      </trkpt>
      <trkpt lat="43.8603" lon="4.16465">
        <ele>152.486055</ele>
        <time>2020-01-18T01:09:46.478Z</time>
      </trkpt>
      <trkpt lat="43.86008" lon="4.1645">
        <ele>152.776416</ele>
        <time>2020-01-18T01:09:53.633Z</time>
      </trkpt>
      <trkpt lat="43.85905" lon="4.16344">
        <ele>154.315393</ele>
        <time>2020-01-18T01:10:29.591Z</time>
      </trkpt>
      <trkpt lat="43.8586" lon="4.16309">
        <ele>155.006782</ele>
        <time>2020-01-18T01:10:43.836Z</time>
      </trkpt>
      <trkpt lat="43.85682" lon="4.16199">
        <ele>158.091301</ele>
        <time>2020-01-18T01:11:42.267Z</time>
      </trkpt>
      <trkpt lat="43.85667" lon="4.16181">
        <ele>158.464272</ele>
        <time>2020-01-18T01:11:49.153Z</time>
      </trkpt>
      <trkpt lat="43.85548" lon="4.16019">
        <ele>161.34412</ele>
        <time>2020-01-18T01:12:43.546Z</time>
      </trkpt>
      <trkpt lat="43.85537" lon="4.16004">
        <ele>161.601651</ele>
        <time>2020-01-18T01:12:48.126Z</time>
      </trkpt>
      <trkpt lat="43.85505" lon="4.15957">
        <ele>162.353789</ele>
        <time>2020-01-18T01:13:01.696Z</time>
      </trkpt>
      <trkpt lat="43.85471" lon="4.15902">
        <ele>162.80125</ele>
        <time>2020-01-18T01:13:15.344Z</time>
      </trkpt>
      <trkpt lat="43.8544" lon="4.1587">
        <ele>162.890972</ele>
        <time>2020-01-18T01:13:24.846Z</time>
      </trkpt>
      <trkpt lat="43.8539" lon="4.15828">
        <ele>163.024911</ele>
        <time>2020-01-18T01:13:38.495Z</time>
      </trkpt>
      <trkpt lat="43.853" lon="4.15774">
        <ele>162.946965</ele>
        <time>2020-01-18T01:14:01.409Z</time>
      </trkpt>
      <trkpt lat="43.85233" lon="4.15743">
        <ele>162.624437</ele>
        <time>2020-01-18T01:14:16.047Z</time>
      </trkpt>
      <trkpt lat="43.85171" lon="4.15701">
        <ele>162.170554</ele>
        <time>2020-01-18T01:14:32.278Z</time>
      </trkpt>
      <trkpt lat="43.85147" lon="4.15688">
        <ele>161.242078</ele>
        <time>2020-01-18T01:14:37.368Z</time>
      </trkpt>
      <trkpt lat="43.85138" lon="4.15687">
        <ele>160.899594</ele>
        <time>2020-01-18T01:14:39.248Z</time>
      </trkpt>
      <trkpt lat="43.85127" lon="4.15687">
        <ele>160.464517</ele>
        <time>2020-01-18T01:14:41.458Z</time>
      </trkpt>
      <trkpt lat="43.85127" lon="4.15684">
        <ele>160.372411</ele>
        <time>2020-01-18T01:14:42.100Z</time>
      </trkpt>
      <trkpt lat="43.85109" lon="4.15683">
        <ele>159.695297</ele>
        <time>2020-01-18T01:14:45.792Z</time>
      </trkpt>
      <trkpt lat="43.85105" lon="4.15672">
        <ele>159.340302</ele>
        <time>2020-01-18T01:14:47.484Z</time>
      </trkpt>
      <trkpt lat="43.85111" lon="4.15655">
        <ele>158.82905</ele>
        <time>2020-01-18T01:14:50.100Z</time>
      </trkpt>
      <trkpt lat="43.85117" lon="4.15639">
        <ele>158.3383</ele>
        <time>2020-01-18T01:14:52.592Z</time>
      </trkpt>
      <trkpt lat="43.85122" lon="4.15613">
        <ele>157.629235</ele>
        <time>2020-01-18T01:14:55.560Z</time>
      </trkpt>
      <trkpt lat="43.85125" lon="4.15579">
        <ele>156.714156</ele>
        <time>2020-01-18T01:14:59.614Z</time>
      </trkpt>
      <trkpt lat="43.85109" lon="4.15543">
        <ele>155.542453</ele>
        <time>2020-01-18T01:15:04.399Z</time>
      </trkpt>
      <trkpt lat="43.85082" lon="4.15511">
        <ele>152.709779</ele>
        <time>2020-01-18T01:15:09.908Z</time>
      </trkpt>
      <trkpt lat="43.85045" lon="4.1549">
        <ele>149.598082</ele>
        <time>2020-01-18T01:15:16.080Z</time>
      </trkpt>
      <trkpt lat="43.85039" lon="4.15486">
        <ele>149.053482</ele>
        <time>2020-01-18T01:15:17.043Z</time>
      </trkpt>
      <trkpt lat="43.84957" lon="4.15445">
        <ele>142.203863</ele>
        <time>2020-01-18T01:15:30.362Z</time>
      </trkpt>
      <trkpt lat="43.84954" lon="4.15438">
        <ele>141.719932</ele>
        <time>2020-01-18T01:15:31.351Z</time>
      </trkpt>
      <trkpt lat="43.8495" lon="4.15451">
        <ele>141.07813</ele>
        <time>2020-01-18T01:15:33.029Z</time>
      </trkpt>
      <trkpt lat="43.84947" lon="4.15538">
        <ele>137.841492</ele>
        <time>2020-01-18T01:15:43.004Z</time>
      </trkpt>
      <trkpt lat="43.84961" lon="4.15602">
        <ele>135.371602</ele>
        <time>2020-01-18T01:15:51.775Z</time>
      </trkpt>
      <trkpt lat="43.84957" lon="4.15684">
        <ele>132.320392</ele>
        <time>2020-01-18T01:16:02.004Z</time>
      </trkpt>
      <trkpt lat="43.84976" lon="4.15728">
        <ele>130.290078</ele>
        <time>2020-01-18T01:16:08.270Z</time>
      </trkpt>
      <trkpt lat="43.85016" lon="4.15784">
        <ele>127.163801</ele>
        <time>2020-01-18T01:16:17.913Z</time>
      </trkpt>
      <trkpt lat="43.85016" lon="4.15794">
        <ele>126.775027</ele>
        <time>2020-01-18T01:16:19.003Z</time>
      </trkpt>
      <trkpt lat="43.85011" lon="4.15802">
        <ele>126.318992</ele>
        <time>2020-01-18T01:16:20.201Z</time>
      </trkpt>
      <trkpt lat="43.84905" lon="4.15906">
        <ele>120.374668</ele>
        <time>2020-01-18T01:16:40.986Z</time>
      </trkpt>
      <trkpt lat="43.84878" lon="4.1593">
        <ele>119.300873</ele>
        <time>2020-01-18T01:16:46.161Z</time>
      </trkpt>
      <trkpt lat="43.84855" lon="4.15944">
        <ele>118.4536</ele>
        <time>2020-01-18T01:16:50.829Z</time>
      </trkpt>
      <trkpt lat="43.84817" lon="4.15959">
        <ele>117.124182</ele>
        <time>2020-01-18T01:16:58.755Z</time>
      </trkpt>
      <trkpt lat="43.84807" lon="4.15963">
        <ele>116.768415</ele>
        <time>2020-01-18T01:17:01.652Z</time>
      </trkpt>
      <trkpt lat="43.84736" lon="4.16016">
        <ele>118.766902</ele>
        <time>2020-01-18T01:17:25.491Z</time>
      </trkpt>
      <trkpt lat="43.84729" lon="4.16017">
        <ele>119.042758</ele>
        <time>2020-01-18T01:17:28.360Z</time>
      </trkpt>
      <trkpt lat="43.84713" lon="4.16001">
        <ele>119.812218</ele>
        <time>2020-01-18T01:17:37.333Z</time>
      </trkpt>
      <trkpt lat="43.84705" lon="4.16001">
        <ele>120.133309</ele>
        <time>2020-01-18T01:17:40.965Z</time>
      </trkpt>
      <trkpt lat="43.84634" lon="4.16023">
        <ele>122.953377</ele>
        <time>2020-01-18T01:18:21.411Z</time>
      </trkpt>
      <trkpt lat="43.84561" lon="4.16034">
        <ele>126.651366</ele>
        <time>2020-01-18T01:19:00.044Z</time>
      </trkpt>
      <trkpt lat="43.84544" lon="4.16027">
        <ele>127.573294</ele>
        <time>2020-01-18T01:19:10.061Z</time>
      </trkpt>
      <trkpt lat="43.84535" lon="4.16019">
        <ele>128.163867</ele>
        <time>2020-01-18T01:19:15.203Z</time>
      </trkpt>
      <trkpt lat="43.84509" lon="4.16003">
        <ele>129.636003</ele>
        <time>2020-01-18T01:19:29.136Z</time>
      </trkpt>
      <trkpt lat="43.84499" lon="4.15978">
        <ele>130.694852</ele>
        <time>2020-01-18T01:19:40.598Z</time>
      </trkpt>
      <trkpt lat="43.84472" lon="4.15928">
        <ele>132.911548</ele>
        <time>2020-01-18T01:20:07.433Z</time>
      </trkpt>
      <trkpt lat="43.84462" lon="4.15919">
        <ele>133.363865</ele>
        <time>2020-01-18T01:20:14.265Z</time>
      </trkpt>
      <trkpt lat="43.84451" lon="4.1592">
        <ele>133.782357</ele>
        <time>2020-01-18T01:20:19.968Z</time>
      </trkpt>
      <trkpt lat="43.84377" lon="4.15982">
        <ele>137.029869</ele>
        <time>2020-01-18T01:21:05.745Z</time>
      </trkpt>
      <trkpt lat="43.84368" lon="4.15983">
        <ele>137.355588</ele>
        <time>2020-01-18T01:21:10.260Z</time>
      </trkpt>
      <trkpt lat="43.84349" lon="4.15968">
        <ele>138.169001</ele>
        <time>2020-01-18T01:21:21.913Z</time>
      </trkpt>
      <trkpt lat="43.84347" lon="4.15928">
        <ele>139.272195</ele>
        <time>2020-01-18T01:21:38.714Z</time>
      </trkpt>
      <trkpt lat="43.84341" lon="4.1592">
        <ele>139.710783</ele>
        <time>2020-01-18T01:21:43.503Z</time>
      </trkpt>
      <trkpt lat="43.84311" lon="4.15955">
        <ele>142.209996</ele>
        <time>2020-01-18T01:22:08.318Z</time>
      </trkpt>
      <trkpt lat="43.84271" lon="4.15969">
        <ele>144.833737</ele>
        <time>2020-01-18T01:22:36.349Z</time>
      </trkpt>
      <trkpt lat="43.84247" lon="4.15991">
        <ele>146.617638</ele>
        <time>2020-01-18T01:22:56.489Z</time>
      </trkpt>
      <trkpt lat="43.84209" lon="4.15998">
        <ele>149.078178</ele>
        <time>2020-01-18T01:23:25.390Z</time>
      </trkpt>
      <trkpt lat="43.84175" lon="4.16012">
        <ele>151.415614</ele>
        <time>2020-01-18T01:23:52.520Z</time>
      </trkpt>
      <trkpt lat="43.84148" lon="4.1601">
        <ele>153.298192</ele>
        <time>2020-01-18T01:24:12.794Z</time>
      </trkpt>
      <trkpt lat="43.84078" lon="4.16045">
        <ele>158.614481</ele>
        <time>2020-01-18T01:25:09.263Z</time>
      </trkpt>
      <trkpt lat="43.83986" lon="4.16091">
        <ele>164.477829</ele>
        <time>2020-01-18T01:26:18.043Z</time>
      </trkpt>
      <trkpt lat="43.83922" lon="4.16092">
        <ele>166.626726</ele>
        <time>2020-01-18T01:26:54.648Z</time>
      </trkpt>
      <trkpt lat="43.83883" lon="4.16111">
        <ele>167.999179</ele>
        <time>2020-01-18T01:27:15.195Z</time>
      </trkpt>
      <trkpt lat="43.83857" lon="4.16104">
        <ele>168.896959</ele>
        <time>2020-01-18T01:27:26.616Z</time>
      </trkpt>
      <trkpt lat="43.8385" lon="4.16091">
        <ele>169.287226</ele>
        <time>2020-01-18T01:27:32.266Z</time>
      </trkpt>
      <trkpt lat="43.83845" lon="4.16041">
        <ele>169.288593</ele>
        <time>2020-01-18T01:27:46.431Z</time>
      </trkpt>
      <trkpt lat="43.83846" lon="4.1603">
        <ele>169.212558</ele>
        <time>2020-01-18T01:27:49.214Z</time>
      </trkpt>
      <trkpt lat="43.83875" lon="4.15971">
        <ele>168.723993</ele>
        <time>2020-01-18T01:28:07.089Z</time>
      </trkpt>
      <trkpt lat="43.83895" lon="4.15904">
        <ele>168.229174</ele>
        <time>2020-01-18T01:28:24.622Z</time>
      </trkpt>
      <trkpt lat="43.83872" lon="4.15828">
        <ele>167.41896</ele>
        <time>2020-01-18T01:28:43.812Z</time>
      </trkpt>
      <trkpt lat="43.83863" lon="4.15736">
        <ele>165.983991</ele>
        <time>2020-01-18T01:29:05.543Z</time>
      </trkpt>
      <trkpt lat="43.83852" lon="4.15697">
        <ele>165.330394</ele>
        <time>2020-01-18T01:29:15.416Z</time>
      </trkpt>
      <trkpt lat="43.83822" lon="4.15637">
        <ele>164.19334</ele>
        <time>2020-01-18T01:29:32.456Z</time>
      </trkpt>
      <trkpt lat="43.83778" lon="4.15569">
        <ele>162.119975</ele>
        <time>2020-01-18T01:29:53.544Z</time>
      </trkpt>
      <trkpt lat="43.83713" lon="4.15529">
        <ele>159.781665</ele>
        <time>2020-01-18T01:30:15.272Z</time>
      </trkpt>
      <trkpt lat="43.83676" lon="4.1548">
        <ele>158.099526</ele>
        <time>2020-01-18T01:30:30.396Z</time>
      </trkpt>
      <trkpt lat="43.83662" lon="4.15452">
        <ele>156.838728</ele>
        <time>2020-01-18T01:30:37.727Z</time>
      </trkpt>
      <trkpt lat="43.83646" lon="4.15436">
        <ele>155.806167</ele>
        <time>2020-01-18T01:30:43.434Z</time>
      </trkpt>
      <trkpt lat="43.83627" lon="4.15421">
        <ele>154.676779</ele>
        <time>2020-01-18T01:30:49.647Z</time>
      </trkpt>
      <trkpt lat="43.836" lon="4.15413">
        <ele>153.242231</ele>
        <time>2020-01-18T01:30:57.512Z</time>
      </trkpt>
      <trkpt lat="43.8359" lon="4.15402">
        <ele>152.588823</ele>
        <time>2020-01-18T01:31:01.067Z</time>
      </trkpt>
      <trkpt lat="43.8357" lon="4.15339">
        <ele>150.012222</ele>
        <time>2020-01-18T01:31:15.010Z</time>
      </trkpt>
      <trkpt lat="43.83534" lon="4.1531">
        <ele>147.948382</ele>
        <time>2020-01-18T01:31:26.738Z</time>
      </trkpt>
      <trkpt lat="43.83499" lon="4.15258">
        <ele>145.734684</ele>
        <time>2020-01-18T01:31:41.298Z</time>
      </trkpt>
      <trkpt lat="43.83487" lon="4.15201">
        <ele>143.859816</ele>
        <time>2020-01-18T01:31:54.003Z</time>
      </trkpt>
      <trkpt lat="43.83484" lon="4.15186">
        <ele>143.378315</ele>
        <time>2020-01-18T01:31:57.133Z</time>
      </trkpt>
      <trkpt lat="43.83477" lon="4.15187">
        <ele>143.069121</ele>
        <time>2020-01-18T01:31:59.207Z</time>
      </trkpt>
      <trkpt lat="43.83464" lon="4.15193">
        <ele>142.469494</ele>
        <time>2020-01-18T01:32:03.732Z</time>
      </trkpt>
      <trkpt lat="43.83446" lon="4.15221">
        <ele>141.305862</ele>
        <time>2020-01-18T01:32:11.840Z</time>
      </trkpt>
      <trkpt lat="43.83395" lon="4.15345">
        <ele>139.122091</ele>
        <time>2020-01-18T01:32:45.107Z</time>
      </trkpt>
      <trkpt lat="43.83387" lon="4.15349">
        <ele>138.953385</ele>
        <time>2020-01-18T01:32:48.510Z</time>
      </trkpt>
      <trkpt lat="43.83375" lon="4.15351">
        <ele>138.739664</ele>
        <time>2020-01-18T01:32:51.003Z</time>
      </trkpt>
      <trkpt lat="43.83323" lon="4.15341">
        <ele>137.77358</ele>
        <time>2020-01-18T01:33:01.874Z</time>
      </trkpt>
      <trkpt lat="43.83278" lon="4.15361">
        <ele>136.435792</ele>
        <time>2020-01-18T01:33:11.431Z</time>
      </trkpt>
      <trkpt lat="43.83264" lon="4.15362">
        <ele>135.989363</ele>
        <time>2020-01-18T01:33:14.066Z</time>
      </trkpt>
      <trkpt lat="43.83096" lon="4.15275">
        <ele>129.399135</ele>
        <time>2020-01-18T01:33:45.215Z</time>
      </trkpt>
      <trkpt lat="43.83082" lon="4.15277">
        <ele>128.733384</ele>
        <time>2020-01-18T01:33:47.338Z</time>
      </trkpt>
      <trkpt lat="43.83041" lon="4.15297">
        <ele>126.580318</ele>
        <time>2020-01-18T01:33:54.458Z</time>
      </trkpt>
      <trkpt lat="43.83009" lon="4.153">
        <ele>124.95814</ele>
        <time>2020-01-18T01:33:59.824Z</time>
      </trkpt>
      <trkpt lat="43.82965" lon="4.15319">
        <ele>122.708636</ele>
        <time>2020-01-18T01:34:07.491Z</time>
      </trkpt>
      <trkpt lat="43.82946" lon="4.15321">
        <ele>121.905327</ele>
        <time>2020-01-18T01:34:10.595Z</time>
      </trkpt>
      <trkpt lat="43.82914" lon="4.15316">
        <ele>120.58184</ele>
        <time>2020-01-18T01:34:15.959Z</time>
      </trkpt>
      <trkpt lat="43.82884" lon="4.15307">
        <ele>119.269576</ele>
        <time>2020-01-18T01:34:21.327Z</time>
      </trkpt>
      <trkpt lat="43.82845" lon="4.15312">
        <ele>117.6739</ele>
        <time>2020-01-18T01:34:27.880Z</time>
      </trkpt>
      <trkpt lat="43.82822" lon="4.15297">
        <ele>116.594746</ele>
        <time>2020-01-18T01:34:32.448Z</time>
      </trkpt>
      <trkpt lat="43.82769" lon="4.15249">
        <ele>114.356453</ele>
        <time>2020-01-18T01:34:43.829Z</time>
      </trkpt>
      <trkpt lat="43.82742" lon="4.15215">
        <ele>113.320685</ele>
        <time>2020-01-18T01:34:50.385Z</time>
      </trkpt>
      <trkpt lat="43.82717" lon="4.15202">
        <ele>112.548642</ele>
        <time>2020-01-18T01:34:55.217Z</time>
      </trkpt>
      <trkpt lat="43.82639" lon="4.15141">
        <ele>110.06344</ele>
        <time>2020-01-18T01:35:11.401Z</time>
      </trkpt>
      <trkpt lat="43.82607" lon="4.15091">
        <ele>109.540839</ele>
        <time>2020-01-18T01:35:21.092Z</time>
      </trkpt>
      <trkpt lat="43.82598" lon="4.15099">
        <ele>109.424579</ele>
        <time>2020-01-18T01:35:23.537Z</time>
      </trkpt>
      <trkpt lat="43.82595" lon="4.15116">
        <ele>109.292014</ele>
        <time>2020-01-18T01:35:25.945Z</time>
      </trkpt>
      <trkpt lat="43.82556" lon="4.15207">
        <ele>108.475163</ele>
        <time>2020-01-18T01:35:42.551Z</time>
      </trkpt>
      <trkpt lat="43.82548" lon="4.15218">
        <ele>108.358731</ele>
        <time>2020-01-18T01:35:45.211Z</time>
      </trkpt>
      <trkpt lat="43.82544" lon="4.15214">
        <ele>108.303234</ele>
        <time>2020-01-18T01:35:46.912Z</time>
      </trkpt>
      <trkpt lat="43.82506" lon="4.15185">
        <ele>107.71187</ele>
        <time>2020-01-18T01:35:55.932Z</time>
      </trkpt>
      <trkpt lat="43.82472" lon="4.15087">
        <ele>106.539315</ele>
        <time>2020-01-18T01:36:11.531Z</time>
      </trkpt>
      <trkpt lat="43.82438" lon="4.15043">
        <ele>105.843178</ele>
        <time>2020-01-18T01:36:20.237Z</time>
      </trkpt>
      <trkpt lat="43.82411" lon="4.15009">
        <ele>105.010841</ele>
        <time>2020-01-18T01:36:26.518Z</time>
      </trkpt>
      <trkpt lat="43.82336" lon="4.14959">
        <ele>102.002637</ele>
        <time>2020-01-18T01:36:40.272Z</time>
      </trkpt>
      <trkpt lat="43.82253" lon="4.14848">
        <ele>98.103102</ele>
        <time>2020-01-18T01:36:59.302Z</time>
      </trkpt>
      <trkpt lat="43.82186" lon="4.14778">
        <ele>95.800314</ele>
        <time>2020-01-18T01:37:13.860Z</time>
      </trkpt>
      <trkpt lat="43.82165" lon="4.14772">
        <ele>95.202758</ele>
        <time>2020-01-18T01:37:17.778Z</time>
      </trkpt>
      <trkpt lat="43.8208" lon="4.1479">
        <ele>93.368338</ele>
        <time>2020-01-18T01:37:33.937Z</time>
      </trkpt>
      <trkpt lat="43.82074" lon="4.14783">
        <ele>93.250787</ele>
        <time>2020-01-18T01:37:35.463Z</time>
      </trkpt>
      <trkpt lat="43.82035" lon="4.14628">
        <ele>91.440883</ele>
        <time>2020-01-18T01:37:58.536Z</time>
      </trkpt>
      <trkpt lat="43.82034" lon="4.14625">
        <ele>91.408309</ele>
        <time>2020-01-18T01:37:58.891Z</time>
      </trkpt>
      <trkpt lat="43.82033" lon="4.14617">
        <ele>91.312841</ele>
        <time>2020-01-18T01:38:00.017Z</time>
      </trkpt>
      <trkpt lat="43.82027" lon="4.14625">
        <ele>91.118092</ele>
        <time>2020-01-18T01:38:01.697Z</time>
      </trkpt>
      <trkpt lat="43.81993" lon="4.14635">
        <ele>90.27468</ele>
        <time>2020-01-18T01:38:07.881Z</time>
      </trkpt>
      <trkpt lat="43.81944" lon="4.14657">
        <ele>89.007726</ele>
        <time>2020-01-18T01:38:17.120Z</time>
      </trkpt>
      <trkpt lat="43.81938" lon="4.14664">
        <ele>88.806006</ele>
        <time>2020-01-18T01:38:18.517Z</time>
      </trkpt>
      <trkpt lat="43.81934" lon="4.14668">
        <ele>88.683639</ele>
        <time>2020-01-18T01:38:19.305Z</time>
      </trkpt>
      <trkpt lat="43.81929" lon="4.14661">
        <ele>88.494644</ele>
        <time>2020-01-18T01:38:20.701Z</time>
      </trkpt>
      <trkpt lat="43.81929" lon="4.14639">
        <ele>88.09651</ele>
        <time>2020-01-18T01:38:23.772Z</time>
      </trkpt>
      <trkpt lat="43.81928" lon="4.14604">
        <ele>87.473156</ele>
        <time>2020-01-18T01:38:28.254Z</time>
      </trkpt>
      <trkpt lat="43.81925" lon="4.14591">
        <ele>87.229525</ele>
        <time>2020-01-18T01:38:30.104Z</time>
      </trkpt>
      <trkpt lat="43.8192" lon="4.14562">
        <ele>86.700114</ele>
        <time>2020-01-18T01:38:33.877Z</time>
      </trkpt>
      <trkpt lat="43.8185" lon="4.14334">
        <ele>82.315932</ele>
        <time>2020-01-18T01:39:06.925Z</time>
      </trkpt>
      <trkpt lat="43.81847" lon="4.14292">
        <ele>82.327948</ele>
        <time>2020-01-18T01:39:13.269Z</time>
      </trkpt>
      <trkpt lat="43.8184" lon="4.14281">
        <ele>82.331806</ele>
        <time>2020-01-18T01:39:15.738Z</time>
      </trkpt>
      <trkpt lat="43.81833" lon="4.14268">
        <ele>82.336415</ele>
        <time>2020-01-18T01:39:18.244Z</time>
      </trkpt>
      <trkpt lat="43.81827" lon="4.14226">
        <ele>82.348382</ele>
        <time>2020-01-18T01:39:25.223Z</time>
      </trkpt>
      <trkpt lat="43.81826" lon="4.14115">
        <ele>82.379617</ele>
        <time>2020-01-18T01:39:46.493Z</time>
      </trkpt>
      <trkpt lat="43.81803" lon="4.14037">
        <ele>83.698929</ele>
        <time>2020-01-18T01:40:06.487Z</time>
      </trkpt>
      <trkpt lat="43.81805" lon="4.13882">
        <ele>86.728328</ele>
        <time>2020-01-18T01:40:48.441Z</time>
      </trkpt>
      <trkpt lat="43.81787" lon="4.13865">
        <ele>87.365157</ele>
        <time>2020-01-18T01:40:57.697Z</time>
      </trkpt>
      <trkpt lat="43.81762" lon="4.13774">
        <ele>90.474125</ele>
        <time>2020-01-18T01:41:29.742Z</time>
      </trkpt>
      <trkpt lat="43.81691" lon="4.13604">
        <ele>95.675319</ele>
        <time>2020-01-18T01:42:37.561Z</time>
      </trkpt>
      <trkpt lat="43.81684" lon="4.13519">
        <ele>96.468771</ele>
        <time>2020-01-18T01:42:57.167Z</time>
      </trkpt>
      <trkpt lat="43.81682" lon="4.13505">
        <ele>96.600784</ele>
        <time>2020-01-18T01:43:01.889Z</time>
      </trkpt>
      <trkpt lat="43.81681" lon="4.13502">
        <ele>96.638159</ele>
        <time>2020-01-18T01:43:02.338Z</time>
      </trkpt>
      <trkpt lat="43.81656" lon="4.13417">
        <ele>97.489104</ele>
        <time>2020-01-18T01:43:17.061Z</time>
      </trkpt>
      <trkpt lat="43.81631" lon="4.13352">
        <ele>96.047678</ele>
        <time>2020-01-18T01:43:26.652Z</time>
      </trkpt>
      <trkpt lat="43.81628" lon="4.13277">
        <ele>94.342601</ele>
        <time>2020-01-18T01:43:36.071Z</time>
      </trkpt>
      <trkpt lat="43.8162" lon="4.13248">
        <ele>93.63984</ele>
        <time>2020-01-18T01:43:39.898Z</time>
      </trkpt>
      <trkpt lat="43.81613" lon="4.13234">
        <ele>93.251238</ele>
        <time>2020-01-18T01:43:42.005Z</time>
      </trkpt>
      <trkpt lat="43.81576" lon="4.13196">
        <ele>91.874886</ele>
        <time>2020-01-18T01:43:50.048Z</time>
      </trkpt>
      <trkpt lat="43.81568" lon="4.13024">
        <ele>90.917676</ele>
        <time>2020-01-18T01:44:15.272Z</time>
      </trkpt>
      <trkpt lat="43.81567" lon="4.13017">
        <ele>90.881871</ele>
        <time>2020-01-18T01:44:16.241Z</time>
      </trkpt>
      <trkpt lat="43.81567" lon="4.13013">
        <ele>90.858918</ele>
        <time>2020-01-18T01:44:17.195Z</time>
      </trkpt>
      <trkpt lat="43.81563" lon="4.12976">
        <ele>90.649043</ele>
        <time>2020-01-18T01:44:25.907Z</time>
      </trkpt>
      <trkpt lat="43.81569" lon="4.12923">
        <ele>90.975791</ele>
        <time>2020-01-18T01:44:38.003Z</time>
      </trkpt>
      <trkpt lat="43.81573" lon="4.12912">
        <ele>91.176476</ele>
        <time>2020-01-18T01:44:41.320Z</time>
      </trkpt>
      <trkpt lat="43.81586" lon="4.12883">
        <ele>91.692717</ele>
        <time>2020-01-18T01:44:49.861Z</time>
      </trkpt>
      <trkpt lat="43.81593" lon="4.12865">
        <ele>92.012987</ele>
        <time>2020-01-18T01:44:54.924Z</time>
      </trkpt>
      <trkpt lat="43.81596" lon="4.12837">
        <ele>92.443187</ele>
        <time>2020-01-18T01:45:02.483Z</time>
      </trkpt>
      <trkpt lat="43.81596" lon="4.12834">
        <ele>92.499016</ele>
        <time>2020-01-18T01:45:03.154Z</time>
      </trkpt>
      <trkpt lat="43.81598" lon="4.12815">
        <ele>92.779695</ele>
        <time>2020-01-18T01:45:07.903Z</time>
      </trkpt>
      <trkpt lat="43.81599" lon="4.12793">
        <ele>93.120491</ele>
        <time>2020-01-18T01:45:14.020Z</time>
      </trkpt>
      <trkpt lat="43.81601" lon="4.12734">
        <ele>94.041111</ele>
        <time>2020-01-18T01:45:28.910Z</time>
      </trkpt>
      <trkpt lat="43.81601" lon="4.12733">
        <ele>94.051896</ele>
        <time>2020-01-18T01:45:29.218Z</time>
      </trkpt>
      <trkpt lat="43.81592" lon="4.12636">
        <ele>94.885663</ele>
        <time>2020-01-18T01:45:50.670Z</time>
      </trkpt>
      <trkpt lat="43.81587" lon="4.12628">
        <ele>94.956331</ele>
        <time>2020-01-18T01:45:52.626Z</time>
      </trkpt>
      <trkpt lat="43.81563" lon="4.12626">
        <ele>95.183387</ele>
        <time>2020-01-18T01:45:58.459Z</time>
      </trkpt>
      <trkpt lat="43.81549" lon="4.12575">
        <ele>95.554842</ele>
        <time>2020-01-18T01:46:07.581Z</time>
      </trkpt>
      <trkpt lat="43.81505" lon="4.12434">
        <ele>96.630116</ele>
        <time>2020-01-18T01:46:35.635Z</time>
      </trkpt>
      <trkpt lat="43.81483" lon="4.12366">
        <ele>97.165286</ele>
        <time>2020-01-18T01:46:49.879Z</time>
      </trkpt>
      <trkpt lat="43.81483" lon="4.12361">
        <ele>97.201277</ele>
        <time>2020-01-18T01:46:50.709Z</time>
      </trkpt>
      <trkpt lat="43.81483" lon="4.12357">
        <ele>97.229378</ele>
        <time>2020-01-18T01:46:51.815Z</time>
      </trkpt>
      <trkpt lat="43.81485" lon="4.12333">
        <ele>97.398314</ele>
        <time>2020-01-18T01:46:56.776Z</time>
      </trkpt>
      <trkpt lat="43.81485" lon="4.12325">
        <ele>97.457283</ele>
        <time>2020-01-18T01:46:58.662Z</time>
      </trkpt>
      <trkpt lat="43.8149" lon="4.12313">
        <ele>97.559242</ele>
        <time>2020-01-18T01:47:01.144Z</time>
      </trkpt>
      <trkpt lat="43.81492" lon="4.12311">
        <ele>97.578589</ele>
        <time>2020-01-18T01:47:01.905Z</time>
      </trkpt>
      <trkpt lat="43.81482" lon="4.12291">
        <ele>97.746586</ele>
        <time>2020-01-18T01:47:07.062Z</time>
      </trkpt>
      <trkpt lat="43.81462" lon="4.12247">
        <ele>98.059007</ele>
        <time>2020-01-18T01:47:18.502Z</time>
      </trkpt>
      <trkpt lat="43.81433" lon="4.1222">
        <ele>98.330447</ele>
        <time>2020-01-18T01:47:29.004Z</time>
      </trkpt>
      <trkpt lat="43.81431" lon="4.12218">
        <ele>98.343133</ele>
        <time>2020-01-18T01:47:29.831Z</time>
      </trkpt>
      <trkpt lat="43.81433" lon="4.12208">
        <ele>98.404606</ele>
        <time>2020-01-18T01:47:31.749Z</time>
      </trkpt>
      <trkpt lat="43.81437" lon="4.12197">
        <ele>98.470764</ele>
        <time>2020-01-18T01:47:33.907Z</time>
      </trkpt>
      <trkpt lat="43.81439" lon="4.12192">
        <ele>98.503698</ele>
        <time>2020-01-18T01:47:35.119Z</time>
      </trkpt>
      <trkpt lat="43.81433" lon="4.1219">
        <ele>98.557159</ele>
        <time>2020-01-18T01:47:37.213Z</time>
      </trkpt>
      <trkpt lat="43.8143" lon="4.12184">
        <ele>98.596429</ele>
        <time>2020-01-18T01:47:38.925Z</time>
      </trkpt>
      <trkpt lat="43.81403" lon="4.12107">
        <ele>99.073687</ele>
        <time>2020-01-18T01:47:54.449Z</time>
      </trkpt>
      <trkpt lat="43.8139" lon="4.12052">
        <ele>98.940114</ele>
        <time>2020-01-18T01:48:03.947Z</time>
      </trkpt>
      <trkpt lat="43.81383" lon="4.12037">
        <ele>98.771991</ele>
        <time>2020-01-18T01:48:07.121Z</time>
      </trkpt>
      <trkpt lat="43.81379" lon="4.12025">
        <ele>98.651286</ele>
        <time>2020-01-18T01:48:08.904Z</time>
      </trkpt>
      <trkpt lat="43.8135" lon="4.1196">
        <ele>97.927129</ele>
        <time>2020-01-18T01:48:20.447Z</time>
      </trkpt>
      <trkpt lat="43.81346" lon="4.11912">
        <ele>97.470898</ele>
        <time>2020-01-18T01:48:27.141Z</time>
      </trkpt>
      <trkpt lat="43.81348" lon="4.11893">
        <ele>97.285156</ele>
        <time>2020-01-18T01:48:29.754Z</time>
      </trkpt>
      <trkpt lat="43.81352" lon="4.11876">
        <ele>97.11007</ele>
        <time>2020-01-18T01:48:32.284Z</time>
      </trkpt>
      <trkpt lat="43.81351" lon="4.11841">
        <ele>96.680674</ele>
        <time>2020-01-18T01:48:37.018Z</time>
      </trkpt>
      <trkpt lat="43.81337" lon="4.11788">
        <ele>95.551709</ele>
        <time>2020-01-18T01:48:44.643Z</time>
      </trkpt>
      <trkpt lat="43.81335" lon="4.11768">
        <ele>95.144153</ele>
        <time>2020-01-18T01:48:47.419Z</time>
      </trkpt>
      <trkpt lat="43.81329" lon="4.11746">
        <ele>94.655243</ele>
        <time>2020-01-18T01:48:50.628Z</time>
      </trkpt>
      <trkpt lat="43.81324" lon="4.11732">
        <ele>94.359822</ele>
        <time>2020-01-18T01:48:52.611Z</time>
      </trkpt>
      <trkpt lat="43.81303" lon="4.11701">
        <ele>93.49571</ele>
        <time>2020-01-18T01:48:58.269Z</time>
      </trkpt>
      <trkpt lat="43.81259" lon="4.11522">
        <ele>89.091014</ele>
        <time>2020-01-18T01:49:22.605Z</time>
      </trkpt>
      <trkpt lat="43.81252" lon="4.11511">
        <ele>88.731642</ele>
        <time>2020-01-18T01:49:24.319Z</time>
      </trkpt>
      <trkpt lat="43.81244" lon="4.11498">
        <ele>88.278851</ele>
        <time>2020-01-18T01:49:26.616Z</time>
      </trkpt>
      <trkpt lat="43.81231" lon="4.11484">
        <ele>87.708668</ele>
        <time>2020-01-18T01:49:29.422Z</time>
      </trkpt>
      <trkpt lat="43.81214" lon="4.11472">
        <ele>87.049397</ele>
        <time>2020-01-18T01:49:32.704Z</time>
      </trkpt>
      <trkpt lat="43.81191" lon="4.11455">
        <ele>86.106008</ele>
        <time>2020-01-18T01:49:37.342Z</time>
      </trkpt>
      <trkpt lat="43.8115" lon="4.11445">
        <ele>84.939555</ele>
        <time>2020-01-18T01:49:44.684Z</time>
      </trkpt>
      <trkpt lat="43.81126" lon="4.11432">
        <ele>84.355228</ele>
        <time>2020-01-18T01:49:52.540Z</time>
      </trkpt>
      <trkpt lat="43.81052" lon="4.11409">
        <ele>82.65549</ele>
        <time>2020-01-18T01:50:16.471Z</time>
      </trkpt>
      <trkpt lat="43.80992" lon="4.11364">
        <ele>81.465807</ele>
        <time>2020-01-18T01:50:39.882Z</time>
      </trkpt>
      <trkpt lat="43.80967" lon="4.11331">
        <ele>81.616517</ele>
        <time>2020-01-18T01:50:52.915Z</time>
      </trkpt>
      <trkpt lat="43.80961" lon="4.11309">
        <ele>81.69092</ele>
        <time>2020-01-18T01:50:59.589Z</time>
      </trkpt>
      <trkpt lat="43.80958" lon="4.11292">
        <ele>81.74595</ele>
        <time>2020-01-18T01:51:04.534Z</time>
      </trkpt>
      <trkpt lat="43.80944" lon="4.11207">
        <ele>82.02103</ele>
        <time>2020-01-18T01:51:30.037Z</time>
      </trkpt>
      <trkpt lat="43.80943" lon="4.11157">
        <ele>82.179369</ele>
        <time>2020-01-18T01:51:45.324Z</time>
      </trkpt>
      <trkpt lat="43.80952" lon="4.11086">
        <ele>82.918687</ele>
        <time>2020-01-18T01:52:09.107Z</time>
      </trkpt>
      <trkpt lat="43.80964" lon="4.11046">
        <ele>83.38087</ele>
        <time>2020-01-18T01:52:23.441Z</time>
      </trkpt>
      <trkpt lat="43.80957" lon="4.11017">
        <ele>83.709192</ele>
        <time>2020-01-18T01:52:33.375Z</time>
      </trkpt>
      <trkpt lat="43.80974" lon="4.10954">
        <ele>84.428246</ele>
        <time>2020-01-18T01:52:55.615Z</time>
      </trkpt>
      <trkpt lat="43.80974" lon="4.10935">
        <ele>84.623734</ele>
        <time>2020-01-18T01:53:01.266Z</time>
      </trkpt>
      <trkpt lat="43.80985" lon="4.10923">
        <ele>84.829678</ele>
        <time>2020-01-18T01:53:07.822Z</time>
      </trkpt>
      <trkpt lat="43.80988" lon="4.10908">
        <ele>84.841716</ele>
        <time>2020-01-18T01:53:12.838Z</time>
      </trkpt>
      <trkpt lat="43.80993" lon="4.10861">
        <ele>84.735376</ele>
        <time>2020-01-18T01:53:26.735Z</time>
      </trkpt>
      <trkpt lat="43.80985" lon="4.10825">
        <ele>84.64966</ele>
        <time>2020-01-18T01:53:37.243Z</time>
      </trkpt>
      <trkpt lat="43.80982" lon="4.10792">
        <ele>84.575518</ele>
        <time>2020-01-18T01:53:45.919Z</time>
      </trkpt>
      <trkpt lat="43.80991" lon="4.10763">
        <ele>84.506582</ele>
        <time>2020-01-18T01:53:54.670Z</time>
      </trkpt>
      <trkpt lat="43.80972" lon="4.1072">
        <ele>84.392623</ele>
        <time>2020-01-18T01:54:07.776Z</time>
      </trkpt>
      <trkpt lat="43.80967" lon="4.10711">
        <ele>84.36905</ele>
        <time>2020-01-18T01:54:10.374Z</time>
      </trkpt>
      <trkpt lat="43.80964" lon="4.10704">
        <ele>84.350373</ele>
        <time>2020-01-18T01:54:12.172Z</time>
      </trkpt>
      <trkpt lat="43.80948" lon="4.10618">
        <ele>82.626388</ele>
        <time>2020-01-18T01:54:32.404Z</time>
      </trkpt>
      <trkpt lat="43.80931" lon="4.10576">
        <ele>81.497758</ele>
        <time>2020-01-18T01:54:42.841Z</time>
      </trkpt>
      <trkpt lat="43.80928" lon="4.1054">
        <ele>80.620639</ele>
        <time>2020-01-18T01:54:50.842Z</time>
      </trkpt>
      <trkpt lat="43.80912" lon="4.10505">
        <ele>79.643348</ele>
        <time>2020-01-18T01:54:59.695Z</time>
      </trkpt>
      <trkpt lat="43.80902" lon="4.10487">
        <ele>79.112235</ele>
        <time>2020-01-18T01:55:04.579Z</time>
      </trkpt>
      <trkpt lat="43.80899" lon="4.10473">
        <ele>78.772792</ele>
        <time>2020-01-18T01:55:07.588Z</time>
      </trkpt>
      <trkpt lat="43.8088" lon="4.10453">
        <ele>78.194446</ele>
        <time>2020-01-18T01:55:14.901Z</time>
      </trkpt>
      <trkpt lat="43.80852" lon="4.10396">
        <ele>77.347666</ele>
        <time>2020-01-18T01:55:30.264Z</time>
      </trkpt>
      <trkpt lat="43.80824" lon="4.10312">
        <ele>76.21568</ele>
        <time>2020-01-18T01:55:51.852Z</time>
      </trkpt>
      <trkpt lat="43.80822" lon="4.10292">
        <ele>75.968105</ele>
        <time>2020-01-18T01:55:57.027Z</time>
      </trkpt>
      <trkpt lat="43.80821" lon="4.1028">
        <ele>75.819713</ele>
        <time>2020-01-18T01:55:59.936Z</time>
      </trkpt>
      <trkpt lat="43.80821" lon="4.1028">
        <ele>75.819713</ele>
        <time>2020-01-18T01:56:00.014Z</time>
      </trkpt>
      <trkpt lat="43.80811" lon="4.10288">
        <ele>75.62765</ele>
        <time>2020-01-18T01:56:03.075Z</time>
      </trkpt>
      <trkpt lat="43.80674" lon="4.10417">
        <ele>77.949839</ele>
        <time>2020-01-18T01:56:56.031Z</time>
      </trkpt>
      <trkpt lat="43.80628" lon="4.10452">
        <ele>78.832186</ele>
        <time>2020-01-18T01:57:15.170Z</time>
      </trkpt>
      <trkpt lat="43.80583" lon="4.10501">
        <ele>79.775149</ele>
        <time>2020-01-18T01:57:34.937Z</time>
      </trkpt>
      <trkpt lat="43.80563" lon="4.10507">
        <ele>80.120716</ele>
        <time>2020-01-18T01:57:41.784Z</time>
      </trkpt>
      <trkpt lat="43.80507" lon="4.10507">
        <ele>81.04168</ele>
        <time>2020-01-18T01:57:58.670Z</time>
      </trkpt>
      <trkpt lat="43.80434" lon="4.1053">
        <ele>81.271122</ele>
        <time>2020-01-18T01:58:16.544Z</time>
      </trkpt>
      <trkpt lat="43.80384" lon="4.10565">
        <ele>81.089186</ele>
        <time>2020-01-18T01:58:28.500Z</time>
      </trkpt>
      <trkpt lat="43.80369" lon="4.10577">
        <ele>81.031448</ele>
        <time>2020-01-18T01:58:32.399Z</time>
      </trkpt>
      <trkpt lat="43.80355" lon="4.10579">
        <ele>80.987597</ele>
        <time>2020-01-18T01:58:35.188Z</time>
      </trkpt>
      <trkpt lat="43.80316" lon="4.1059">
        <ele>80.854871</ele>
        <time>2020-01-18T01:58:44.198Z</time>
      </trkpt>
      <trkpt lat="43.80306" lon="4.10585">
        <ele>80.764587</ele>
        <time>2020-01-18T01:58:46.565Z</time>
      </trkpt>
      <trkpt lat="43.80292" lon="4.10584">
        <ele>80.625226</ele>
        <time>2020-01-18T01:58:49.487Z</time>
      </trkpt>
      <trkpt lat="43.80278" lon="4.10622">
        <ele>80.333111</ele>
        <time>2020-01-18T01:58:55.626Z</time>
      </trkpt>
      <trkpt lat="43.80263" lon="4.10653">
        <ele>80.073287</ele>
        <time>2020-01-18T01:59:01.093Z</time>
      </trkpt>
      <trkpt lat="43.80247" lon="4.10679">
        <ele>79.832433</ele>
        <time>2020-01-18T01:59:05.921Z</time>
      </trkpt>
      <trkpt lat="43.80238" lon="4.10686">
        <ele>79.731531</ele>
        <time>2020-01-18T01:59:08.105Z</time>
      </trkpt>
      <trkpt lat="43.8023" lon="4.10686">
        <ele>79.652178</ele>
        <time>2020-01-18T01:59:09.684Z</time>
      </trkpt>
      <trkpt lat="43.80223" lon="4.1068">
        <ele>79.56983</ele>
        <time>2020-01-18T01:59:11.283Z</time>
      </trkpt>
      <trkpt lat="43.80214" lon="4.10678">
        <ele>79.488183</ele>
        <time>2020-01-18T01:59:12.956Z</time>
      </trkpt>
      <trkpt lat="43.80207" lon="4.10683">
        <ele>79.406151</ele>
        <time>2020-01-18T01:59:14.681Z</time>
      </trkpt>
      <trkpt lat="43.80195" lon="4.10682">
        <ele>79.296367</ele>
        <time>2020-01-18T01:59:16.860Z</time>
      </trkpt>
      <trkpt lat="43.80176" lon="4.10676">
        <ele>79.104393</ele>
        <time>2020-01-18T01:59:20.624Z</time>
      </trkpt>
      <trkpt lat="43.80163" lon="4.10667">
        <ele>78.851359</ele>
        <time>2020-01-18T01:59:23.517Z</time>
      </trkpt>
      <trkpt lat="43.8013" lon="4.10632">
        <ele>78.118444</ele>
        <time>2020-01-18T01:59:31.646Z</time>
      </trkpt>
      <trkpt lat="43.80102" lon="4.10608">
        <ele>77.546929</ele>
        <time>2020-01-18T01:59:37.780Z</time>
      </trkpt>
      <trkpt lat="43.80111" lon="4.10584">
        <ele>77.209032</ele>
        <time>2020-01-18T01:59:41.459Z</time>
      </trkpt>
      <trkpt lat="43.80128" lon="4.10507">
        <ele>76.19055</ele>
        <time>2020-01-18T01:59:52.542Z</time>
      </trkpt>
      <trkpt lat="43.80119" lon="4.10408">
        <ele>74.882214</ele>
        <time>2020-01-18T02:00:06.371Z</time>
      </trkpt>
      <trkpt lat="43.80116" lon="4.10319">
        <ele>73.707125</ele>
        <time>2020-01-18T02:00:19.006Z</time>
      </trkpt>
      <trkpt lat="43.80125" lon="4.10149">
        <ele>71.40727</ele>
        <time>2020-01-18T02:00:43.212Z</time>
      </trkpt>
      <trkpt lat="43.80122" lon="4.10087">
        <ele>70.536844</ele>
        <time>2020-01-18T02:00:52.053Z</time>
      </trkpt>
      <trkpt lat="43.80108" lon="4.09995">
        <ele>69.232699</ele>
        <time>2020-01-18T02:01:05.085Z</time>
      </trkpt>
      <trkpt lat="43.80117" lon="4.09981">
        <ele>68.888725</ele>
        <time>2020-01-18T02:01:07.652Z</time>
      </trkpt>
      <trkpt lat="43.80089" lon="4.09951">
        <ele>67.986685</ele>
        <time>2020-01-18T02:01:14.243Z</time>
      </trkpt>
      <trkpt lat="43.80026" lon="4.09898">
        <ele>66.085684</ele>
        <time>2020-01-18T02:01:27.920Z</time>
      </trkpt>
      <trkpt lat="43.79872" lon="4.09679">
        <ele>60.417344</ele>
        <time>2020-01-18T02:02:08.470Z</time>
      </trkpt>
      <trkpt lat="43.798" lon="4.09588">
        <ele>59.041744</ele>
        <time>2020-01-18T02:02:27.551Z</time>
      </trkpt>
      <trkpt lat="43.79792" lon="4.09578">
        <ele>58.913808</ele>
        <time>2020-01-18T02:02:29.666Z</time>
      </trkpt>
      <trkpt lat="43.79778" lon="4.09582">
        <ele>58.739685</ele>
        <time>2020-01-18T02:02:32.971Z</time>
      </trkpt>
      <trkpt lat="43.79755" lon="4.09615">
        <ele>58.350329</ele>
        <time>2020-01-18T02:02:40.142Z</time>
      </trkpt>
      <trkpt lat="43.79731" lon="4.09632">
        <ele>58.032869</ele>
        <time>2020-01-18T02:02:45.989Z</time>
      </trkpt>
      <trkpt lat="43.79675" lon="4.09688">
        <ele>57.773559</ele>
        <time>2020-01-18T02:03:01.192Z</time>
      </trkpt>
      <trkpt lat="43.79649" lon="4.0971">
        <ele>57.722823</ele>
        <time>2020-01-18T02:03:08.047Z</time>
      </trkpt>
      <trkpt lat="43.79626" lon="4.09678">
        <ele>57.669086</ele>
        <time>2020-01-18T02:03:15.225Z</time>
      </trkpt>
      <trkpt lat="43.79571" lon="4.0962">
        <ele>57.602184</ele>
        <time>2020-01-18T02:03:30.899Z</time>
      </trkpt>
      <trkpt lat="43.79554" lon="4.09593">
        <ele>57.742572</ele>
        <time>2020-01-18T02:03:36.720Z</time>
      </trkpt>
      <trkpt lat="43.79556" lon="4.09587">
        <ele>57.770317</ele>
        <time>2020-01-18T02:03:37.875Z</time>
      </trkpt>
      <trkpt lat="43.7955" lon="4.09576">
        <ele>57.821438</ele>
        <time>2020-01-18T02:03:40.032Z</time>
      </trkpt>
      <trkpt lat="43.79545" lon="4.09578">
        <ele>57.849353</ele>
        <time>2020-01-18T02:03:41.087Z</time>
      </trkpt>
      <trkpt lat="43.79542" lon="4.09581">
        <ele>57.868578</ele>
        <time>2020-01-18T02:03:41.945Z</time>
      </trkpt>
      <trkpt lat="43.79542" lon="4.09586">
        <ele>57.887616</ele>
        <time>2020-01-18T02:03:42.710Z</time>
      </trkpt>
      <trkpt lat="43.79543" lon="4.09591">
        <ele>57.906924</ele>
        <time>2020-01-18T02:03:43.569Z</time>
      </trkpt>
      <trkpt lat="43.79535" lon="4.09601">
        <ele>57.964501</ele>
        <time>2020-01-18T02:03:46.029Z</time>
      </trkpt>
      <trkpt lat="43.79531" lon="4.09602">
        <ele>57.987256</ele>
        <time>2020-01-18T02:03:46.997Z</time>
      </trkpt>
      <trkpt lat="43.79504" lon="4.09608">
        <ele>58.131254</ele>
        <time>2020-01-18T02:03:53.403Z</time>
      </trkpt>
      <trkpt lat="43.79414" lon="4.09603">
        <ele>59.010899</ele>
        <time>2020-01-18T02:04:18.231Z</time>
      </trkpt>
      <trkpt lat="43.79384" lon="4.09603">
        <ele>59.949548</ele>
        <time>2020-01-18T02:04:29.237Z</time>
      </trkpt>
      <trkpt lat="43.79348" lon="4.09598">
        <ele>61.042031</ele>
        <time>2020-01-18T02:04:42.191Z</time>
      </trkpt>
      <trkpt lat="43.79316" lon="4.09592">
        <ele>62.05532</ele>
        <time>2020-01-18T02:04:54.504Z</time>
      </trkpt>
      <trkpt lat="43.7931" lon="4.09591">
        <ele>62.222231</ele>
        <time>2020-01-18T02:04:57.065Z</time>
      </trkpt>
      <trkpt lat="43.79289" lon="4.09588">
        <ele>62.886221</ele>
        <time>2020-01-18T02:05:04.704Z</time>
      </trkpt>
      <trkpt lat="43.79275" lon="4.09583">
        <ele>63.33346</ele>
        <time>2020-01-18T02:05:11.991Z</time>
      </trkpt>
      <trkpt lat="43.79194" lon="4.09538">
        <ele>67.172443</ele>
        <time>2020-01-18T02:05:55.140Z</time>
      </trkpt>
      <trkpt lat="43.79141" lon="4.09527">
        <ele>69.818835</ele>
        <time>2020-01-18T02:06:23.432Z</time>
      </trkpt>
      <trkpt lat="43.79122" lon="4.09525">
        <ele>70.739819</ele>
        <time>2020-01-18T02:06:31.807Z</time>
      </trkpt>
      <trkpt lat="43.79113" lon="4.09544">
        <ele>71.550699</ele>
        <time>2020-01-18T02:06:39.803Z</time>
      </trkpt>
      <trkpt lat="43.79107" lon="4.09528">
        <ele>72.198232</ele>
        <time>2020-01-18T02:06:44.677Z</time>
      </trkpt>
      <trkpt lat="43.79082" lon="4.09535">
        <ele>73.060507</ele>
        <time>2020-01-18T02:06:56.292Z</time>
      </trkpt>
      <trkpt lat="43.7907" lon="4.09533">
        <ele>73.24568</ele>
        <time>2020-01-18T02:07:00.998Z</time>
      </trkpt>
      <trkpt lat="43.79048" lon="4.09508">
        <ele>73.654442</ele>
        <time>2020-01-18T02:07:12.694Z</time>
      </trkpt>
      <trkpt lat="43.79018" lon="4.09485">
        <ele>74.159748</ele>
        <time>2020-01-18T02:07:26.133Z</time>
      </trkpt>
      <trkpt lat="43.78964" lon="4.09408">
        <ele>75.288973</ele>
        <time>2020-01-18T02:07:47.294Z</time>
      </trkpt>
      <trkpt lat="43.78885" lon="4.09336">
        <ele>72.272792</ele>
        <time>2020-01-18T02:08:04.079Z</time>
      </trkpt>
      <trkpt lat="43.78868" lon="4.09326">
        <ele>71.481207</ele>
        <time>2020-01-18T02:08:07.670Z</time>
      </trkpt>
      <trkpt lat="43.78876" lon="4.09324">
        <ele>71.109858</ele>
        <time>2020-01-18T02:08:08.958Z</time>
      </trkpt>
      <trkpt lat="43.78902" lon="4.09321">
        <ele>70.040369</ele>
        <time>2020-01-18T02:08:13.459Z</time>
      </trkpt>
      <trkpt lat="43.78904" lon="4.09308">
        <ele>69.654118</ele>
        <time>2020-01-18T02:08:14.803Z</time>
      </trkpt>
      <trkpt lat="43.78901" lon="4.09301">
        <ele>69.400964</ele>
        <time>2020-01-18T02:08:15.820Z</time>
      </trkpt>
      <trkpt lat="43.7887" lon="4.09267">
        <ele>67.40284</ele>
        <time>2020-01-18T02:08:21.875Z</time>
      </trkpt>
      <trkpt lat="43.78853" lon="4.0925">
        <ele>65.418387</ele>
        <time>2020-01-18T02:08:25.116Z</time>
      </trkpt>
      <trkpt lat="43.78852" lon="4.09249">
        <ele>65.336156</ele>
        <time>2020-01-18T02:08:25.237Z</time>
      </trkpt>
      <trkpt lat="43.78804" lon="4.09223">
        <ele>60.511009</ele>
        <time>2020-01-18T02:08:32.693Z</time>
      </trkpt>
      <trkpt lat="43.78757" lon="4.0918">
        <ele>55.264514</ele>
        <time>2020-01-18T02:08:40.512Z</time>
      </trkpt>
      <trkpt lat="43.78758" lon="4.09175">
        <ele>54.94441</ele>
        <time>2020-01-18T02:08:40.970Z</time>
      </trkpt>
      <trkpt lat="43.78728" lon="4.09167">
        <ele>52.062296</ele>
        <time>2020-01-18T02:08:45.279Z</time>
      </trkpt>
      <trkpt lat="43.78705" lon="4.09148">
        <ele>49.610607</ele>
        <time>2020-01-18T02:08:49.117Z</time>
      </trkpt>
      <trkpt lat="43.78694" lon="4.09106">
        <ele>46.736771</ele>
        <time>2020-01-18T02:08:53.704Z</time>
      </trkpt>
      <trkpt lat="43.78695" lon="4.09092">
        <ele>45.837917</ele>
        <time>2020-01-18T02:08:55.084Z</time>
      </trkpt>
      <trkpt lat="43.78695" lon="4.09086">
        <ele>45.482246</ele>
        <time>2020-01-18T02:08:55.702Z</time>
      </trkpt>
      <trkpt lat="43.78696" lon="4.09054">
        <ele>43.38167</ele>
        <time>2020-01-18T02:08:59.049Z</time>
      </trkpt>
      <trkpt lat="43.78697" lon="4.09019">
        <ele>41.125485</ele>
        <time>2020-01-18T02:09:02.682Z</time>
      </trkpt>
      <trkpt lat="43.78697" lon="4.09013">
        <ele>40.763364</ele>
        <time>2020-01-18T02:09:03.217Z</time>
      </trkpt>
      <trkpt lat="43.78676" lon="4.09015">
        <ele>38.845309</ele>
        <time>2020-01-18T02:09:06.315Z</time>
      </trkpt>
      <trkpt lat="43.78673" lon="4.09015">
        <ele>38.612344</ele>
        <time>2020-01-18T02:09:06.768Z</time>
      </trkpt>
      <trkpt lat="43.78669" lon="4.08929">
        <ele>34.515392</ele>
        <time>2020-01-18T02:09:16.655Z</time>
      </trkpt>
      <trkpt lat="43.78664" lon="4.08882">
        <ele>33.66833</ele>
        <time>2020-01-18T02:09:22.668Z</time>
      </trkpt>
      <trkpt lat="43.78663" lon="4.08881">
        <ele>33.637156</ele>
        <time>2020-01-18T02:09:22.863Z</time>
      </trkpt>
      <trkpt lat="43.78646" lon="4.08784">
        <ele>31.831124</ele>
        <time>2020-01-18T02:09:37.708Z</time>
      </trkpt>
      <trkpt lat="43.78645" lon="4.08777">
        <ele>31.709694</ele>
        <time>2020-01-18T02:09:38.958Z</time>
      </trkpt>
      <trkpt lat="43.78672" lon="4.08758">
        <ele>30.940456</ele>
        <time>2020-01-18T02:09:45.450Z</time>
      </trkpt>
      <trkpt lat="43.78667" lon="4.08742">
        <ele>30.622984</ele>
        <time>2020-01-18T02:09:48.326Z</time>
      </trkpt>
      <trkpt lat="43.78663" lon="4.08731">
        <ele>30.593511</ele>
        <time>2020-01-18T02:09:50.347Z</time>
      </trkpt>
      <trkpt lat="43.78662" lon="4.08728">
        <ele>30.593511</ele>
        <time>2020-01-18T02:09:50.842Z</time>
      </trkpt>
      <trkpt lat="43.7864" lon="4.08665">
        <ele>30.593511</ele>
        <time>2020-01-18T02:10:01.975Z</time>
      </trkpt>
      <trkpt lat="43.7868" lon="4.08633">
        <ele>30.593511</ele>
        <time>2020-01-18T02:10:12.308Z</time>
      </trkpt>
      <trkpt lat="43.78685" lon="4.08629">
        <ele>30.593511</ele>
        <time>2020-01-18T02:10:13.584Z</time>
      </trkpt>
      <trkpt lat="43.78691" lon="4.08624">
        <ele>30.593511</ele>
        <time>2020-01-18T02:10:15.030Z</time>
      </trkpt>
      <trkpt lat="43.78686" lon="4.0861">
        <ele>30.593511</ele>
        <time>2020-01-18T02:10:23.398Z</time>
      </trkpt>
      <trkpt lat="43.78681" lon="4.08596">
        <ele>30.593511</ele>
        <time>2020-01-18T02:10:31.198Z</time>
      </trkpt>
      <trkpt lat="43.78681" lon="4.08596">
        <ele>30.593511</ele>
        <time>2020-01-18T02:10:31.237Z</time>
      </trkpt>
    </trkseg>
  </trk>
</gpx>